<?xml version="1.0" encoding="UTF-8" standalone="no" ?>
<gpx xmlns="http://www.topografix.com/GPX/1/1" xmlns:xsi="http://www.w3.org/2001/XMLSchema-instance" xsi:schemaLocation="http://www.topografix.com/GPX/1/1 http://www.topografix.com/GPX/1/1/gpx.xsd" version="1.1" creator="VisuGPX - https://www.visugpx.com">
  <metadata>
    <name>2018-04-07 Boucle autour de Saint-Papoul (11) en passant par Verdun en Lauragais</name>
    <desc><![CDATA[Boucle autour de Saint-Papoul (11) en passant par Verdun en Lauragais]]></desc>
  </metadata>
  <trk>
    <name><![CDATA[2018-04-07 16:21:09]]></name>
    <trkseg>
      <trkpt lat="43.3308" lon="2.03417">
        <ele>164.52</ele>
        <time>2018-04-07T07:32:03Z</time>
      </trkpt>
      <trkpt lat="43.3309" lon="2.03413">
        <ele>164.04</ele>
        <time>2018-04-07T07:33:52Z</time>
      </trkpt>
      <trkpt lat="43.33093" lon="2.03417">
        <ele>164.04</ele>
        <time>2018-04-07T07:34:15Z</time>
      </trkpt>
      <trkpt lat="43.33087" lon="2.03418">
        <ele>163.56</ele>
        <time>2018-04-07T07:34:26Z</time>
      </trkpt>
      <trkpt lat="43.33078" lon="2.03421">
        <ele>161.16</ele>
        <time>2018-04-07T07:34:31Z</time>
      </trkpt>
      <trkpt lat="43.33075" lon="2.03423">
        <ele>163.08</ele>
        <time>2018-04-07T07:34:34Z</time>
      </trkpt>
      <trkpt lat="43.33072" lon="2.03423">
        <ele>161.64</ele>
        <time>2018-04-07T07:34:37Z</time>
      </trkpt>
      <trkpt lat="43.33063" lon="2.03426">
        <ele>162.12</ele>
        <time>2018-04-07T07:34:52Z</time>
      </trkpt>
      <trkpt lat="43.3306" lon="2.0343">
        <ele>161.64</ele>
        <time>2018-04-07T07:34:58Z</time>
      </trkpt>
      <trkpt lat="43.3306" lon="2.03435">
        <ele>163.08</ele>
        <time>2018-04-07T07:37:00Z</time>
      </trkpt>
      <trkpt lat="43.33062" lon="2.0344">
        <ele>162.12</ele>
        <time>2018-04-07T07:37:05Z</time>
      </trkpt>
      <trkpt lat="43.33062" lon="2.03464">
        <ele>163.56</ele>
        <time>2018-04-07T07:37:22Z</time>
      </trkpt>
      <trkpt lat="43.33062" lon="2.03466">
        <ele>164.52</ele>
        <time>2018-04-07T07:37:24Z</time>
      </trkpt>
      <trkpt lat="43.33063" lon="2.03476">
        <ele>165</ele>
        <time>2018-04-07T07:37:31Z</time>
      </trkpt>
      <trkpt lat="43.33067" lon="2.03493">
        <ele>163.56</ele>
        <time>2018-04-07T07:37:45Z</time>
      </trkpt>
      <trkpt lat="43.33068" lon="2.03493">
        <ele>164.04</ele>
        <time>2018-04-07T07:37:47Z</time>
      </trkpt>
      <trkpt lat="43.33072" lon="2.03493">
        <ele>164.04</ele>
        <time>2018-04-07T07:37:51Z</time>
      </trkpt>
      <trkpt lat="43.33083" lon="2.03496">
        <ele>165.48</ele>
        <time>2018-04-07T07:38:04Z</time>
      </trkpt>
      <trkpt lat="43.33085" lon="2.03495">
        <ele>164.52</ele>
        <time>2018-04-07T07:38:06Z</time>
      </trkpt>
      <trkpt lat="43.3309" lon="2.035">
        <ele>163.08</ele>
        <time>2018-04-07T07:38:10Z</time>
      </trkpt>
      <trkpt lat="43.33117" lon="2.03531">
        <ele>165</ele>
        <time>2018-04-07T07:38:50Z</time>
      </trkpt>
      <trkpt lat="43.33126" lon="2.03564">
        <ele>168.85</ele>
        <time>2018-04-07T07:39:15Z</time>
      </trkpt>
      <trkpt lat="43.3313" lon="2.03582">
        <ele>167.41</ele>
        <time>2018-04-07T07:39:28Z</time>
      </trkpt>
      <trkpt lat="43.33132" lon="2.03584">
        <ele>168.85</ele>
        <time>2018-04-07T07:39:30Z</time>
      </trkpt>
      <trkpt lat="43.33134" lon="2.03588">
        <ele>167.89</ele>
        <time>2018-04-07T07:39:33Z</time>
      </trkpt>
      <trkpt lat="43.33148" lon="2.03636">
        <ele>169.81</ele>
        <time>2018-04-07T07:40:12Z</time>
      </trkpt>
      <trkpt lat="43.3315" lon="2.03645">
        <ele>168.37</ele>
        <time>2018-04-07T07:40:19Z</time>
      </trkpt>
      <trkpt lat="43.33154" lon="2.03665">
        <ele>168.85</ele>
        <time>2018-04-07T07:40:42Z</time>
      </trkpt>
      <trkpt lat="43.33161" lon="2.0368">
        <ele>169.33</ele>
        <time>2018-04-07T07:41:50Z</time>
      </trkpt>
      <trkpt lat="43.33167" lon="2.03676">
        <ele>167.89</ele>
        <time>2018-04-07T07:42:01Z</time>
      </trkpt>
      <trkpt lat="43.33168" lon="2.03676">
        <ele>168.37</ele>
        <time>2018-04-07T07:43:32Z</time>
      </trkpt>
      <trkpt lat="43.33171" lon="2.03671">
        <ele>166.93</ele>
        <time>2018-04-07T07:43:39Z</time>
      </trkpt>
      <trkpt lat="43.33173" lon="2.03667">
        <ele>168.37</ele>
        <time>2018-04-07T07:43:41Z</time>
      </trkpt>
      <trkpt lat="43.33177" lon="2.03648">
        <ele>168.37</ele>
        <time>2018-04-07T07:43:54Z</time>
      </trkpt>
      <trkpt lat="43.33176" lon="2.03628">
        <ele>166.93</ele>
        <time>2018-04-07T07:44:06Z</time>
      </trkpt>
      <trkpt lat="43.33176" lon="2.03623">
        <ele>167.41</ele>
        <time>2018-04-07T07:44:09Z</time>
      </trkpt>
      <trkpt lat="43.33179" lon="2.03613">
        <ele>167.41</ele>
        <time>2018-04-07T07:44:15Z</time>
      </trkpt>
      <trkpt lat="43.33178" lon="2.03606">
        <ele>166.93</ele>
        <time>2018-04-07T07:44:20Z</time>
      </trkpt>
      <trkpt lat="43.33192" lon="2.03582">
        <ele>165.96</ele>
        <time>2018-04-07T07:44:36Z</time>
      </trkpt>
      <trkpt lat="43.33207" lon="2.03566">
        <ele>165</ele>
        <time>2018-04-07T07:44:50Z</time>
      </trkpt>
      <trkpt lat="43.33215" lon="2.03557">
        <ele>166.45</ele>
        <time>2018-04-07T07:44:59Z</time>
      </trkpt>
      <trkpt lat="43.33228" lon="2.03542">
        <ele>165.96</ele>
        <time>2018-04-07T07:45:13Z</time>
      </trkpt>
      <trkpt lat="43.33246" lon="2.03531">
        <ele>165.48</ele>
        <time>2018-04-07T07:45:29Z</time>
      </trkpt>
      <trkpt lat="43.33253" lon="2.03516">
        <ele>167.41</ele>
        <time>2018-04-07T07:45:39Z</time>
      </trkpt>
      <trkpt lat="43.33255" lon="2.03514">
        <ele>165.48</ele>
        <time>2018-04-07T07:45:41Z</time>
      </trkpt>
      <trkpt lat="43.33257" lon="2.03513">
        <ele>168.85</ele>
        <time>2018-04-07T07:45:44Z</time>
      </trkpt>
      <trkpt lat="43.33268" lon="2.03509">
        <ele>165.96</ele>
        <time>2018-04-07T07:45:52Z</time>
      </trkpt>
      <trkpt lat="43.33272" lon="2.03503">
        <ele>169.33</ele>
        <time>2018-04-07T07:45:57Z</time>
      </trkpt>
      <trkpt lat="43.33275" lon="2.03501">
        <ele>166.93</ele>
        <time>2018-04-07T07:46:00Z</time>
      </trkpt>
      <trkpt lat="43.33284" lon="2.03482">
        <ele>166.45</ele>
        <time>2018-04-07T07:46:13Z</time>
      </trkpt>
      <trkpt lat="43.33289" lon="2.03477">
        <ele>165.96</ele>
        <time>2018-04-07T07:46:18Z</time>
      </trkpt>
      <trkpt lat="43.3331" lon="2.03478">
        <ele>166.93</ele>
        <time>2018-04-07T07:46:33Z</time>
      </trkpt>
      <trkpt lat="43.33353" lon="2.03454">
        <ele>166.45</ele>
        <time>2018-04-07T07:47:16Z</time>
      </trkpt>
      <trkpt lat="43.33361" lon="2.03443">
        <ele>171.25</ele>
        <time>2018-04-07T07:47:26Z</time>
      </trkpt>
      <trkpt lat="43.33429" lon="2.03402">
        <ele>172.69</ele>
        <time>2018-04-07T07:48:30Z</time>
      </trkpt>
      <trkpt lat="43.33432" lon="2.03401">
        <ele>174.62</ele>
        <time>2018-04-07T07:48:33Z</time>
      </trkpt>
      <trkpt lat="43.33437" lon="2.034">
        <ele>177.5</ele>
        <time>2018-04-07T07:48:37Z</time>
      </trkpt>
      <trkpt lat="43.33439" lon="2.034">
        <ele>177.5</ele>
        <time>2018-04-07T07:48:38Z</time>
      </trkpt>
      <trkpt lat="43.3344" lon="2.034">
        <ele>175.58</ele>
        <time>2018-04-07T07:48:39Z</time>
      </trkpt>
      <trkpt lat="43.33449" lon="2.03397">
        <ele>177.02</ele>
        <time>2018-04-07T07:48:46Z</time>
      </trkpt>
      <trkpt lat="43.33453" lon="2.03395">
        <ele>177.5</ele>
        <time>2018-04-07T07:48:49Z</time>
      </trkpt>
      <trkpt lat="43.33455" lon="2.03394">
        <ele>177.98</ele>
        <time>2018-04-07T07:48:51Z</time>
      </trkpt>
      <trkpt lat="43.33465" lon="2.03392">
        <ele>179.42</ele>
        <time>2018-04-07T07:49:03Z</time>
      </trkpt>
      <trkpt lat="43.33474" lon="2.03392">
        <ele>182.31</ele>
        <time>2018-04-07T07:49:13Z</time>
      </trkpt>
      <trkpt lat="43.33475" lon="2.03393">
        <ele>182.31</ele>
        <time>2018-04-07T07:49:14Z</time>
      </trkpt>
      <trkpt lat="43.33488" lon="2.03392">
        <ele>182.79</ele>
        <time>2018-04-07T07:49:26Z</time>
      </trkpt>
      <trkpt lat="43.33493" lon="2.03392">
        <ele>185.19</ele>
        <time>2018-04-07T07:49:30Z</time>
      </trkpt>
      <trkpt lat="43.33495" lon="2.03393">
        <ele>183.75</ele>
        <time>2018-04-07T07:49:32Z</time>
      </trkpt>
      <trkpt lat="43.33497" lon="2.03393">
        <ele>185.67</ele>
        <time>2018-04-07T07:49:33Z</time>
      </trkpt>
      <trkpt lat="43.33505" lon="2.03392">
        <ele>184.71</ele>
        <time>2018-04-07T07:49:40Z</time>
      </trkpt>
      <trkpt lat="43.33512" lon="2.03391">
        <ele>187.11</ele>
        <time>2018-04-07T07:49:45Z</time>
      </trkpt>
      <trkpt lat="43.33533" lon="2.03388">
        <ele>188.08</ele>
        <time>2018-04-07T07:50:02Z</time>
      </trkpt>
      <trkpt lat="43.33555" lon="2.03383">
        <ele>189.04</ele>
        <time>2018-04-07T07:50:21Z</time>
      </trkpt>
      <trkpt lat="43.33572" lon="2.03376">
        <ele>190</ele>
        <time>2018-04-07T07:50:37Z</time>
      </trkpt>
      <trkpt lat="43.33579" lon="2.03375">
        <ele>190</ele>
        <time>2018-04-07T07:50:47Z</time>
      </trkpt>
      <trkpt lat="43.33593" lon="2.03369">
        <ele>191.44</ele>
        <time>2018-04-07T07:51:01Z</time>
      </trkpt>
      <trkpt lat="43.33609" lon="2.03362">
        <ele>192.88</ele>
        <time>2018-04-07T07:51:17Z</time>
      </trkpt>
      <trkpt lat="43.33622" lon="2.03355">
        <ele>194.8</ele>
        <time>2018-04-07T07:51:30Z</time>
      </trkpt>
      <trkpt lat="43.33626" lon="2.03352">
        <ele>195.28</ele>
        <time>2018-04-07T07:51:34Z</time>
      </trkpt>
      <trkpt lat="43.33631" lon="2.03349">
        <ele>197.21</ele>
        <time>2018-04-07T07:51:38Z</time>
      </trkpt>
      <trkpt lat="43.3364" lon="2.03345">
        <ele>196.25</ele>
        <time>2018-04-07T07:51:46Z</time>
      </trkpt>
      <trkpt lat="43.33661" lon="2.03343">
        <ele>196.25</ele>
        <time>2018-04-07T07:52:04Z</time>
      </trkpt>
      <trkpt lat="43.33668" lon="2.03342">
        <ele>196.25</ele>
        <time>2018-04-07T07:52:10Z</time>
      </trkpt>
      <trkpt lat="43.33691" lon="2.0334">
        <ele>196.73</ele>
        <time>2018-04-07T07:52:30Z</time>
      </trkpt>
      <trkpt lat="43.33708" lon="2.03335">
        <ele>194.32</ele>
        <time>2018-04-07T07:52:49Z</time>
      </trkpt>
      <trkpt lat="43.33714" lon="2.03332">
        <ele>194.8</ele>
        <time>2018-04-07T07:52:55Z</time>
      </trkpt>
      <trkpt lat="43.33722" lon="2.03321">
        <ele>194.8</ele>
        <time>2018-04-07T07:53:10Z</time>
      </trkpt>
      <trkpt lat="43.33732" lon="2.03302">
        <ele>193.84</ele>
        <time>2018-04-07T07:53:26Z</time>
      </trkpt>
      <trkpt lat="43.33736" lon="2.03294">
        <ele>190</ele>
        <time>2018-04-07T07:53:38Z</time>
      </trkpt>
      <trkpt lat="43.33745" lon="2.03274">
        <ele>190.96</ele>
        <time>2018-04-07T07:53:54Z</time>
      </trkpt>
      <trkpt lat="43.3375" lon="2.03266">
        <ele>189.04</ele>
        <time>2018-04-07T07:54:01Z</time>
      </trkpt>
      <trkpt lat="43.33761" lon="2.03243">
        <ele>188.56</ele>
        <time>2018-04-07T07:54:18Z</time>
      </trkpt>
      <trkpt lat="43.33766" lon="2.03233">
        <ele>189.04</ele>
        <time>2018-04-07T07:54:26Z</time>
      </trkpt>
      <trkpt lat="43.33767" lon="2.03227">
        <ele>185.67</ele>
        <time>2018-04-07T07:54:30Z</time>
      </trkpt>
      <trkpt lat="43.3377" lon="2.03221">
        <ele>183.75</ele>
        <time>2018-04-07T07:54:35Z</time>
      </trkpt>
      <trkpt lat="43.33771" lon="2.03218">
        <ele>185.67</ele>
        <time>2018-04-07T07:54:37Z</time>
      </trkpt>
      <trkpt lat="43.33775" lon="2.03195">
        <ele>185.67</ele>
        <time>2018-04-07T07:54:52Z</time>
      </trkpt>
      <trkpt lat="43.33775" lon="2.03192">
        <ele>182.31</ele>
        <time>2018-04-07T07:54:55Z</time>
      </trkpt>
      <trkpt lat="43.33777" lon="2.03169">
        <ele>183.27</ele>
        <time>2018-04-07T07:55:12Z</time>
      </trkpt>
      <trkpt lat="43.33782" lon="2.03141">
        <ele>182.31</ele>
        <time>2018-04-07T07:55:31Z</time>
      </trkpt>
      <trkpt lat="43.33793" lon="2.03121">
        <ele>182.31</ele>
        <time>2018-04-07T07:55:47Z</time>
      </trkpt>
      <trkpt lat="43.33807" lon="2.03105">
        <ele>182.31</ele>
        <time>2018-04-07T07:56:05Z</time>
      </trkpt>
      <trkpt lat="43.33823" lon="2.03093">
        <ele>182.31</ele>
        <time>2018-04-07T07:56:23Z</time>
      </trkpt>
      <trkpt lat="43.33825" lon="2.03091">
        <ele>182.31</ele>
        <time>2018-04-07T07:56:25Z</time>
      </trkpt>
      <trkpt lat="43.3383" lon="2.0309">
        <ele>175.1</ele>
        <time>2018-04-07T07:56:30Z</time>
      </trkpt>
      <trkpt lat="43.33833" lon="2.03091">
        <ele>176.54</ele>
        <time>2018-04-07T07:56:33Z</time>
      </trkpt>
      <trkpt lat="43.33844" lon="2.0308">
        <ele>175.1</ele>
        <time>2018-04-07T07:56:45Z</time>
      </trkpt>
      <trkpt lat="43.33847" lon="2.03078">
        <ele>175.58</ele>
        <time>2018-04-07T07:57:01Z</time>
      </trkpt>
      <trkpt lat="43.33853" lon="2.03078">
        <ele>176.54</ele>
        <time>2018-04-07T07:57:14Z</time>
      </trkpt>
      <trkpt lat="43.33854" lon="2.03077">
        <ele>177.5</ele>
        <time>2018-04-07T07:57:28Z</time>
      </trkpt>
      <trkpt lat="43.33857" lon="2.03075">
        <ele>176.54</ele>
        <time>2018-04-07T07:57:31Z</time>
      </trkpt>
      <trkpt lat="43.33858" lon="2.03074">
        <ele>176.54</ele>
        <time>2018-04-07T07:57:32Z</time>
      </trkpt>
      <trkpt lat="43.33863" lon="2.03075">
        <ele>179.42</ele>
        <time>2018-04-07T07:57:36Z</time>
      </trkpt>
      <trkpt lat="43.33875" lon="2.03072">
        <ele>177.02</ele>
        <time>2018-04-07T07:57:47Z</time>
      </trkpt>
      <trkpt lat="43.33879" lon="2.03071">
        <ele>177.02</ele>
        <time>2018-04-07T07:57:51Z</time>
      </trkpt>
      <trkpt lat="43.33895" lon="2.03065">
        <ele>178.46</ele>
        <time>2018-04-07T07:58:05Z</time>
      </trkpt>
      <trkpt lat="43.33915" lon="2.03058">
        <ele>177.02</ele>
        <time>2018-04-07T07:58:22Z</time>
      </trkpt>
      <trkpt lat="43.33933" lon="2.03051">
        <ele>177.5</ele>
        <time>2018-04-07T07:58:38Z</time>
      </trkpt>
      <trkpt lat="43.33951" lon="2.03047">
        <ele>177.02</ele>
        <time>2018-04-07T07:58:53Z</time>
      </trkpt>
      <trkpt lat="43.33968" lon="2.03037">
        <ele>177.98</ele>
        <time>2018-04-07T07:59:09Z</time>
      </trkpt>
      <trkpt lat="43.33974" lon="2.03031">
        <ele>178.94</ele>
        <time>2018-04-07T07:59:16Z</time>
      </trkpt>
      <trkpt lat="43.33977" lon="2.03029">
        <ele>177.5</ele>
        <time>2018-04-07T07:59:19Z</time>
      </trkpt>
      <trkpt lat="43.33989" lon="2.03019">
        <ele>178.94</ele>
        <time>2018-04-07T07:59:32Z</time>
      </trkpt>
      <trkpt lat="43.33996" lon="2.03009">
        <ele>178.46</ele>
        <time>2018-04-07T07:59:41Z</time>
      </trkpt>
      <trkpt lat="43.34009" lon="2.02991">
        <ele>177.5</ele>
        <time>2018-04-07T07:59:58Z</time>
      </trkpt>
      <trkpt lat="43.34022" lon="2.02968">
        <ele>177.02</ele>
        <time>2018-04-07T08:00:15Z</time>
      </trkpt>
      <trkpt lat="43.34032" lon="2.02951">
        <ele>177.5</ele>
        <time>2018-04-07T08:00:31Z</time>
      </trkpt>
      <trkpt lat="43.34046" lon="2.02929">
        <ele>178.46</ele>
        <time>2018-04-07T08:00:49Z</time>
      </trkpt>
      <trkpt lat="43.34047" lon="2.02926">
        <ele>177.5</ele>
        <time>2018-04-07T08:00:51Z</time>
      </trkpt>
      <trkpt lat="43.34054" lon="2.02916">
        <ele>177.5</ele>
        <time>2018-04-07T08:00:59Z</time>
      </trkpt>
      <trkpt lat="43.34062" lon="2.02899">
        <ele>178.46</ele>
        <time>2018-04-07T08:01:12Z</time>
      </trkpt>
      <trkpt lat="43.34064" lon="2.02897">
        <ele>177.98</ele>
        <time>2018-04-07T08:01:14Z</time>
      </trkpt>
      <trkpt lat="43.34075" lon="2.02875">
        <ele>180.38</ele>
        <time>2018-04-07T08:01:31Z</time>
      </trkpt>
      <trkpt lat="43.34088" lon="2.02855">
        <ele>179.42</ele>
        <time>2018-04-07T08:01:47Z</time>
      </trkpt>
      <trkpt lat="43.34102" lon="2.02837">
        <ele>178.94</ele>
        <time>2018-04-07T08:02:03Z</time>
      </trkpt>
      <trkpt lat="43.34115" lon="2.02823">
        <ele>178.46</ele>
        <time>2018-04-07T08:02:18Z</time>
      </trkpt>
      <trkpt lat="43.3412" lon="2.02819">
        <ele>177.5</ele>
        <time>2018-04-07T08:02:22Z</time>
      </trkpt>
      <trkpt lat="43.34125" lon="2.02814">
        <ele>178.94</ele>
        <time>2018-04-07T08:02:28Z</time>
      </trkpt>
      <trkpt lat="43.34131" lon="2.02809">
        <ele>179.9</ele>
        <time>2018-04-07T08:02:34Z</time>
      </trkpt>
      <trkpt lat="43.34137" lon="2.02804">
        <ele>179.9</ele>
        <time>2018-04-07T08:02:41Z</time>
      </trkpt>
      <trkpt lat="43.34152" lon="2.0279">
        <ele>179.42</ele>
        <time>2018-04-07T08:02:56Z</time>
      </trkpt>
      <trkpt lat="43.34164" lon="2.02782">
        <ele>179.9</ele>
        <time>2018-04-07T08:03:08Z</time>
      </trkpt>
      <trkpt lat="43.34178" lon="2.0277">
        <ele>180.38</ele>
        <time>2018-04-07T08:03:22Z</time>
      </trkpt>
      <trkpt lat="43.34179" lon="2.02769">
        <ele>179.9</ele>
        <time>2018-04-07T08:03:23Z</time>
      </trkpt>
      <trkpt lat="43.34192" lon="2.02759">
        <ele>180.38</ele>
        <time>2018-04-07T08:03:37Z</time>
      </trkpt>
      <trkpt lat="43.34198" lon="2.02754">
        <ele>180.38</ele>
        <time>2018-04-07T08:03:43Z</time>
      </trkpt>
      <trkpt lat="43.34208" lon="2.02746">
        <ele>180.87</ele>
        <time>2018-04-07T08:03:53Z</time>
      </trkpt>
      <trkpt lat="43.34224" lon="2.02735">
        <ele>182.79</ele>
        <time>2018-04-07T08:04:11Z</time>
      </trkpt>
      <trkpt lat="43.34232" lon="2.02742">
        <ele>182.31</ele>
        <time>2018-04-07T08:04:25Z</time>
      </trkpt>
      <trkpt lat="43.34243" lon="2.02753">
        <ele>182.79</ele>
        <time>2018-04-07T08:04:38Z</time>
      </trkpt>
      <trkpt lat="43.34255" lon="2.02767">
        <ele>184.23</ele>
        <time>2018-04-07T08:04:54Z</time>
      </trkpt>
      <trkpt lat="43.34265" lon="2.02776">
        <ele>184.23</ele>
        <time>2018-04-07T08:05:08Z</time>
      </trkpt>
      <trkpt lat="43.34271" lon="2.02784">
        <ele>184.23</ele>
        <time>2018-04-07T08:05:22Z</time>
      </trkpt>
      <trkpt lat="43.34285" lon="2.028">
        <ele>186.63</ele>
        <time>2018-04-07T08:05:37Z</time>
      </trkpt>
      <trkpt lat="43.34286" lon="2.028">
        <ele>186.15</ele>
        <time>2018-04-07T08:05:38Z</time>
      </trkpt>
      <trkpt lat="43.34297" lon="2.02814">
        <ele>187.11</ele>
        <time>2018-04-07T08:05:54Z</time>
      </trkpt>
      <trkpt lat="43.34303" lon="2.0282">
        <ele>189.52</ele>
        <time>2018-04-07T08:06:08Z</time>
      </trkpt>
      <trkpt lat="43.34312" lon="2.0283">
        <ele>190</ele>
        <time>2018-04-07T08:06:20Z</time>
      </trkpt>
      <trkpt lat="43.34322" lon="2.02843">
        <ele>190.96</ele>
        <time>2018-04-07T08:06:34Z</time>
      </trkpt>
      <trkpt lat="43.34334" lon="2.02856">
        <ele>193.84</ele>
        <time>2018-04-07T08:06:49Z</time>
      </trkpt>
      <trkpt lat="43.34345" lon="2.02866">
        <ele>194.32</ele>
        <time>2018-04-07T08:07:02Z</time>
      </trkpt>
      <trkpt lat="43.3435" lon="2.02871">
        <ele>196.25</ele>
        <time>2018-04-07T08:07:09Z</time>
      </trkpt>
      <trkpt lat="43.34355" lon="2.02876">
        <ele>198.65</ele>
        <time>2018-04-07T08:07:15Z</time>
      </trkpt>
      <trkpt lat="43.34367" lon="2.02887">
        <ele>200.09</ele>
        <time>2018-04-07T08:07:30Z</time>
      </trkpt>
      <trkpt lat="43.34376" lon="2.02896">
        <ele>200.57</ele>
        <time>2018-04-07T08:07:41Z</time>
      </trkpt>
      <trkpt lat="43.34388" lon="2.02908">
        <ele>203.46</ele>
        <time>2018-04-07T08:07:56Z</time>
      </trkpt>
      <trkpt lat="43.34389" lon="2.02909">
        <ele>202.98</ele>
        <time>2018-04-07T08:07:57Z</time>
      </trkpt>
      <trkpt lat="43.3439" lon="2.0291">
        <ele>202.49</ele>
        <time>2018-04-07T08:07:59Z</time>
      </trkpt>
      <trkpt lat="43.34397" lon="2.02917">
        <ele>204.9</ele>
        <time>2018-04-07T08:08:08Z</time>
      </trkpt>
      <trkpt lat="43.344" lon="2.0292">
        <ele>204.42</ele>
        <time>2018-04-07T08:08:12Z</time>
      </trkpt>
      <trkpt lat="43.34402" lon="2.02922">
        <ele>204.9</ele>
        <time>2018-04-07T08:08:15Z</time>
      </trkpt>
      <trkpt lat="43.34404" lon="2.02924">
        <ele>203.94</ele>
        <time>2018-04-07T08:08:17Z</time>
      </trkpt>
      <trkpt lat="43.34406" lon="2.02926">
        <ele>205.86</ele>
        <time>2018-04-07T08:08:19Z</time>
      </trkpt>
      <trkpt lat="43.34411" lon="2.02931">
        <ele>207.78</ele>
        <time>2018-04-07T08:08:26Z</time>
      </trkpt>
      <trkpt lat="43.34414" lon="2.02933">
        <ele>204.9</ele>
        <time>2018-04-07T08:08:29Z</time>
      </trkpt>
      <trkpt lat="43.34422" lon="2.02942">
        <ele>208.74</ele>
        <time>2018-04-07T08:08:39Z</time>
      </trkpt>
      <trkpt lat="43.34423" lon="2.02942">
        <ele>208.26</ele>
        <time>2018-04-07T08:08:40Z</time>
      </trkpt>
      <trkpt lat="43.3443" lon="2.0295">
        <ele>208.26</ele>
        <time>2018-04-07T08:08:50Z</time>
      </trkpt>
      <trkpt lat="43.34442" lon="2.02961">
        <ele>208.74</ele>
        <time>2018-04-07T08:09:04Z</time>
      </trkpt>
      <trkpt lat="43.34449" lon="2.02969">
        <ele>210.67</ele>
        <time>2018-04-07T08:09:15Z</time>
      </trkpt>
      <trkpt lat="43.34458" lon="2.02978">
        <ele>214.03</ele>
        <time>2018-04-07T08:09:26Z</time>
      </trkpt>
      <trkpt lat="43.3446" lon="2.0298">
        <ele>214.03</ele>
        <time>2018-04-07T08:09:29Z</time>
      </trkpt>
      <trkpt lat="43.34473" lon="2.02993">
        <ele>213.07</ele>
        <time>2018-04-07T08:09:45Z</time>
      </trkpt>
      <trkpt lat="43.34484" lon="2.03002">
        <ele>214.99</ele>
        <time>2018-04-07T08:09:59Z</time>
      </trkpt>
      <trkpt lat="43.34494" lon="2.03012">
        <ele>217.88</ele>
        <time>2018-04-07T08:10:14Z</time>
      </trkpt>
      <trkpt lat="43.345" lon="2.03019">
        <ele>217.88</ele>
        <time>2018-04-07T08:10:28Z</time>
      </trkpt>
      <trkpt lat="43.345" lon="2.03019">
        <ele>217.4</ele>
        <time>2018-04-07T08:10:29Z</time>
      </trkpt>
      <trkpt lat="43.34507" lon="2.03028">
        <ele>215.95</ele>
        <time>2018-04-07T08:10:41Z</time>
      </trkpt>
      <trkpt lat="43.34508" lon="2.0303">
        <ele>218.84</ele>
        <time>2018-04-07T08:10:44Z</time>
      </trkpt>
      <trkpt lat="43.34513" lon="2.03036">
        <ele>218.84</ele>
        <time>2018-04-07T08:11:03Z</time>
      </trkpt>
      <trkpt lat="43.34521" lon="2.03046">
        <ele>219.8</ele>
        <time>2018-04-07T08:11:17Z</time>
      </trkpt>
      <trkpt lat="43.34524" lon="2.0305">
        <ele>217.88</ele>
        <time>2018-04-07T08:11:21Z</time>
      </trkpt>
      <trkpt lat="43.34526" lon="2.03052">
        <ele>221.72</ele>
        <time>2018-04-07T08:11:24Z</time>
      </trkpt>
      <trkpt lat="43.34528" lon="2.03055">
        <ele>224.61</ele>
        <time>2018-04-07T08:11:27Z</time>
      </trkpt>
      <trkpt lat="43.34536" lon="2.03064">
        <ele>221.72</ele>
        <time>2018-04-07T08:11:38Z</time>
      </trkpt>
      <trkpt lat="43.34543" lon="2.03075">
        <ele>223.64</ele>
        <time>2018-04-07T08:11:53Z</time>
      </trkpt>
      <trkpt lat="43.34553" lon="2.03086">
        <ele>225.09</ele>
        <time>2018-04-07T08:12:08Z</time>
      </trkpt>
      <trkpt lat="43.34559" lon="2.03093">
        <ele>226.53</ele>
        <time>2018-04-07T08:12:18Z</time>
      </trkpt>
      <trkpt lat="43.34567" lon="2.03106">
        <ele>228.45</ele>
        <time>2018-04-07T08:12:33Z</time>
      </trkpt>
      <trkpt lat="43.34574" lon="2.03118">
        <ele>229.89</ele>
        <time>2018-04-07T08:12:47Z</time>
      </trkpt>
      <trkpt lat="43.34581" lon="2.03132">
        <ele>230.85</ele>
        <time>2018-04-07T08:13:03Z</time>
      </trkpt>
      <trkpt lat="43.34587" lon="2.03147">
        <ele>230.85</ele>
        <time>2018-04-07T08:13:20Z</time>
      </trkpt>
      <trkpt lat="43.34593" lon="2.0316">
        <ele>230.37</ele>
        <time>2018-04-07T08:13:40Z</time>
      </trkpt>
      <trkpt lat="43.34593" lon="2.0316">
        <ele>230.37</ele>
        <time>2018-04-07T08:13:59Z</time>
      </trkpt>
      <trkpt lat="43.34593" lon="2.03161">
        <ele>231.81</ele>
        <time>2018-04-07T08:15:43Z</time>
      </trkpt>
      <trkpt lat="43.34593" lon="2.03161">
        <ele>232.3</ele>
        <time>2018-04-07T08:15:57Z</time>
      </trkpt>
      <trkpt lat="43.34593" lon="2.03161">
        <ele>233.74</ele>
        <time>2018-04-07T08:16:20Z</time>
      </trkpt>
      <trkpt lat="43.34596" lon="2.03164">
        <ele>231.33</ele>
        <time>2018-04-07T08:16:26Z</time>
      </trkpt>
      <trkpt lat="43.34598" lon="2.03166">
        <ele>233.26</ele>
        <time>2018-04-07T08:16:29Z</time>
      </trkpt>
      <trkpt lat="43.34599" lon="2.03167">
        <ele>232.78</ele>
        <time>2018-04-07T08:16:31Z</time>
      </trkpt>
      <trkpt lat="43.34602" lon="2.03167">
        <ele>230.85</ele>
        <time>2018-04-07T08:16:34Z</time>
      </trkpt>
      <trkpt lat="43.34604" lon="2.03166">
        <ele>233.26</ele>
        <time>2018-04-07T08:16:42Z</time>
      </trkpt>
      <trkpt lat="43.3461" lon="2.03162">
        <ele>229.89</ele>
        <time>2018-04-07T08:16:50Z</time>
      </trkpt>
      <trkpt lat="43.3461" lon="2.03161">
        <ele>230.37</ele>
        <time>2018-04-07T08:16:51Z</time>
      </trkpt>
      <trkpt lat="43.34625" lon="2.0316">
        <ele>231.33</ele>
        <time>2018-04-07T08:17:08Z</time>
      </trkpt>
      <trkpt lat="43.3463" lon="2.03162">
        <ele>228.45</ele>
        <time>2018-04-07T08:17:13Z</time>
      </trkpt>
      <trkpt lat="43.34648" lon="2.03174">
        <ele>227.97</ele>
        <time>2018-04-07T08:17:32Z</time>
      </trkpt>
      <trkpt lat="43.34651" lon="2.03175">
        <ele>226.53</ele>
        <time>2018-04-07T08:17:35Z</time>
      </trkpt>
      <trkpt lat="43.34663" lon="2.03183">
        <ele>227.97</ele>
        <time>2018-04-07T08:17:47Z</time>
      </trkpt>
      <trkpt lat="43.34673" lon="2.0319">
        <ele>226.05</ele>
        <time>2018-04-07T08:17:58Z</time>
      </trkpt>
      <trkpt lat="43.34688" lon="2.03201">
        <ele>225.57</ele>
        <time>2018-04-07T08:18:14Z</time>
      </trkpt>
      <trkpt lat="43.34702" lon="2.0321">
        <ele>225.57</ele>
        <time>2018-04-07T08:18:30Z</time>
      </trkpt>
      <trkpt lat="43.34706" lon="2.03213">
        <ele>223.64</ele>
        <time>2018-04-07T08:18:34Z</time>
      </trkpt>
      <trkpt lat="43.34709" lon="2.03215">
        <ele>225.09</ele>
        <time>2018-04-07T08:18:37Z</time>
      </trkpt>
      <trkpt lat="43.34717" lon="2.03221">
        <ele>225.57</ele>
        <time>2018-04-07T08:18:46Z</time>
      </trkpt>
      <trkpt lat="43.34724" lon="2.03227">
        <ele>229.41</ele>
        <time>2018-04-07T08:18:54Z</time>
      </trkpt>
      <trkpt lat="43.34725" lon="2.03228">
        <ele>227.97</ele>
        <time>2018-04-07T08:18:55Z</time>
      </trkpt>
      <trkpt lat="43.34742" lon="2.03239">
        <ele>226.05</ele>
        <time>2018-04-07T08:19:12Z</time>
      </trkpt>
      <trkpt lat="43.34758" lon="2.03251">
        <ele>226.05</ele>
        <time>2018-04-07T08:19:29Z</time>
      </trkpt>
      <trkpt lat="43.34773" lon="2.03262">
        <ele>227.97</ele>
        <time>2018-04-07T08:19:45Z</time>
      </trkpt>
      <trkpt lat="43.34789" lon="2.03274">
        <ele>229.41</ele>
        <time>2018-04-07T08:20:02Z</time>
      </trkpt>
      <trkpt lat="43.34802" lon="2.03284">
        <ele>229.89</ele>
        <time>2018-04-07T08:20:18Z</time>
      </trkpt>
      <trkpt lat="43.34805" lon="2.03285">
        <ele>232.78</ele>
        <time>2018-04-07T08:20:22Z</time>
      </trkpt>
      <trkpt lat="43.34819" lon="2.03294">
        <ele>233.74</ele>
        <time>2018-04-07T08:20:39Z</time>
      </trkpt>
      <trkpt lat="43.34834" lon="2.03301">
        <ele>235.66</ele>
        <time>2018-04-07T08:20:55Z</time>
      </trkpt>
      <trkpt lat="43.34846" lon="2.03305">
        <ele>239.02</ele>
        <time>2018-04-07T08:21:08Z</time>
      </trkpt>
      <trkpt lat="43.34847" lon="2.03305">
        <ele>238.54</ele>
        <time>2018-04-07T08:21:09Z</time>
      </trkpt>
      <trkpt lat="43.34863" lon="2.03309">
        <ele>239.99</ele>
        <time>2018-04-07T08:21:25Z</time>
      </trkpt>
      <trkpt lat="43.34883" lon="2.03312">
        <ele>240.47</ele>
        <time>2018-04-07T08:21:44Z</time>
      </trkpt>
      <trkpt lat="43.34893" lon="2.03312">
        <ele>241.91</ele>
        <time>2018-04-07T08:21:54Z</time>
      </trkpt>
      <trkpt lat="43.34908" lon="2.0331">
        <ele>241.43</ele>
        <time>2018-04-07T08:22:09Z</time>
      </trkpt>
      <trkpt lat="43.34928" lon="2.03304">
        <ele>244.79</ele>
        <time>2018-04-07T08:22:29Z</time>
      </trkpt>
      <trkpt lat="43.34947" lon="2.03295">
        <ele>243.35</ele>
        <time>2018-04-07T08:22:47Z</time>
      </trkpt>
      <trkpt lat="43.34956" lon="2.0329">
        <ele>247.68</ele>
        <time>2018-04-07T08:22:56Z</time>
      </trkpt>
      <trkpt lat="43.34957" lon="2.0329">
        <ele>247.68</ele>
        <time>2018-04-07T08:22:57Z</time>
      </trkpt>
      <trkpt lat="43.34974" lon="2.03283">
        <ele>246.23</ele>
        <time>2018-04-07T08:23:14Z</time>
      </trkpt>
      <trkpt lat="43.34975" lon="2.03282">
        <ele>245.27</ele>
        <time>2018-04-07T08:23:16Z</time>
      </trkpt>
      <trkpt lat="43.34978" lon="2.0328">
        <ele>247.2</ele>
        <time>2018-04-07T08:23:19Z</time>
      </trkpt>
      <trkpt lat="43.34995" lon="2.03273">
        <ele>247.2</ele>
        <time>2018-04-07T08:23:35Z</time>
      </trkpt>
      <trkpt lat="43.35005" lon="2.03268">
        <ele>248.16</ele>
        <time>2018-04-07T08:23:45Z</time>
      </trkpt>
      <trkpt lat="43.35012" lon="2.03265">
        <ele>247.68</ele>
        <time>2018-04-07T08:23:52Z</time>
      </trkpt>
      <trkpt lat="43.35029" lon="2.03256">
        <ele>243.83</ele>
        <time>2018-04-07T08:24:09Z</time>
      </trkpt>
      <trkpt lat="43.35033" lon="2.03254">
        <ele>244.79</ele>
        <time>2018-04-07T08:24:13Z</time>
      </trkpt>
      <trkpt lat="43.35036" lon="2.03253">
        <ele>243.35</ele>
        <time>2018-04-07T08:24:15Z</time>
      </trkpt>
      <trkpt lat="43.3505" lon="2.03244">
        <ele>245.27</ele>
        <time>2018-04-07T08:24:30Z</time>
      </trkpt>
      <trkpt lat="43.35067" lon="2.03238">
        <ele>241.91</ele>
        <time>2018-04-07T08:24:46Z</time>
      </trkpt>
      <trkpt lat="43.35069" lon="2.03238">
        <ele>241.91</ele>
        <time>2018-04-07T08:24:47Z</time>
      </trkpt>
      <trkpt lat="43.35084" lon="2.03239">
        <ele>239.51</ele>
        <time>2018-04-07T08:25:00Z</time>
      </trkpt>
      <trkpt lat="43.3509" lon="2.0324">
        <ele>239.51</ele>
        <time>2018-04-07T08:25:05Z</time>
      </trkpt>
      <trkpt lat="43.35106" lon="2.03245">
        <ele>243.35</ele>
        <time>2018-04-07T08:25:19Z</time>
      </trkpt>
      <trkpt lat="43.35107" lon="2.03246">
        <ele>241.91</ele>
        <time>2018-04-07T08:25:20Z</time>
      </trkpt>
      <trkpt lat="43.35108" lon="2.03246">
        <ele>239.02</ele>
        <time>2018-04-07T08:25:21Z</time>
      </trkpt>
      <trkpt lat="43.35113" lon="2.03247">
        <ele>239.51</ele>
        <time>2018-04-07T08:25:26Z</time>
      </trkpt>
      <trkpt lat="43.35134" lon="2.03252">
        <ele>239.51</ele>
        <time>2018-04-07T08:25:45Z</time>
      </trkpt>
      <trkpt lat="43.35138" lon="2.03253">
        <ele>236.14</ele>
        <time>2018-04-07T08:25:49Z</time>
      </trkpt>
      <trkpt lat="43.35139" lon="2.03253">
        <ele>236.14</ele>
        <time>2018-04-07T08:25:50Z</time>
      </trkpt>
      <trkpt lat="43.35141" lon="2.03253">
        <ele>237.58</ele>
        <time>2018-04-07T08:25:52Z</time>
      </trkpt>
      <trkpt lat="43.35147" lon="2.03255">
        <ele>234.22</ele>
        <time>2018-04-07T08:25:57Z</time>
      </trkpt>
      <trkpt lat="43.35162" lon="2.0326">
        <ele>235.18</ele>
        <time>2018-04-07T08:26:12Z</time>
      </trkpt>
      <trkpt lat="43.35182" lon="2.03265">
        <ele>233.74</ele>
        <time>2018-04-07T08:26:31Z</time>
      </trkpt>
      <trkpt lat="43.35183" lon="2.03265">
        <ele>233.26</ele>
        <time>2018-04-07T08:26:32Z</time>
      </trkpt>
      <trkpt lat="43.3519" lon="2.03267">
        <ele>232.78</ele>
        <time>2018-04-07T08:26:39Z</time>
      </trkpt>
      <trkpt lat="43.35194" lon="2.03268">
        <ele>232.78</ele>
        <time>2018-04-07T08:26:43Z</time>
      </trkpt>
      <trkpt lat="43.35216" lon="2.03274">
        <ele>231.33</ele>
        <time>2018-04-07T08:27:03Z</time>
      </trkpt>
      <trkpt lat="43.35237" lon="2.03279">
        <ele>230.85</ele>
        <time>2018-04-07T08:27:22Z</time>
      </trkpt>
      <trkpt lat="43.35242" lon="2.03281">
        <ele>229.89</ele>
        <time>2018-04-07T08:27:26Z</time>
      </trkpt>
      <trkpt lat="43.35263" lon="2.03286">
        <ele>229.89</ele>
        <time>2018-04-07T08:27:45Z</time>
      </trkpt>
      <trkpt lat="43.35282" lon="2.0329">
        <ele>228.93</ele>
        <time>2018-04-07T08:28:02Z</time>
      </trkpt>
      <trkpt lat="43.353" lon="2.03294">
        <ele>226.53</ele>
        <time>2018-04-07T08:28:18Z</time>
      </trkpt>
      <trkpt lat="43.35305" lon="2.03294">
        <ele>227.01</ele>
        <time>2018-04-07T08:28:22Z</time>
      </trkpt>
      <trkpt lat="43.35318" lon="2.03298">
        <ele>227.97</ele>
        <time>2018-04-07T08:28:34Z</time>
      </trkpt>
      <trkpt lat="43.35337" lon="2.03303">
        <ele>226.05</ele>
        <time>2018-04-07T08:28:52Z</time>
      </trkpt>
      <trkpt lat="43.35356" lon="2.03305">
        <ele>226.53</ele>
        <time>2018-04-07T08:29:08Z</time>
      </trkpt>
      <trkpt lat="43.35373" lon="2.03308">
        <ele>224.12</ele>
        <time>2018-04-07T08:29:25Z</time>
      </trkpt>
      <trkpt lat="43.35392" lon="2.03314">
        <ele>223.64</ele>
        <time>2018-04-07T08:29:42Z</time>
      </trkpt>
      <trkpt lat="43.35395" lon="2.03315">
        <ele>227.01</ele>
        <time>2018-04-07T08:29:45Z</time>
      </trkpt>
      <trkpt lat="43.35396" lon="2.03316">
        <ele>226.05</ele>
        <time>2018-04-07T08:29:46Z</time>
      </trkpt>
      <trkpt lat="43.3541" lon="2.03319">
        <ele>226.53</ele>
        <time>2018-04-07T08:29:59Z</time>
      </trkpt>
      <trkpt lat="43.3542" lon="2.03321">
        <ele>227.49</ele>
        <time>2018-04-07T08:30:08Z</time>
      </trkpt>
      <trkpt lat="43.35421" lon="2.03322">
        <ele>226.05</ele>
        <time>2018-04-07T08:30:10Z</time>
      </trkpt>
      <trkpt lat="43.35429" lon="2.03322">
        <ele>226.05</ele>
        <time>2018-04-07T08:30:19Z</time>
      </trkpt>
      <trkpt lat="43.35439" lon="2.03326">
        <ele>225.09</ele>
        <time>2018-04-07T08:30:28Z</time>
      </trkpt>
      <trkpt lat="43.35443" lon="2.03327">
        <ele>225.09</ele>
        <time>2018-04-07T08:30:45Z</time>
      </trkpt>
      <trkpt lat="43.35444" lon="2.03329">
        <ele>228.93</ele>
        <time>2018-04-07T08:30:48Z</time>
      </trkpt>
      <trkpt lat="43.35445" lon="2.03334">
        <ele>227.01</ele>
        <time>2018-04-07T08:30:53Z</time>
      </trkpt>
      <trkpt lat="43.35444" lon="2.03343">
        <ele>227.01</ele>
        <time>2018-04-07T08:30:59Z</time>
      </trkpt>
      <trkpt lat="43.35444" lon="2.03362">
        <ele>227.01</ele>
        <time>2018-04-07T08:31:14Z</time>
      </trkpt>
      <trkpt lat="43.35442" lon="2.03382">
        <ele>225.57</ele>
        <time>2018-04-07T08:31:26Z</time>
      </trkpt>
      <trkpt lat="43.35441" lon="2.03388">
        <ele>226.05</ele>
        <time>2018-04-07T08:31:30Z</time>
      </trkpt>
      <trkpt lat="43.35441" lon="2.0339">
        <ele>227.97</ele>
        <time>2018-04-07T08:31:32Z</time>
      </trkpt>
      <trkpt lat="43.35441" lon="2.03397">
        <ele>226.05</ele>
        <time>2018-04-07T08:31:37Z</time>
      </trkpt>
      <trkpt lat="43.35441" lon="2.03417">
        <ele>227.01</ele>
        <time>2018-04-07T08:31:51Z</time>
      </trkpt>
      <trkpt lat="43.3544" lon="2.03422">
        <ele>226.53</ele>
        <time>2018-04-07T08:31:55Z</time>
      </trkpt>
      <trkpt lat="43.3544" lon="2.03425">
        <ele>226.05</ele>
        <time>2018-04-07T08:31:57Z</time>
      </trkpt>
      <trkpt lat="43.35439" lon="2.03432">
        <ele>227.01</ele>
        <time>2018-04-07T08:32:13Z</time>
      </trkpt>
      <trkpt lat="43.35439" lon="2.03451">
        <ele>227.97</ele>
        <time>2018-04-07T08:32:33Z</time>
      </trkpt>
      <trkpt lat="43.35438" lon="2.03462">
        <ele>227.01</ele>
        <time>2018-04-07T08:32:41Z</time>
      </trkpt>
      <trkpt lat="43.35436" lon="2.03483">
        <ele>227.01</ele>
        <time>2018-04-07T08:32:56Z</time>
      </trkpt>
      <trkpt lat="43.35436" lon="2.0349">
        <ele>227.97</ele>
        <time>2018-04-07T08:33:01Z</time>
      </trkpt>
      <trkpt lat="43.35434" lon="2.03494">
        <ele>227.49</ele>
        <time>2018-04-07T08:33:04Z</time>
      </trkpt>
      <trkpt lat="43.35432" lon="2.03508">
        <ele>225.57</ele>
        <time>2018-04-07T08:33:14Z</time>
      </trkpt>
      <trkpt lat="43.35429" lon="2.03531">
        <ele>227.49</ele>
        <time>2018-04-07T08:33:29Z</time>
      </trkpt>
      <trkpt lat="43.35428" lon="2.03544">
        <ele>225.57</ele>
        <time>2018-04-07T08:33:39Z</time>
      </trkpt>
      <trkpt lat="43.35429" lon="2.03557">
        <ele>226.53</ele>
        <time>2018-04-07T08:33:48Z</time>
      </trkpt>
      <trkpt lat="43.3543" lon="2.03565">
        <ele>222.68</ele>
        <time>2018-04-07T08:33:53Z</time>
      </trkpt>
      <trkpt lat="43.3543" lon="2.0357">
        <ele>224.12</ele>
        <time>2018-04-07T08:33:57Z</time>
      </trkpt>
      <trkpt lat="43.3543" lon="2.03575">
        <ele>225.57</ele>
        <time>2018-04-07T08:34:01Z</time>
      </trkpt>
      <trkpt lat="43.35427" lon="2.0359">
        <ele>224.61</ele>
        <time>2018-04-07T08:34:13Z</time>
      </trkpt>
      <trkpt lat="43.35426" lon="2.03596">
        <ele>224.12</ele>
        <time>2018-04-07T08:34:18Z</time>
      </trkpt>
      <trkpt lat="43.35426" lon="2.03606">
        <ele>227.01</ele>
        <time>2018-04-07T08:34:24Z</time>
      </trkpt>
      <trkpt lat="43.3542" lon="2.03669">
        <ele>227.01</ele>
        <time>2018-04-07T08:35:11Z</time>
      </trkpt>
      <trkpt lat="43.35422" lon="2.03688">
        <ele>224.12</ele>
        <time>2018-04-07T08:35:23Z</time>
      </trkpt>
      <trkpt lat="43.35422" lon="2.03697">
        <ele>226.05</ele>
        <time>2018-04-07T08:35:29Z</time>
      </trkpt>
      <trkpt lat="43.35418" lon="2.03717">
        <ele>226.05</ele>
        <time>2018-04-07T08:35:43Z</time>
      </trkpt>
      <trkpt lat="43.35417" lon="2.03727">
        <ele>227.01</ele>
        <time>2018-04-07T08:35:50Z</time>
      </trkpt>
      <trkpt lat="43.35413" lon="2.03748">
        <ele>225.57</ele>
        <time>2018-04-07T08:36:07Z</time>
      </trkpt>
      <trkpt lat="43.35412" lon="2.03765">
        <ele>227.49</ele>
        <time>2018-04-07T08:36:23Z</time>
      </trkpt>
      <trkpt lat="43.35411" lon="2.0377">
        <ele>228.45</ele>
        <time>2018-04-07T08:36:28Z</time>
      </trkpt>
      <trkpt lat="43.3541" lon="2.03773">
        <ele>227.01</ele>
        <time>2018-04-07T08:36:31Z</time>
      </trkpt>
      <trkpt lat="43.3541" lon="2.03779">
        <ele>228.45</ele>
        <time>2018-04-07T08:36:35Z</time>
      </trkpt>
      <trkpt lat="43.35409" lon="2.03786">
        <ele>228.93</ele>
        <time>2018-04-07T08:36:41Z</time>
      </trkpt>
      <trkpt lat="43.35408" lon="2.03799">
        <ele>227.01</ele>
        <time>2018-04-07T08:36:52Z</time>
      </trkpt>
      <trkpt lat="43.35407" lon="2.03804">
        <ele>229.41</ele>
        <time>2018-04-07T08:36:56Z</time>
      </trkpt>
      <trkpt lat="43.35407" lon="2.03812">
        <ele>230.37</ele>
        <time>2018-04-07T08:37:02Z</time>
      </trkpt>
      <trkpt lat="43.35405" lon="2.0382">
        <ele>227.01</ele>
        <time>2018-04-07T08:37:08Z</time>
      </trkpt>
      <trkpt lat="43.35404" lon="2.03822">
        <ele>226.05</ele>
        <time>2018-04-07T08:37:10Z</time>
      </trkpt>
      <trkpt lat="43.35403" lon="2.03825">
        <ele>230.37</ele>
        <time>2018-04-07T08:37:12Z</time>
      </trkpt>
      <trkpt lat="43.35403" lon="2.03826">
        <ele>229.89</ele>
        <time>2018-04-07T08:37:13Z</time>
      </trkpt>
      <trkpt lat="43.35403" lon="2.03829">
        <ele>226.05</ele>
        <time>2018-04-07T08:37:15Z</time>
      </trkpt>
      <trkpt lat="43.35401" lon="2.03835">
        <ele>229.41</ele>
        <time>2018-04-07T08:37:19Z</time>
      </trkpt>
      <trkpt lat="43.354" lon="2.03836">
        <ele>228.93</ele>
        <time>2018-04-07T08:37:20Z</time>
      </trkpt>
      <trkpt lat="43.35395" lon="2.0385">
        <ele>226.05</ele>
        <time>2018-04-07T08:37:31Z</time>
      </trkpt>
      <trkpt lat="43.35393" lon="2.03855">
        <ele>227.01</ele>
        <time>2018-04-07T08:37:35Z</time>
      </trkpt>
      <trkpt lat="43.35391" lon="2.03863">
        <ele>227.49</ele>
        <time>2018-04-07T08:37:42Z</time>
      </trkpt>
      <trkpt lat="43.35386" lon="2.03878">
        <ele>228.93</ele>
        <time>2018-04-07T08:37:54Z</time>
      </trkpt>
      <trkpt lat="43.35385" lon="2.03887">
        <ele>226.05</ele>
        <time>2018-04-07T08:38:01Z</time>
      </trkpt>
      <trkpt lat="43.35378" lon="2.03908">
        <ele>224.12</ele>
        <time>2018-04-07T08:38:20Z</time>
      </trkpt>
      <trkpt lat="43.35376" lon="2.03914">
        <ele>222.68</ele>
        <time>2018-04-07T08:38:25Z</time>
      </trkpt>
      <trkpt lat="43.35379" lon="2.03936">
        <ele>220.76</ele>
        <time>2018-04-07T08:38:40Z</time>
      </trkpt>
      <trkpt lat="43.3539" lon="2.03945">
        <ele>219.32</ele>
        <time>2018-04-07T08:38:54Z</time>
      </trkpt>
      <trkpt lat="43.35395" lon="2.03946">
        <ele>217.88</ele>
        <time>2018-04-07T08:39:00Z</time>
      </trkpt>
      <trkpt lat="43.35404" lon="2.03945">
        <ele>215.95</ele>
        <time>2018-04-07T08:39:09Z</time>
      </trkpt>
      <trkpt lat="43.35409" lon="2.03945">
        <ele>219.8</ele>
        <time>2018-04-07T08:39:14Z</time>
      </trkpt>
      <trkpt lat="43.3541" lon="2.03945">
        <ele>219.8</ele>
        <time>2018-04-07T08:39:15Z</time>
      </trkpt>
      <trkpt lat="43.35416" lon="2.03946">
        <ele>215.47</ele>
        <time>2018-04-07T08:39:20Z</time>
      </trkpt>
      <trkpt lat="43.35419" lon="2.03946">
        <ele>214.03</ele>
        <time>2018-04-07T08:39:23Z</time>
      </trkpt>
      <trkpt lat="43.3543" lon="2.03963">
        <ele>214.03</ele>
        <time>2018-04-07T08:39:38Z</time>
      </trkpt>
      <trkpt lat="43.35432" lon="2.03966">
        <ele>212.11</ele>
        <time>2018-04-07T08:39:41Z</time>
      </trkpt>
      <trkpt lat="43.35436" lon="2.03971">
        <ele>214.03</ele>
        <time>2018-04-07T08:39:46Z</time>
      </trkpt>
      <trkpt lat="43.35447" lon="2.03986">
        <ele>214.03</ele>
        <time>2018-04-07T08:40:01Z</time>
      </trkpt>
      <trkpt lat="43.35458" lon="2.03994">
        <ele>212.11</ele>
        <time>2018-04-07T08:40:14Z</time>
      </trkpt>
      <trkpt lat="43.3547" lon="2.04001">
        <ele>212.59</ele>
        <time>2018-04-07T08:40:29Z</time>
      </trkpt>
      <trkpt lat="43.35472" lon="2.04003">
        <ele>211.63</ele>
        <time>2018-04-07T08:40:31Z</time>
      </trkpt>
      <trkpt lat="43.35503" lon="2.04023">
        <ele>209.22</ele>
        <time>2018-04-07T08:41:06Z</time>
      </trkpt>
      <trkpt lat="43.35512" lon="2.04031">
        <ele>207.78</ele>
        <time>2018-04-07T08:41:15Z</time>
      </trkpt>
      <trkpt lat="43.35519" lon="2.04038">
        <ele>211.63</ele>
        <time>2018-04-07T08:41:23Z</time>
      </trkpt>
      <trkpt lat="43.35519" lon="2.04038">
        <ele>211.63</ele>
        <time>2018-04-07T08:41:24Z</time>
      </trkpt>
      <trkpt lat="43.3553" lon="2.04047">
        <ele>209.7</ele>
        <time>2018-04-07T08:41:36Z</time>
      </trkpt>
      <trkpt lat="43.35535" lon="2.04057">
        <ele>207.78</ele>
        <time>2018-04-07T08:41:44Z</time>
      </trkpt>
      <trkpt lat="43.35527" lon="2.04069">
        <ele>209.7</ele>
        <time>2018-04-07T08:42:00Z</time>
      </trkpt>
      <trkpt lat="43.35523" lon="2.04071">
        <ele>207.3</ele>
        <time>2018-04-07T08:42:05Z</time>
      </trkpt>
      <trkpt lat="43.35507" lon="2.04079">
        <ele>207.3</ele>
        <time>2018-04-07T08:42:21Z</time>
      </trkpt>
      <trkpt lat="43.35506" lon="2.04079">
        <ele>207.3</ele>
        <time>2018-04-07T08:42:22Z</time>
      </trkpt>
      <trkpt lat="43.35498" lon="2.0408">
        <ele>205.86</ele>
        <time>2018-04-07T08:42:31Z</time>
      </trkpt>
      <trkpt lat="43.35492" lon="2.04085">
        <ele>206.34</ele>
        <time>2018-04-07T08:42:41Z</time>
      </trkpt>
      <trkpt lat="43.3549" lon="2.04087">
        <ele>204.9</ele>
        <time>2018-04-07T08:42:43Z</time>
      </trkpt>
      <trkpt lat="43.35482" lon="2.04098">
        <ele>202.98</ele>
        <time>2018-04-07T08:42:57Z</time>
      </trkpt>
      <trkpt lat="43.35465" lon="2.04133">
        <ele>201.05</ele>
        <time>2018-04-07T08:43:40Z</time>
      </trkpt>
      <trkpt lat="43.3546" lon="2.04143">
        <ele>197.21</ele>
        <time>2018-04-07T08:43:48Z</time>
      </trkpt>
      <trkpt lat="43.35458" lon="2.04145">
        <ele>196.73</ele>
        <time>2018-04-07T08:43:50Z</time>
      </trkpt>
      <trkpt lat="43.35455" lon="2.04149">
        <ele>199.61</ele>
        <time>2018-04-07T08:43:54Z</time>
      </trkpt>
      <trkpt lat="43.35438" lon="2.04162">
        <ele>198.65</ele>
        <time>2018-04-07T08:44:11Z</time>
      </trkpt>
      <trkpt lat="43.35429" lon="2.04172">
        <ele>197.21</ele>
        <time>2018-04-07T08:44:25Z</time>
      </trkpt>
      <trkpt lat="43.35431" lon="2.04179">
        <ele>197.21</ele>
        <time>2018-04-07T08:44:34Z</time>
      </trkpt>
      <trkpt lat="43.3544" lon="2.04191">
        <ele>197.21</ele>
        <time>2018-04-07T08:44:49Z</time>
      </trkpt>
      <trkpt lat="43.35434" lon="2.04205">
        <ele>196.73</ele>
        <time>2018-04-07T08:45:01Z</time>
      </trkpt>
      <trkpt lat="43.35425" lon="2.04205">
        <ele>195.28</ele>
        <time>2018-04-07T08:45:08Z</time>
      </trkpt>
      <trkpt lat="43.3542" lon="2.04204">
        <ele>198.17</ele>
        <time>2018-04-07T08:45:13Z</time>
      </trkpt>
      <trkpt lat="43.35419" lon="2.04203">
        <ele>198.17</ele>
        <time>2018-04-07T08:45:14Z</time>
      </trkpt>
      <trkpt lat="43.35402" lon="2.042">
        <ele>198.65</ele>
        <time>2018-04-07T08:45:31Z</time>
      </trkpt>
      <trkpt lat="43.35392" lon="2.04201">
        <ele>200.09</ele>
        <time>2018-04-07T08:45:45Z</time>
      </trkpt>
      <trkpt lat="43.35382" lon="2.04206">
        <ele>202.01</ele>
        <time>2018-04-07T08:45:59Z</time>
      </trkpt>
      <trkpt lat="43.35378" lon="2.04207">
        <ele>200.09</ele>
        <time>2018-04-07T08:46:04Z</time>
      </trkpt>
      <trkpt lat="43.35376" lon="2.0421">
        <ele>201.05</ele>
        <time>2018-04-07T08:46:10Z</time>
      </trkpt>
      <trkpt lat="43.35374" lon="2.04213">
        <ele>204.42</ele>
        <time>2018-04-07T08:46:13Z</time>
      </trkpt>
      <trkpt lat="43.35357" lon="2.04221">
        <ele>203.46</ele>
        <time>2018-04-07T08:46:28Z</time>
      </trkpt>
      <trkpt lat="43.35358" lon="2.04228">
        <ele>203.94</ele>
        <time>2018-04-07T08:46:43Z</time>
      </trkpt>
      <trkpt lat="43.35362" lon="2.0423">
        <ele>201.53</ele>
        <time>2018-04-07T08:46:47Z</time>
      </trkpt>
      <trkpt lat="43.35363" lon="2.04231">
        <ele>207.3</ele>
        <time>2018-04-07T08:46:48Z</time>
      </trkpt>
      <trkpt lat="43.35364" lon="2.04232">
        <ele>204.9</ele>
        <time>2018-04-07T08:46:49Z</time>
      </trkpt>
      <trkpt lat="43.35379" lon="2.04236">
        <ele>204.9</ele>
        <time>2018-04-07T08:47:06Z</time>
      </trkpt>
      <trkpt lat="43.35387" lon="2.04238">
        <ele>208.26</ele>
        <time>2018-04-07T08:47:15Z</time>
      </trkpt>
      <trkpt lat="43.35389" lon="2.04239">
        <ele>208.26</ele>
        <time>2018-04-07T08:47:17Z</time>
      </trkpt>
      <trkpt lat="43.35391" lon="2.04241">
        <ele>207.3</ele>
        <time>2018-04-07T08:47:19Z</time>
      </trkpt>
      <trkpt lat="43.354" lon="2.04258">
        <ele>207.78</ele>
        <time>2018-04-07T08:47:33Z</time>
      </trkpt>
      <trkpt lat="43.35403" lon="2.04272">
        <ele>210.19</ele>
        <time>2018-04-07T08:47:47Z</time>
      </trkpt>
      <trkpt lat="43.35403" lon="2.0428">
        <ele>211.63</ele>
        <time>2018-04-07T08:47:57Z</time>
      </trkpt>
      <trkpt lat="43.35405" lon="2.04298">
        <ele>210.67</ele>
        <time>2018-04-07T08:48:11Z</time>
      </trkpt>
      <trkpt lat="43.35407" lon="2.04305">
        <ele>210.19</ele>
        <time>2018-04-07T08:48:15Z</time>
      </trkpt>
      <trkpt lat="43.35407" lon="2.04311">
        <ele>213.07</ele>
        <time>2018-04-07T08:48:19Z</time>
      </trkpt>
      <trkpt lat="43.35413" lon="2.04331">
        <ele>213.07</ele>
        <time>2018-04-07T08:49:51Z</time>
      </trkpt>
      <trkpt lat="43.35416" lon="2.04343">
        <ele>213.07</ele>
        <time>2018-04-07T08:50:05Z</time>
      </trkpt>
      <trkpt lat="43.35418" lon="2.04358">
        <ele>214.99</ele>
        <time>2018-04-07T08:50:19Z</time>
      </trkpt>
      <trkpt lat="43.35424" lon="2.04374">
        <ele>217.88</ele>
        <time>2018-04-07T08:50:32Z</time>
      </trkpt>
      <trkpt lat="43.35424" lon="2.04379">
        <ele>216.43</ele>
        <time>2018-04-07T08:50:36Z</time>
      </trkpt>
      <trkpt lat="43.3543" lon="2.04396">
        <ele>218.36</ele>
        <time>2018-04-07T08:50:52Z</time>
      </trkpt>
      <trkpt lat="43.35435" lon="2.04414">
        <ele>219.8</ele>
        <time>2018-04-07T08:51:06Z</time>
      </trkpt>
      <trkpt lat="43.35436" lon="2.04416">
        <ele>221.24</ele>
        <time>2018-04-07T08:51:08Z</time>
      </trkpt>
      <trkpt lat="43.35437" lon="2.04419">
        <ele>220.28</ele>
        <time>2018-04-07T08:51:10Z</time>
      </trkpt>
      <trkpt lat="43.3544" lon="2.04442">
        <ele>221.24</ele>
        <time>2018-04-07T08:51:26Z</time>
      </trkpt>
      <trkpt lat="43.35439" lon="2.04475">
        <ele>217.88</ele>
        <time>2018-04-07T08:51:48Z</time>
      </trkpt>
      <trkpt lat="43.35439" lon="2.04476">
        <ele>217.88</ele>
        <time>2018-04-07T08:51:49Z</time>
      </trkpt>
      <trkpt lat="43.35439" lon="2.04479">
        <ele>222.2</ele>
        <time>2018-04-07T08:51:51Z</time>
      </trkpt>
      <trkpt lat="43.35439" lon="2.04491">
        <ele>223.64</ele>
        <time>2018-04-07T08:51:58Z</time>
      </trkpt>
      <trkpt lat="43.35434" lon="2.04518">
        <ele>223.16</ele>
        <time>2018-04-07T08:52:19Z</time>
      </trkpt>
      <trkpt lat="43.35429" lon="2.0453">
        <ele>222.68</ele>
        <time>2018-04-07T08:52:27Z</time>
      </trkpt>
      <trkpt lat="43.35427" lon="2.04536">
        <ele>225.09</ele>
        <time>2018-04-07T08:52:31Z</time>
      </trkpt>
      <trkpt lat="43.35424" lon="2.04545">
        <ele>225.09</ele>
        <time>2018-04-07T08:52:37Z</time>
      </trkpt>
      <trkpt lat="43.35415" lon="2.04566">
        <ele>223.64</ele>
        <time>2018-04-07T08:52:52Z</time>
      </trkpt>
      <trkpt lat="43.35411" lon="2.04575">
        <ele>227.01</ele>
        <time>2018-04-07T08:53:00Z</time>
      </trkpt>
      <trkpt lat="43.3541" lon="2.04576">
        <ele>227.01</ele>
        <time>2018-04-07T08:53:01Z</time>
      </trkpt>
      <trkpt lat="43.35404" lon="2.04598">
        <ele>226.53</ele>
        <time>2018-04-07T08:53:17Z</time>
      </trkpt>
      <trkpt lat="43.35404" lon="2.04609">
        <ele>227.49</ele>
        <time>2018-04-07T08:53:22Z</time>
      </trkpt>
      <trkpt lat="43.35404" lon="2.04618">
        <ele>228.45</ele>
        <time>2018-04-07T08:53:28Z</time>
      </trkpt>
      <trkpt lat="43.35406" lon="2.04626">
        <ele>226.53</ele>
        <time>2018-04-07T08:54:08Z</time>
      </trkpt>
      <trkpt lat="43.35409" lon="2.04634">
        <ele>227.49</ele>
        <time>2018-04-07T08:54:26Z</time>
      </trkpt>
      <trkpt lat="43.35416" lon="2.04641">
        <ele>228.45</ele>
        <time>2018-04-07T08:54:41Z</time>
      </trkpt>
      <trkpt lat="43.35424" lon="2.04635">
        <ele>227.97</ele>
        <time>2018-04-07T08:54:58Z</time>
      </trkpt>
      <trkpt lat="43.3543" lon="2.04628">
        <ele>226.05</ele>
        <time>2018-04-07T08:55:12Z</time>
      </trkpt>
      <trkpt lat="43.35431" lon="2.04628">
        <ele>226.53</ele>
        <time>2018-04-07T08:55:13Z</time>
      </trkpt>
      <trkpt lat="43.35443" lon="2.04626">
        <ele>227.97</ele>
        <time>2018-04-07T08:55:22Z</time>
      </trkpt>
      <trkpt lat="43.35455" lon="2.04632">
        <ele>228.93</ele>
        <time>2018-04-07T08:55:33Z</time>
      </trkpt>
      <trkpt lat="43.35468" lon="2.04644">
        <ele>229.41</ele>
        <time>2018-04-07T08:55:48Z</time>
      </trkpt>
      <trkpt lat="43.35468" lon="2.04662">
        <ele>229.89</ele>
        <time>2018-04-07T08:56:02Z</time>
      </trkpt>
      <trkpt lat="43.35467" lon="2.04667">
        <ele>230.37</ele>
        <time>2018-04-07T08:56:07Z</time>
      </trkpt>
      <trkpt lat="43.35458" lon="2.04686">
        <ele>229.89</ele>
        <time>2018-04-07T08:56:22Z</time>
      </trkpt>
      <trkpt lat="43.35455" lon="2.04693">
        <ele>231.81</ele>
        <time>2018-04-07T08:56:26Z</time>
      </trkpt>
      <trkpt lat="43.35446" lon="2.04702">
        <ele>232.3</ele>
        <time>2018-04-07T08:56:52Z</time>
      </trkpt>
      <trkpt lat="43.35445" lon="2.04706">
        <ele>230.37</ele>
        <time>2018-04-07T08:56:56Z</time>
      </trkpt>
      <trkpt lat="43.35435" lon="2.04728">
        <ele>232.3</ele>
        <time>2018-04-07T08:57:12Z</time>
      </trkpt>
      <trkpt lat="43.35423" lon="2.04751">
        <ele>232.3</ele>
        <time>2018-04-07T08:57:28Z</time>
      </trkpt>
      <trkpt lat="43.35409" lon="2.04767">
        <ele>231.81</ele>
        <time>2018-04-07T08:57:46Z</time>
      </trkpt>
      <trkpt lat="43.35408" lon="2.04769">
        <ele>229.41</ele>
        <time>2018-04-07T08:57:55Z</time>
      </trkpt>
      <trkpt lat="43.35408" lon="2.04774">
        <ele>233.26</ele>
        <time>2018-04-07T08:58:03Z</time>
      </trkpt>
      <trkpt lat="43.35403" lon="2.04786">
        <ele>231.33</ele>
        <time>2018-04-07T08:58:16Z</time>
      </trkpt>
      <trkpt lat="43.3539" lon="2.04798">
        <ele>230.85</ele>
        <time>2018-04-07T08:58:28Z</time>
      </trkpt>
      <trkpt lat="43.35385" lon="2.04814">
        <ele>231.33</ele>
        <time>2018-04-07T08:59:12Z</time>
      </trkpt>
      <trkpt lat="43.35386" lon="2.04814">
        <ele>232.3</ele>
        <time>2018-04-07T08:59:14Z</time>
      </trkpt>
      <trkpt lat="43.35395" lon="2.04823">
        <ele>230.85</ele>
        <time>2018-04-07T08:59:29Z</time>
      </trkpt>
      <trkpt lat="43.35397" lon="2.04826">
        <ele>231.81</ele>
        <time>2018-04-07T08:59:33Z</time>
      </trkpt>
      <trkpt lat="43.35408" lon="2.04835">
        <ele>232.3</ele>
        <time>2018-04-07T08:59:48Z</time>
      </trkpt>
      <trkpt lat="43.35419" lon="2.04843">
        <ele>231.33</ele>
        <time>2018-04-07T08:59:58Z</time>
      </trkpt>
      <trkpt lat="43.3543" lon="2.04849">
        <ele>233.74</ele>
        <time>2018-04-07T09:00:10Z</time>
      </trkpt>
      <trkpt lat="43.35435" lon="2.04851">
        <ele>235.66</ele>
        <time>2018-04-07T09:00:14Z</time>
      </trkpt>
      <trkpt lat="43.35448" lon="2.04859">
        <ele>237.58</ele>
        <time>2018-04-07T09:00:28Z</time>
      </trkpt>
      <trkpt lat="43.35449" lon="2.0486">
        <ele>237.1</ele>
        <time>2018-04-07T09:00:29Z</time>
      </trkpt>
      <trkpt lat="43.3546" lon="2.04867">
        <ele>237.58</ele>
        <time>2018-04-07T09:00:41Z</time>
      </trkpt>
      <trkpt lat="43.35471" lon="2.04875">
        <ele>238.54</ele>
        <time>2018-04-07T09:00:56Z</time>
      </trkpt>
      <trkpt lat="43.3548" lon="2.04883">
        <ele>239.99</ele>
        <time>2018-04-07T09:01:12Z</time>
      </trkpt>
      <trkpt lat="43.35489" lon="2.0489">
        <ele>241.43</ele>
        <time>2018-04-07T09:01:24Z</time>
      </trkpt>
      <trkpt lat="43.35493" lon="2.04895">
        <ele>241.91</ele>
        <time>2018-04-07T09:01:30Z</time>
      </trkpt>
      <trkpt lat="43.35502" lon="2.0491">
        <ele>242.39</ele>
        <time>2018-04-07T09:01:46Z</time>
      </trkpt>
      <trkpt lat="43.35508" lon="2.04925">
        <ele>242.87</ele>
        <time>2018-04-07T09:02:00Z</time>
      </trkpt>
      <trkpt lat="43.3551" lon="2.04929">
        <ele>245.27</ele>
        <time>2018-04-07T09:02:04Z</time>
      </trkpt>
      <trkpt lat="43.3551" lon="2.04944">
        <ele>246.23</ele>
        <time>2018-04-07T09:02:14Z</time>
      </trkpt>
      <trkpt lat="43.35511" lon="2.04949">
        <ele>246.23</ele>
        <time>2018-04-07T09:02:18Z</time>
      </trkpt>
      <trkpt lat="43.35511" lon="2.04971">
        <ele>246.23</ele>
        <time>2018-04-07T09:02:35Z</time>
      </trkpt>
      <trkpt lat="43.35511" lon="2.04978">
        <ele>248.64</ele>
        <time>2018-04-07T09:02:40Z</time>
      </trkpt>
      <trkpt lat="43.35511" lon="2.04997">
        <ele>249.6</ele>
        <time>2018-04-07T09:02:59Z</time>
      </trkpt>
      <trkpt lat="43.35511" lon="2.05004">
        <ele>252</ele>
        <time>2018-04-07T09:03:03Z</time>
      </trkpt>
      <trkpt lat="43.35507" lon="2.05042">
        <ele>249.6</ele>
        <time>2018-04-07T09:03:26Z</time>
      </trkpt>
      <trkpt lat="43.35507" lon="2.05044">
        <ele>250.56</ele>
        <time>2018-04-07T09:03:27Z</time>
      </trkpt>
      <trkpt lat="43.35502" lon="2.05059">
        <ele>251.52</ele>
        <time>2018-04-07T09:07:04Z</time>
      </trkpt>
      <trkpt lat="43.35501" lon="2.05062">
        <ele>250.56</ele>
        <time>2018-04-07T09:07:07Z</time>
      </trkpt>
      <trkpt lat="43.35501" lon="2.05062">
        <ele>251.52</ele>
        <time>2018-04-07T09:07:08Z</time>
      </trkpt>
      <trkpt lat="43.35501" lon="2.05063">
        <ele>255.37</ele>
        <time>2018-04-07T09:07:09Z</time>
      </trkpt>
      <trkpt lat="43.35502" lon="2.05066">
        <ele>255.37</ele>
        <time>2018-04-07T09:07:26Z</time>
      </trkpt>
      <trkpt lat="43.355" lon="2.05095">
        <ele>256.33</ele>
        <time>2018-04-07T09:07:43Z</time>
      </trkpt>
      <trkpt lat="43.35499" lon="2.05098">
        <ele>255.37</ele>
        <time>2018-04-07T09:07:45Z</time>
      </trkpt>
      <trkpt lat="43.35498" lon="2.05101">
        <ele>259.69</ele>
        <time>2018-04-07T09:07:48Z</time>
      </trkpt>
      <trkpt lat="43.35497" lon="2.05118">
        <ele>259.69</ele>
        <time>2018-04-07T09:08:01Z</time>
      </trkpt>
      <trkpt lat="43.35498" lon="2.05128">
        <ele>255.85</ele>
        <time>2018-04-07T09:08:09Z</time>
      </trkpt>
      <trkpt lat="43.35498" lon="2.0513">
        <ele>260.17</ele>
        <time>2018-04-07T09:08:11Z</time>
      </trkpt>
      <trkpt lat="43.35498" lon="2.05131">
        <ele>259.21</ele>
        <time>2018-04-07T09:08:12Z</time>
      </trkpt>
      <trkpt lat="43.35496" lon="2.0515">
        <ele>260.65</ele>
        <time>2018-04-07T09:08:27Z</time>
      </trkpt>
      <trkpt lat="43.35495" lon="2.05154">
        <ele>258.73</ele>
        <time>2018-04-07T09:08:30Z</time>
      </trkpt>
      <trkpt lat="43.35494" lon="2.05157">
        <ele>259.69</ele>
        <time>2018-04-07T09:08:32Z</time>
      </trkpt>
      <trkpt lat="43.35493" lon="2.05165">
        <ele>259.21</ele>
        <time>2018-04-07T09:08:38Z</time>
      </trkpt>
      <trkpt lat="43.35492" lon="2.0517">
        <ele>262.58</ele>
        <time>2018-04-07T09:08:42Z</time>
      </trkpt>
      <trkpt lat="43.35488" lon="2.05187">
        <ele>261.14</ele>
        <time>2018-04-07T09:10:02Z</time>
      </trkpt>
      <trkpt lat="43.35487" lon="2.05197">
        <ele>264.02</ele>
        <time>2018-04-07T09:10:13Z</time>
      </trkpt>
      <trkpt lat="43.35487" lon="2.05211">
        <ele>265.46</ele>
        <time>2018-04-07T09:10:28Z</time>
      </trkpt>
      <trkpt lat="43.35484" lon="2.05229">
        <ele>264.98</ele>
        <time>2018-04-07T09:10:43Z</time>
      </trkpt>
      <trkpt lat="43.35483" lon="2.05236">
        <ele>268.35</ele>
        <time>2018-04-07T09:10:50Z</time>
      </trkpt>
      <trkpt lat="43.35482" lon="2.0524">
        <ele>264.5</ele>
        <time>2018-04-07T09:10:54Z</time>
      </trkpt>
      <trkpt lat="43.35482" lon="2.05242">
        <ele>264.02</ele>
        <time>2018-04-07T09:10:55Z</time>
      </trkpt>
      <trkpt lat="43.35479" lon="2.05251">
        <ele>267.86</ele>
        <time>2018-04-07T09:11:03Z</time>
      </trkpt>
      <trkpt lat="43.35479" lon="2.05252">
        <ele>267.38</ele>
        <time>2018-04-07T09:11:04Z</time>
      </trkpt>
      <trkpt lat="43.35479" lon="2.05274">
        <ele>266.9</ele>
        <time>2018-04-07T09:11:20Z</time>
      </trkpt>
      <trkpt lat="43.35479" lon="2.05276">
        <ele>263.06</ele>
        <time>2018-04-07T09:11:22Z</time>
      </trkpt>
      <trkpt lat="43.35479" lon="2.05277">
        <ele>267.38</ele>
        <time>2018-04-07T09:11:23Z</time>
      </trkpt>
      <trkpt lat="43.35476" lon="2.05287">
        <ele>268.83</ele>
        <time>2018-04-07T09:11:30Z</time>
      </trkpt>
      <trkpt lat="43.35474" lon="2.05305">
        <ele>269.79</ele>
        <time>2018-04-07T09:11:45Z</time>
      </trkpt>
      <trkpt lat="43.35471" lon="2.05314">
        <ele>267.86</ele>
        <time>2018-04-07T09:11:52Z</time>
      </trkpt>
      <trkpt lat="43.35468" lon="2.0533">
        <ele>270.75</ele>
        <time>2018-04-07T09:12:04Z</time>
      </trkpt>
      <trkpt lat="43.35468" lon="2.05336">
        <ele>269.31</ele>
        <time>2018-04-07T09:12:10Z</time>
      </trkpt>
      <trkpt lat="43.35467" lon="2.05339">
        <ele>265.46</ele>
        <time>2018-04-07T09:12:13Z</time>
      </trkpt>
      <trkpt lat="43.35466" lon="2.05343">
        <ele>271.23</ele>
        <time>2018-04-07T09:12:16Z</time>
      </trkpt>
      <trkpt lat="43.35466" lon="2.05344">
        <ele>270.75</ele>
        <time>2018-04-07T09:12:17Z</time>
      </trkpt>
      <trkpt lat="43.35464" lon="2.05347">
        <ele>269.31</ele>
        <time>2018-04-07T09:12:19Z</time>
      </trkpt>
      <trkpt lat="43.35462" lon="2.05353">
        <ele>272.67</ele>
        <time>2018-04-07T09:12:24Z</time>
      </trkpt>
      <trkpt lat="43.35462" lon="2.05354">
        <ele>272.67</ele>
        <time>2018-04-07T09:12:25Z</time>
      </trkpt>
      <trkpt lat="43.35459" lon="2.05363">
        <ele>269.79</ele>
        <time>2018-04-07T09:12:32Z</time>
      </trkpt>
      <trkpt lat="43.35458" lon="2.05364">
        <ele>269.79</ele>
        <time>2018-04-07T09:12:33Z</time>
      </trkpt>
      <trkpt lat="43.35458" lon="2.05366">
        <ele>273.63</ele>
        <time>2018-04-07T09:12:35Z</time>
      </trkpt>
      <trkpt lat="43.35457" lon="2.05367">
        <ele>273.63</ele>
        <time>2018-04-07T09:12:36Z</time>
      </trkpt>
      <trkpt lat="43.35453" lon="2.05379">
        <ele>272.67</ele>
        <time>2018-04-07T09:12:44Z</time>
      </trkpt>
      <trkpt lat="43.35453" lon="2.0538">
        <ele>268.83</ele>
        <time>2018-04-07T09:12:45Z</time>
      </trkpt>
      <trkpt lat="43.35451" lon="2.05385">
        <ele>275.07</ele>
        <time>2018-04-07T09:12:49Z</time>
      </trkpt>
      <trkpt lat="43.35451" lon="2.05386">
        <ele>269.31</ele>
        <time>2018-04-07T09:12:50Z</time>
      </trkpt>
      <trkpt lat="43.35449" lon="2.0539">
        <ele>275.07</ele>
        <time>2018-04-07T09:12:53Z</time>
      </trkpt>
      <trkpt lat="43.35448" lon="2.05391">
        <ele>273.63</ele>
        <time>2018-04-07T09:12:54Z</time>
      </trkpt>
      <trkpt lat="43.35438" lon="2.05408">
        <ele>277</ele>
        <time>2018-04-07T09:13:07Z</time>
      </trkpt>
      <trkpt lat="43.35438" lon="2.05411">
        <ele>275.56</ele>
        <time>2018-04-07T09:13:10Z</time>
      </trkpt>
      <trkpt lat="43.35438" lon="2.05419">
        <ele>276.52</ele>
        <time>2018-04-07T09:13:15Z</time>
      </trkpt>
      <trkpt lat="43.35438" lon="2.05432">
        <ele>277</ele>
        <time>2018-04-07T09:13:24Z</time>
      </trkpt>
      <trkpt lat="43.35439" lon="2.05442">
        <ele>273.63</ele>
        <time>2018-04-07T09:13:31Z</time>
      </trkpt>
      <trkpt lat="43.35438" lon="2.05463">
        <ele>270.75</ele>
        <time>2018-04-07T09:13:46Z</time>
      </trkpt>
      <trkpt lat="43.3544" lon="2.05469">
        <ele>275.56</ele>
        <time>2018-04-07T09:13:50Z</time>
      </trkpt>
      <trkpt lat="43.3544" lon="2.0547">
        <ele>274.59</ele>
        <time>2018-04-07T09:13:51Z</time>
      </trkpt>
      <trkpt lat="43.35439" lon="2.05474">
        <ele>271.23</ele>
        <time>2018-04-07T09:13:54Z</time>
      </trkpt>
      <trkpt lat="43.3544" lon="2.05481">
        <ele>274.11</ele>
        <time>2018-04-07T09:13:59Z</time>
      </trkpt>
      <trkpt lat="43.35442" lon="2.05499">
        <ele>277.48</ele>
        <time>2018-04-07T09:14:13Z</time>
      </trkpt>
      <trkpt lat="43.35442" lon="2.0551">
        <ele>276.52</ele>
        <time>2018-04-07T09:14:20Z</time>
      </trkpt>
      <trkpt lat="43.35442" lon="2.05513">
        <ele>277.48</ele>
        <time>2018-04-07T09:14:22Z</time>
      </trkpt>
      <trkpt lat="43.35443" lon="2.05527">
        <ele>279.88</ele>
        <time>2018-04-07T09:14:31Z</time>
      </trkpt>
      <trkpt lat="43.35446" lon="2.05545">
        <ele>277.96</ele>
        <time>2018-04-07T09:14:46Z</time>
      </trkpt>
      <trkpt lat="43.35447" lon="2.0555">
        <ele>281.32</ele>
        <time>2018-04-07T09:14:50Z</time>
      </trkpt>
      <trkpt lat="43.35451" lon="2.05564">
        <ele>282.77</ele>
        <time>2018-04-07T09:15:02Z</time>
      </trkpt>
      <trkpt lat="43.35452" lon="2.05565">
        <ele>282.77</ele>
        <time>2018-04-07T09:15:03Z</time>
      </trkpt>
      <trkpt lat="43.35452" lon="2.05572">
        <ele>281.32</ele>
        <time>2018-04-07T09:15:08Z</time>
      </trkpt>
      <trkpt lat="43.35454" lon="2.0558">
        <ele>276.52</ele>
        <time>2018-04-07T09:15:14Z</time>
      </trkpt>
      <trkpt lat="43.35454" lon="2.05582">
        <ele>277</ele>
        <time>2018-04-07T09:15:15Z</time>
      </trkpt>
      <trkpt lat="43.35455" lon="2.05583">
        <ele>281.8</ele>
        <time>2018-04-07T09:15:16Z</time>
      </trkpt>
      <trkpt lat="43.35455" lon="2.05584">
        <ele>280.84</ele>
        <time>2018-04-07T09:15:17Z</time>
      </trkpt>
      <trkpt lat="43.35455" lon="2.05585">
        <ele>274.11</ele>
        <time>2018-04-07T09:15:18Z</time>
      </trkpt>
      <trkpt lat="43.35456" lon="2.05587">
        <ele>282.28</ele>
        <time>2018-04-07T09:15:20Z</time>
      </trkpt>
      <trkpt lat="43.35457" lon="2.05591">
        <ele>278.44</ele>
        <time>2018-04-07T09:15:23Z</time>
      </trkpt>
      <trkpt lat="43.35458" lon="2.05595">
        <ele>281.32</ele>
        <time>2018-04-07T09:15:26Z</time>
      </trkpt>
      <trkpt lat="43.35459" lon="2.05598">
        <ele>277.96</ele>
        <time>2018-04-07T09:15:29Z</time>
      </trkpt>
      <trkpt lat="43.3546" lon="2.056">
        <ele>281.32</ele>
        <time>2018-04-07T09:15:31Z</time>
      </trkpt>
      <trkpt lat="43.3546" lon="2.05603">
        <ele>282.28</ele>
        <time>2018-04-07T09:15:33Z</time>
      </trkpt>
      <trkpt lat="43.35463" lon="2.05616">
        <ele>281.8</ele>
        <time>2018-04-07T09:15:47Z</time>
      </trkpt>
      <trkpt lat="43.35462" lon="2.05618">
        <ele>280.36</ele>
        <time>2018-04-07T09:15:49Z</time>
      </trkpt>
      <trkpt lat="43.35459" lon="2.05621">
        <ele>280.84</ele>
        <time>2018-04-07T09:15:52Z</time>
      </trkpt>
      <trkpt lat="43.35456" lon="2.05623">
        <ele>282.77</ele>
        <time>2018-04-07T09:15:55Z</time>
      </trkpt>
      <trkpt lat="43.35452" lon="2.05625">
        <ele>279.4</ele>
        <time>2018-04-07T09:15:59Z</time>
      </trkpt>
      <trkpt lat="43.35449" lon="2.05628">
        <ele>282.77</ele>
        <time>2018-04-07T09:16:03Z</time>
      </trkpt>
      <trkpt lat="43.35448" lon="2.05629">
        <ele>287.57</ele>
        <time>2018-04-07T09:16:04Z</time>
      </trkpt>
      <trkpt lat="43.35447" lon="2.05629">
        <ele>285.65</ele>
        <time>2018-04-07T09:16:05Z</time>
      </trkpt>
      <trkpt lat="43.35444" lon="2.05631">
        <ele>282.77</ele>
        <time>2018-04-07T09:16:09Z</time>
      </trkpt>
      <trkpt lat="43.35443" lon="2.05632">
        <ele>286.13</ele>
        <time>2018-04-07T09:16:10Z</time>
      </trkpt>
      <trkpt lat="43.35442" lon="2.05633">
        <ele>282.77</ele>
        <time>2018-04-07T09:16:11Z</time>
      </trkpt>
      <trkpt lat="43.35441" lon="2.05633">
        <ele>279.88</ele>
        <time>2018-04-07T09:16:12Z</time>
      </trkpt>
      <trkpt lat="43.3544" lon="2.05634">
        <ele>281.8</ele>
        <time>2018-04-07T09:16:13Z</time>
      </trkpt>
      <trkpt lat="43.35438" lon="2.05636">
        <ele>278.44</ele>
        <time>2018-04-07T09:16:15Z</time>
      </trkpt>
      <trkpt lat="43.35436" lon="2.05637">
        <ele>281.8</ele>
        <time>2018-04-07T09:16:17Z</time>
      </trkpt>
      <trkpt lat="43.35436" lon="2.05638">
        <ele>281.8</ele>
        <time>2018-04-07T09:16:18Z</time>
      </trkpt>
      <trkpt lat="43.35435" lon="2.05639">
        <ele>278.44</ele>
        <time>2018-04-07T09:16:20Z</time>
      </trkpt>
      <trkpt lat="43.35433" lon="2.05641">
        <ele>285.17</ele>
        <time>2018-04-07T09:16:23Z</time>
      </trkpt>
      <trkpt lat="43.35432" lon="2.05641">
        <ele>285.65</ele>
        <time>2018-04-07T09:16:24Z</time>
      </trkpt>
      <trkpt lat="43.35431" lon="2.05642">
        <ele>290.46</ele>
        <time>2018-04-07T09:16:25Z</time>
      </trkpt>
      <trkpt lat="43.3543" lon="2.05642">
        <ele>290.46</ele>
        <time>2018-04-07T09:16:26Z</time>
      </trkpt>
      <trkpt lat="43.35428" lon="2.05645">
        <ele>278.44</ele>
        <time>2018-04-07T09:16:28Z</time>
      </trkpt>
      <trkpt lat="43.35428" lon="2.05646">
        <ele>286.13</ele>
        <time>2018-04-07T09:16:29Z</time>
      </trkpt>
      <trkpt lat="43.35426" lon="2.05648">
        <ele>279.4</ele>
        <time>2018-04-07T09:16:31Z</time>
      </trkpt>
      <trkpt lat="43.35424" lon="2.05649">
        <ele>284.21</ele>
        <time>2018-04-07T09:16:32Z</time>
      </trkpt>
      <trkpt lat="43.35422" lon="2.05651">
        <ele>282.28</ele>
        <time>2018-04-07T09:16:35Z</time>
      </trkpt>
      <trkpt lat="43.3542" lon="2.05653">
        <ele>275.56</ele>
        <time>2018-04-07T09:16:38Z</time>
      </trkpt>
      <trkpt lat="43.3542" lon="2.05654">
        <ele>281.8</ele>
        <time>2018-04-07T09:16:39Z</time>
      </trkpt>
      <trkpt lat="43.3542" lon="2.05656">
        <ele>280.84</ele>
        <time>2018-04-07T09:16:40Z</time>
      </trkpt>
      <trkpt lat="43.35425" lon="2.05663">
        <ele>283.73</ele>
        <time>2018-04-07T09:16:49Z</time>
      </trkpt>
      <trkpt lat="43.35431" lon="2.05671">
        <ele>281.8</ele>
        <time>2018-04-07T09:16:57Z</time>
      </trkpt>
      <trkpt lat="43.35432" lon="2.05671">
        <ele>281.8</ele>
        <time>2018-04-07T09:16:58Z</time>
      </trkpt>
      <trkpt lat="43.35433" lon="2.05672">
        <ele>285.65</ele>
        <time>2018-04-07T09:16:59Z</time>
      </trkpt>
      <trkpt lat="43.35434" lon="2.05673">
        <ele>283.25</ele>
        <time>2018-04-07T09:17:00Z</time>
      </trkpt>
      <trkpt lat="43.35436" lon="2.05675">
        <ele>280.84</ele>
        <time>2018-04-07T09:17:03Z</time>
      </trkpt>
      <trkpt lat="43.35465" lon="2.05703">
        <ele>281.8</ele>
        <time>2018-04-07T09:17:46Z</time>
      </trkpt>
      <trkpt lat="43.35475" lon="2.05719">
        <ele>282.28</ele>
        <time>2018-04-07T09:18:02Z</time>
      </trkpt>
      <trkpt lat="43.35488" lon="2.05731">
        <ele>280.36</ele>
        <time>2018-04-07T09:18:16Z</time>
      </trkpt>
      <trkpt lat="43.35489" lon="2.05733">
        <ele>283.73</ele>
        <time>2018-04-07T09:18:18Z</time>
      </trkpt>
      <trkpt lat="43.35489" lon="2.05734">
        <ele>283.73</ele>
        <time>2018-04-07T09:18:19Z</time>
      </trkpt>
      <trkpt lat="43.35494" lon="2.05738">
        <ele>284.21</ele>
        <time>2018-04-07T09:18:25Z</time>
      </trkpt>
      <trkpt lat="43.35503" lon="2.05752">
        <ele>283.73</ele>
        <time>2018-04-07T09:18:41Z</time>
      </trkpt>
      <trkpt lat="43.35514" lon="2.05763">
        <ele>283.73</ele>
        <time>2018-04-07T09:18:55Z</time>
      </trkpt>
      <trkpt lat="43.35525" lon="2.05774">
        <ele>283.25</ele>
        <time>2018-04-07T09:19:12Z</time>
      </trkpt>
      <trkpt lat="43.35525" lon="2.05776">
        <ele>286.61</ele>
        <time>2018-04-07T09:19:14Z</time>
      </trkpt>
      <trkpt lat="43.35529" lon="2.05783">
        <ele>285.65</ele>
        <time>2018-04-07T09:19:29Z</time>
      </trkpt>
      <trkpt lat="43.35534" lon="2.05788">
        <ele>286.13</ele>
        <time>2018-04-07T09:19:37Z</time>
      </trkpt>
      <trkpt lat="43.35546" lon="2.05801">
        <ele>287.57</ele>
        <time>2018-04-07T09:19:53Z</time>
      </trkpt>
      <trkpt lat="43.35559" lon="2.05812">
        <ele>287.09</ele>
        <time>2018-04-07T09:20:09Z</time>
      </trkpt>
      <trkpt lat="43.35566" lon="2.05818">
        <ele>290.46</ele>
        <time>2018-04-07T09:20:19Z</time>
      </trkpt>
      <trkpt lat="43.35569" lon="2.05821">
        <ele>288.53</ele>
        <time>2018-04-07T09:20:25Z</time>
      </trkpt>
      <trkpt lat="43.35576" lon="2.05827">
        <ele>291.42</ele>
        <time>2018-04-07T09:20:34Z</time>
      </trkpt>
      <trkpt lat="43.35587" lon="2.05833">
        <ele>291.9</ele>
        <time>2018-04-07T09:20:47Z</time>
      </trkpt>
      <trkpt lat="43.35599" lon="2.05847">
        <ele>293.82</ele>
        <time>2018-04-07T09:21:06Z</time>
      </trkpt>
      <trkpt lat="43.35608" lon="2.05856">
        <ele>292.38</ele>
        <time>2018-04-07T09:21:19Z</time>
      </trkpt>
      <trkpt lat="43.35609" lon="2.05857">
        <ele>293.34</ele>
        <time>2018-04-07T09:21:21Z</time>
      </trkpt>
      <trkpt lat="43.35616" lon="2.05869">
        <ele>295.74</ele>
        <time>2018-04-07T09:21:36Z</time>
      </trkpt>
      <trkpt lat="43.35619" lon="2.05871">
        <ele>294.78</ele>
        <time>2018-04-07T09:21:38Z</time>
      </trkpt>
      <trkpt lat="43.35626" lon="2.05878">
        <ele>294.78</ele>
        <time>2018-04-07T09:21:48Z</time>
      </trkpt>
      <trkpt lat="43.35636" lon="2.05891">
        <ele>296.7</ele>
        <time>2018-04-07T09:22:02Z</time>
      </trkpt>
      <trkpt lat="43.35638" lon="2.05896">
        <ele>293.82</ele>
        <time>2018-04-07T09:22:06Z</time>
      </trkpt>
      <trkpt lat="43.35641" lon="2.05901">
        <ele>297.18</ele>
        <time>2018-04-07T09:22:11Z</time>
      </trkpt>
      <trkpt lat="43.35648" lon="2.05909">
        <ele>298.63</ele>
        <time>2018-04-07T09:22:21Z</time>
      </trkpt>
      <trkpt lat="43.35649" lon="2.0591">
        <ele>295.26</ele>
        <time>2018-04-07T09:22:23Z</time>
      </trkpt>
      <trkpt lat="43.35649" lon="2.0591">
        <ele>295.26</ele>
        <time>2018-04-07T09:22:24Z</time>
      </trkpt>
      <trkpt lat="43.35651" lon="2.05912">
        <ele>296.7</ele>
        <time>2018-04-07T09:22:27Z</time>
      </trkpt>
      <trkpt lat="43.35658" lon="2.05921">
        <ele>293.34</ele>
        <time>2018-04-07T09:22:41Z</time>
      </trkpt>
      <trkpt lat="43.35663" lon="2.05923">
        <ele>294.78</ele>
        <time>2018-04-07T09:22:51Z</time>
      </trkpt>
      <trkpt lat="43.3567" lon="2.0593">
        <ele>296.22</ele>
        <time>2018-04-07T09:23:08Z</time>
      </trkpt>
      <trkpt lat="43.35677" lon="2.05933">
        <ele>296.22</ele>
        <time>2018-04-07T09:23:46Z</time>
      </trkpt>
      <trkpt lat="43.35679" lon="2.05932">
        <ele>292.38</ele>
        <time>2018-04-07T09:23:52Z</time>
      </trkpt>
      <trkpt lat="43.35678" lon="2.05931">
        <ele>292.38</ele>
        <time>2018-04-07T09:23:53Z</time>
      </trkpt>
      <trkpt lat="43.35677" lon="2.05931">
        <ele>293.34</ele>
        <time>2018-04-07T09:23:57Z</time>
      </trkpt>
      <trkpt lat="43.35681" lon="2.05936">
        <ele>294.78</ele>
        <time>2018-04-07T09:24:03Z</time>
      </trkpt>
      <trkpt lat="43.35682" lon="2.05936">
        <ele>292.38</ele>
        <time>2018-04-07T09:24:07Z</time>
      </trkpt>
      <trkpt lat="43.3569" lon="2.05943">
        <ele>290.46</ele>
        <time>2018-04-07T09:24:27Z</time>
      </trkpt>
      <trkpt lat="43.35693" lon="2.05944">
        <ele>289.49</ele>
        <time>2018-04-07T09:24:32Z</time>
      </trkpt>
      <trkpt lat="43.35695" lon="2.05943">
        <ele>291.42</ele>
        <time>2018-04-07T09:24:41Z</time>
      </trkpt>
      <trkpt lat="43.35696" lon="2.05944">
        <ele>288.53</ele>
        <time>2018-04-07T09:24:42Z</time>
      </trkpt>
      <trkpt lat="43.35696" lon="2.05945">
        <ele>288.53</ele>
        <time>2018-04-07T09:24:43Z</time>
      </trkpt>
      <trkpt lat="43.35698" lon="2.05948">
        <ele>291.42</ele>
        <time>2018-04-07T09:24:46Z</time>
      </trkpt>
      <trkpt lat="43.35707" lon="2.05955">
        <ele>287.57</ele>
        <time>2018-04-07T09:24:55Z</time>
      </trkpt>
      <trkpt lat="43.35713" lon="2.05959">
        <ele>290.94</ele>
        <time>2018-04-07T09:25:02Z</time>
      </trkpt>
      <trkpt lat="43.35714" lon="2.05962">
        <ele>287.09</ele>
        <time>2018-04-07T09:25:06Z</time>
      </trkpt>
      <trkpt lat="43.35715" lon="2.05962">
        <ele>287.09</ele>
        <time>2018-04-07T09:25:07Z</time>
      </trkpt>
      <trkpt lat="43.3572" lon="2.05969">
        <ele>286.61</ele>
        <time>2018-04-07T09:25:15Z</time>
      </trkpt>
      <trkpt lat="43.35732" lon="2.05981">
        <ele>289.01</ele>
        <time>2018-04-07T09:25:32Z</time>
      </trkpt>
      <trkpt lat="43.35732" lon="2.05981">
        <ele>289.49</ele>
        <time>2018-04-07T09:25:33Z</time>
      </trkpt>
      <trkpt lat="43.35742" lon="2.05994">
        <ele>290.46</ele>
        <time>2018-04-07T09:25:54Z</time>
      </trkpt>
      <trkpt lat="43.35744" lon="2.05995">
        <ele>292.38</ele>
        <time>2018-04-07T09:25:57Z</time>
      </trkpt>
      <trkpt lat="43.35754" lon="2.06007">
        <ele>293.34</ele>
        <time>2018-04-07T09:26:15Z</time>
      </trkpt>
      <trkpt lat="43.3576" lon="2.06016">
        <ele>294.3</ele>
        <time>2018-04-07T09:26:31Z</time>
      </trkpt>
      <trkpt lat="43.3576" lon="2.06017">
        <ele>294.3</ele>
        <time>2018-04-07T09:26:32Z</time>
      </trkpt>
      <trkpt lat="43.35762" lon="2.0602">
        <ele>295.26</ele>
        <time>2018-04-07T09:26:37Z</time>
      </trkpt>
      <trkpt lat="43.3578" lon="2.06012">
        <ele>297.18</ele>
        <time>2018-04-07T09:27:09Z</time>
      </trkpt>
      <trkpt lat="43.35786" lon="2.06003">
        <ele>298.15</ele>
        <time>2018-04-07T09:27:24Z</time>
      </trkpt>
      <trkpt lat="43.35798" lon="2.05992">
        <ele>298.63</ele>
        <time>2018-04-07T09:27:40Z</time>
      </trkpt>
      <trkpt lat="43.358" lon="2.05991">
        <ele>297.67</ele>
        <time>2018-04-07T09:27:42Z</time>
      </trkpt>
      <trkpt lat="43.35802" lon="2.0599">
        <ele>300.07</ele>
        <time>2018-04-07T09:27:45Z</time>
      </trkpt>
      <trkpt lat="43.35807" lon="2.05985">
        <ele>301.51</ele>
        <time>2018-04-07T09:27:51Z</time>
      </trkpt>
      <trkpt lat="43.35809" lon="2.05983">
        <ele>301.03</ele>
        <time>2018-04-07T09:27:53Z</time>
      </trkpt>
      <trkpt lat="43.35819" lon="2.05976">
        <ele>301.03</ele>
        <time>2018-04-07T09:28:06Z</time>
      </trkpt>
      <trkpt lat="43.35824" lon="2.05972">
        <ele>302.47</ele>
        <time>2018-04-07T09:28:12Z</time>
      </trkpt>
      <trkpt lat="43.35826" lon="2.05971">
        <ele>300.55</ele>
        <time>2018-04-07T09:28:15Z</time>
      </trkpt>
      <trkpt lat="43.35829" lon="2.05969">
        <ele>300.55</ele>
        <time>2018-04-07T09:28:19Z</time>
      </trkpt>
      <trkpt lat="43.35834" lon="2.05966">
        <ele>304.39</ele>
        <time>2018-04-07T09:28:25Z</time>
      </trkpt>
      <trkpt lat="43.35844" lon="2.05963">
        <ele>304.39</ele>
        <time>2018-04-07T09:28:40Z</time>
      </trkpt>
      <trkpt lat="43.35855" lon="2.05959">
        <ele>303.43</ele>
        <time>2018-04-07T09:28:53Z</time>
      </trkpt>
      <trkpt lat="43.35875" lon="2.05946">
        <ele>302.95</ele>
        <time>2018-04-07T09:29:13Z</time>
      </trkpt>
      <trkpt lat="43.35892" lon="2.05936">
        <ele>304.88</ele>
        <time>2018-04-07T09:29:30Z</time>
      </trkpt>
      <trkpt lat="43.3591" lon="2.05933">
        <ele>303.43</ele>
        <time>2018-04-07T09:29:47Z</time>
      </trkpt>
      <trkpt lat="43.35921" lon="2.05928">
        <ele>303.91</ele>
        <time>2018-04-07T09:30:00Z</time>
      </trkpt>
      <trkpt lat="43.35926" lon="2.05925">
        <ele>304.88</ele>
        <time>2018-04-07T09:30:06Z</time>
      </trkpt>
      <trkpt lat="43.35941" lon="2.05915">
        <ele>304.88</ele>
        <time>2018-04-07T09:30:22Z</time>
      </trkpt>
      <trkpt lat="43.35949" lon="2.05915">
        <ele>306.8</ele>
        <time>2018-04-07T09:30:30Z</time>
      </trkpt>
      <trkpt lat="43.35952" lon="2.05917">
        <ele>304.39</ele>
        <time>2018-04-07T09:30:33Z</time>
      </trkpt>
      <trkpt lat="43.3596" lon="2.05921">
        <ele>304.88</ele>
        <time>2018-04-07T09:30:40Z</time>
      </trkpt>
      <trkpt lat="43.35969" lon="2.05927">
        <ele>308.24</ele>
        <time>2018-04-07T09:30:50Z</time>
      </trkpt>
      <trkpt lat="43.35977" lon="2.05931">
        <ele>304.88</ele>
        <time>2018-04-07T09:30:58Z</time>
      </trkpt>
      <trkpt lat="43.35987" lon="2.05935">
        <ele>299.59</ele>
        <time>2018-04-07T09:31:08Z</time>
      </trkpt>
      <trkpt lat="43.35988" lon="2.05935">
        <ele>300.07</ele>
        <time>2018-04-07T09:31:09Z</time>
      </trkpt>
      <trkpt lat="43.35989" lon="2.05936">
        <ele>303.43</ele>
        <time>2018-04-07T09:31:11Z</time>
      </trkpt>
      <trkpt lat="43.3599" lon="2.05936">
        <ele>299.11</ele>
        <time>2018-04-07T09:31:12Z</time>
      </trkpt>
      <trkpt lat="43.35991" lon="2.05935">
        <ele>303.43</ele>
        <time>2018-04-07T09:31:14Z</time>
      </trkpt>
      <trkpt lat="43.35992" lon="2.05936">
        <ele>307.28</ele>
        <time>2018-04-07T09:31:15Z</time>
      </trkpt>
      <trkpt lat="43.35993" lon="2.05936">
        <ele>303.91</ele>
        <time>2018-04-07T09:31:16Z</time>
      </trkpt>
      <trkpt lat="43.36001" lon="2.0594">
        <ele>301.03</ele>
        <time>2018-04-07T09:31:23Z</time>
      </trkpt>
      <trkpt lat="43.36002" lon="2.0594">
        <ele>301.03</ele>
        <time>2018-04-07T09:31:24Z</time>
      </trkpt>
      <trkpt lat="43.36003" lon="2.05941">
        <ele>305.36</ele>
        <time>2018-04-07T09:31:26Z</time>
      </trkpt>
      <trkpt lat="43.36003" lon="2.05941">
        <ele>301.99</ele>
        <time>2018-04-07T09:31:27Z</time>
      </trkpt>
      <trkpt lat="43.36017" lon="2.05945">
        <ele>301.99</ele>
        <time>2018-04-07T09:31:41Z</time>
      </trkpt>
      <trkpt lat="43.3602" lon="2.05946">
        <ele>300.55</ele>
        <time>2018-04-07T09:31:44Z</time>
      </trkpt>
      <trkpt lat="43.36027" lon="2.05946">
        <ele>299.59</ele>
        <time>2018-04-07T09:31:53Z</time>
      </trkpt>
      <trkpt lat="43.3603" lon="2.05947">
        <ele>298.15</ele>
        <time>2018-04-07T09:31:56Z</time>
      </trkpt>
      <trkpt lat="43.36044" lon="2.05948">
        <ele>301.51</ele>
        <time>2018-04-07T09:32:09Z</time>
      </trkpt>
      <trkpt lat="43.36048" lon="2.05948">
        <ele>297.67</ele>
        <time>2018-04-07T09:32:13Z</time>
      </trkpt>
      <trkpt lat="43.3605" lon="2.05948">
        <ele>301.99</ele>
        <time>2018-04-07T09:32:15Z</time>
      </trkpt>
      <trkpt lat="43.3606" lon="2.05945">
        <ele>298.63</ele>
        <time>2018-04-07T09:32:26Z</time>
      </trkpt>
      <trkpt lat="43.36062" lon="2.05943">
        <ele>297.18</ele>
        <time>2018-04-07T09:32:28Z</time>
      </trkpt>
      <trkpt lat="43.36064" lon="2.05941">
        <ele>299.11</ele>
        <time>2018-04-07T09:32:31Z</time>
      </trkpt>
      <trkpt lat="43.3607" lon="2.05938">
        <ele>296.22</ele>
        <time>2018-04-07T09:32:37Z</time>
      </trkpt>
      <trkpt lat="43.36074" lon="2.05934">
        <ele>298.15</ele>
        <time>2018-04-07T09:32:42Z</time>
      </trkpt>
      <trkpt lat="43.36079" lon="2.05931">
        <ele>297.18</ele>
        <time>2018-04-07T09:32:47Z</time>
      </trkpt>
      <trkpt lat="43.36087" lon="2.05922">
        <ele>293.34</ele>
        <time>2018-04-07T09:32:58Z</time>
      </trkpt>
      <trkpt lat="43.36088" lon="2.05921">
        <ele>293.82</ele>
        <time>2018-04-07T09:32:59Z</time>
      </trkpt>
      <trkpt lat="43.36104" lon="2.05902">
        <ele>292.86</ele>
        <time>2018-04-07T09:33:17Z</time>
      </trkpt>
      <trkpt lat="43.36114" lon="2.05891">
        <ele>292.38</ele>
        <time>2018-04-07T09:33:30Z</time>
      </trkpt>
      <trkpt lat="43.36117" lon="2.05888">
        <ele>289.49</ele>
        <time>2018-04-07T09:33:33Z</time>
      </trkpt>
      <trkpt lat="43.36119" lon="2.05883">
        <ele>292.86</ele>
        <time>2018-04-07T09:33:36Z</time>
      </trkpt>
      <trkpt lat="43.36119" lon="2.05882">
        <ele>292.38</ele>
        <time>2018-04-07T09:33:37Z</time>
      </trkpt>
      <trkpt lat="43.36138" lon="2.05866">
        <ele>289.01</ele>
        <time>2018-04-07T09:33:56Z</time>
      </trkpt>
      <trkpt lat="43.36142" lon="2.05869">
        <ele>287.57</ele>
        <time>2018-04-07T09:33:59Z</time>
      </trkpt>
      <trkpt lat="43.36144" lon="2.05872">
        <ele>289.49</ele>
        <time>2018-04-07T09:34:01Z</time>
      </trkpt>
      <trkpt lat="43.36145" lon="2.05878">
        <ele>289.97</ele>
        <time>2018-04-07T09:34:05Z</time>
      </trkpt>
      <trkpt lat="43.36144" lon="2.05886">
        <ele>287.09</ele>
        <time>2018-04-07T09:34:11Z</time>
      </trkpt>
      <trkpt lat="43.36142" lon="2.05888">
        <ele>291.42</ele>
        <time>2018-04-07T09:34:14Z</time>
      </trkpt>
      <trkpt lat="43.36141" lon="2.0589">
        <ele>291.42</ele>
        <time>2018-04-07T09:34:15Z</time>
      </trkpt>
      <trkpt lat="43.36139" lon="2.05897">
        <ele>287.09</ele>
        <time>2018-04-07T09:34:20Z</time>
      </trkpt>
      <trkpt lat="43.36139" lon="2.05901">
        <ele>290.46</ele>
        <time>2018-04-07T09:34:22Z</time>
      </trkpt>
      <trkpt lat="43.36138" lon="2.05902">
        <ele>290.94</ele>
        <time>2018-04-07T09:34:23Z</time>
      </trkpt>
      <trkpt lat="43.36137" lon="2.05908">
        <ele>289.01</ele>
        <time>2018-04-07T09:34:27Z</time>
      </trkpt>
      <trkpt lat="43.36136" lon="2.0591">
        <ele>289.97</ele>
        <time>2018-04-07T09:34:30Z</time>
      </trkpt>
      <trkpt lat="43.36135" lon="2.05917">
        <ele>289.49</ele>
        <time>2018-04-07T09:34:37Z</time>
      </trkpt>
      <trkpt lat="43.36131" lon="2.05942">
        <ele>289.97</ele>
        <time>2018-04-07T09:34:54Z</time>
      </trkpt>
      <trkpt lat="43.3613" lon="2.05945">
        <ele>288.53</ele>
        <time>2018-04-07T09:34:56Z</time>
      </trkpt>
      <trkpt lat="43.36127" lon="2.05956">
        <ele>285.65</ele>
        <time>2018-04-07T09:35:03Z</time>
      </trkpt>
      <trkpt lat="43.36126" lon="2.0596">
        <ele>289.01</ele>
        <time>2018-04-07T09:35:06Z</time>
      </trkpt>
      <trkpt lat="43.36126" lon="2.05961">
        <ele>288.53</ele>
        <time>2018-04-07T09:35:07Z</time>
      </trkpt>
      <trkpt lat="43.36126" lon="2.05964">
        <ele>287.57</ele>
        <time>2018-04-07T09:35:09Z</time>
      </trkpt>
      <trkpt lat="43.36124" lon="2.05973">
        <ele>288.05</ele>
        <time>2018-04-07T09:35:17Z</time>
      </trkpt>
      <trkpt lat="43.3612" lon="2.05988">
        <ele>289.01</ele>
        <time>2018-04-07T09:35:28Z</time>
      </trkpt>
      <trkpt lat="43.3612" lon="2.05993">
        <ele>286.61</ele>
        <time>2018-04-07T09:35:31Z</time>
      </trkpt>
      <trkpt lat="43.36119" lon="2.05997">
        <ele>287.57</ele>
        <time>2018-04-07T09:35:33Z</time>
      </trkpt>
      <trkpt lat="43.36122" lon="2.06013">
        <ele>289.49</ele>
        <time>2018-04-07T09:35:45Z</time>
      </trkpt>
      <trkpt lat="43.3613" lon="2.06019">
        <ele>286.13</ele>
        <time>2018-04-07T09:35:56Z</time>
      </trkpt>
      <trkpt lat="43.36135" lon="2.06022">
        <ele>286.61</ele>
        <time>2018-04-07T09:36:04Z</time>
      </trkpt>
      <trkpt lat="43.36152" lon="2.06027">
        <ele>284.69</ele>
        <time>2018-04-07T09:36:23Z</time>
      </trkpt>
      <trkpt lat="43.36171" lon="2.06038">
        <ele>284.21</ele>
        <time>2018-04-07T09:36:41Z</time>
      </trkpt>
      <trkpt lat="43.36183" lon="2.06044">
        <ele>283.25</ele>
        <time>2018-04-07T09:36:58Z</time>
      </trkpt>
      <trkpt lat="43.36203" lon="2.06051">
        <ele>279.88</ele>
        <time>2018-04-07T09:37:36Z</time>
      </trkpt>
      <trkpt lat="43.36206" lon="2.06052">
        <ele>278.92</ele>
        <time>2018-04-07T09:37:38Z</time>
      </trkpt>
      <trkpt lat="43.36223" lon="2.06047">
        <ele>280.84</ele>
        <time>2018-04-07T09:37:58Z</time>
      </trkpt>
      <trkpt lat="43.36227" lon="2.06044">
        <ele>278.92</ele>
        <time>2018-04-07T09:38:05Z</time>
      </trkpt>
      <trkpt lat="43.3623" lon="2.06045">
        <ele>277.96</ele>
        <time>2018-04-07T09:39:10Z</time>
      </trkpt>
      <trkpt lat="43.36232" lon="2.06043">
        <ele>277</ele>
        <time>2018-04-07T09:39:12Z</time>
      </trkpt>
      <trkpt lat="43.36237" lon="2.06041">
        <ele>277.96</ele>
        <time>2018-04-07T09:39:18Z</time>
      </trkpt>
      <trkpt lat="43.3624" lon="2.0604">
        <ele>279.4</ele>
        <time>2018-04-07T09:39:21Z</time>
      </trkpt>
      <trkpt lat="43.36245" lon="2.06042">
        <ele>279.4</ele>
        <time>2018-04-07T09:39:27Z</time>
      </trkpt>
      <trkpt lat="43.36256" lon="2.06048">
        <ele>280.36</ele>
        <time>2018-04-07T09:39:34Z</time>
      </trkpt>
      <trkpt lat="43.3626" lon="2.06052">
        <ele>278.92</ele>
        <time>2018-04-07T09:39:38Z</time>
      </trkpt>
      <trkpt lat="43.36263" lon="2.06056">
        <ele>275.56</ele>
        <time>2018-04-07T09:39:42Z</time>
      </trkpt>
      <trkpt lat="43.36264" lon="2.0606">
        <ele>279.88</ele>
        <time>2018-04-07T09:39:45Z</time>
      </trkpt>
      <trkpt lat="43.36265" lon="2.06064">
        <ele>282.77</ele>
        <time>2018-04-07T09:39:48Z</time>
      </trkpt>
      <trkpt lat="43.36273" lon="2.06086">
        <ele>284.69</ele>
        <time>2018-04-07T09:40:07Z</time>
      </trkpt>
      <trkpt lat="43.36281" lon="2.06089">
        <ele>285.65</ele>
        <time>2018-04-07T09:40:17Z</time>
      </trkpt>
      <trkpt lat="43.36285" lon="2.0609">
        <ele>288.53</ele>
        <time>2018-04-07T09:40:23Z</time>
      </trkpt>
      <trkpt lat="43.36285" lon="2.0609">
        <ele>288.53</ele>
        <time>2018-04-07T09:40:24Z</time>
      </trkpt>
      <trkpt lat="43.36298" lon="2.06094">
        <ele>291.42</ele>
        <time>2018-04-07T09:40:39Z</time>
      </trkpt>
      <trkpt lat="43.36313" lon="2.061">
        <ele>290.46</ele>
        <time>2018-04-07T09:40:58Z</time>
      </trkpt>
      <trkpt lat="43.3633" lon="2.0611">
        <ele>291.9</ele>
        <time>2018-04-07T09:41:16Z</time>
      </trkpt>
      <trkpt lat="43.36348" lon="2.0612">
        <ele>293.34</ele>
        <time>2018-04-07T09:41:35Z</time>
      </trkpt>
      <trkpt lat="43.36361" lon="2.06125">
        <ele>296.7</ele>
        <time>2018-04-07T09:41:49Z</time>
      </trkpt>
      <trkpt lat="43.36374" lon="2.0613">
        <ele>297.67</ele>
        <time>2018-04-07T09:42:04Z</time>
      </trkpt>
      <trkpt lat="43.36377" lon="2.06132">
        <ele>298.63</ele>
        <time>2018-04-07T09:42:06Z</time>
      </trkpt>
      <trkpt lat="43.36389" lon="2.06138">
        <ele>297.67</ele>
        <time>2018-04-07T09:42:19Z</time>
      </trkpt>
      <trkpt lat="43.36399" lon="2.06136">
        <ele>299.59</ele>
        <time>2018-04-07T09:42:33Z</time>
      </trkpt>
      <trkpt lat="43.36411" lon="2.06129">
        <ele>301.99</ele>
        <time>2018-04-07T09:42:49Z</time>
      </trkpt>
      <trkpt lat="43.36418" lon="2.06121">
        <ele>304.39</ele>
        <time>2018-04-07T09:42:59Z</time>
      </trkpt>
      <trkpt lat="43.36436" lon="2.0611">
        <ele>303.91</ele>
        <time>2018-04-07T09:43:20Z</time>
      </trkpt>
      <trkpt lat="43.3644" lon="2.06108">
        <ele>307.28</ele>
        <time>2018-04-07T09:43:23Z</time>
      </trkpt>
      <trkpt lat="43.36459" lon="2.06097">
        <ele>307.76</ele>
        <time>2018-04-07T09:43:43Z</time>
      </trkpt>
      <trkpt lat="43.36463" lon="2.06094">
        <ele>310.64</ele>
        <time>2018-04-07T09:43:48Z</time>
      </trkpt>
      <trkpt lat="43.36475" lon="2.06084">
        <ele>311.6</ele>
        <time>2018-04-07T09:44:07Z</time>
      </trkpt>
      <trkpt lat="43.36475" lon="2.06074">
        <ele>312.09</ele>
        <time>2018-04-07T09:44:23Z</time>
      </trkpt>
      <trkpt lat="43.36474" lon="2.06082">
        <ele>312.09</ele>
        <time>2018-04-07T09:46:54Z</time>
      </trkpt>
      <trkpt lat="43.36451" lon="2.06096">
        <ele>312.57</ele>
        <time>2018-04-07T09:47:12Z</time>
      </trkpt>
      <trkpt lat="43.36448" lon="2.06096">
        <ele>314.01</ele>
        <time>2018-04-07T09:47:14Z</time>
      </trkpt>
      <trkpt lat="43.36426" lon="2.06096">
        <ele>314.49</ele>
        <time>2018-04-07T09:47:33Z</time>
      </trkpt>
      <trkpt lat="43.36421" lon="2.06095">
        <ele>312.09</ele>
        <time>2018-04-07T09:47:38Z</time>
      </trkpt>
      <trkpt lat="43.36412" lon="2.06093">
        <ele>311.12</ele>
        <time>2018-04-07T09:47:48Z</time>
      </trkpt>
      <trkpt lat="43.3641" lon="2.06093">
        <ele>307.76</ele>
        <time>2018-04-07T09:47:50Z</time>
      </trkpt>
      <trkpt lat="43.36409" lon="2.06093">
        <ele>307.76</ele>
        <time>2018-04-07T09:47:51Z</time>
      </trkpt>
      <trkpt lat="43.36404" lon="2.0609">
        <ele>312.09</ele>
        <time>2018-04-07T09:47:57Z</time>
      </trkpt>
      <trkpt lat="43.36403" lon="2.0609">
        <ele>312.09</ele>
        <time>2018-04-07T09:47:58Z</time>
      </trkpt>
      <trkpt lat="43.36399" lon="2.06089">
        <ele>308.72</ele>
        <time>2018-04-07T09:48:02Z</time>
      </trkpt>
      <trkpt lat="43.36396" lon="2.06087">
        <ele>311.12</ele>
        <time>2018-04-07T09:48:08Z</time>
      </trkpt>
      <trkpt lat="43.3639" lon="2.06084">
        <ele>303.91</ele>
        <time>2018-04-07T09:48:16Z</time>
      </trkpt>
      <trkpt lat="43.3639" lon="2.06083">
        <ele>305.84</ele>
        <time>2018-04-07T09:48:17Z</time>
      </trkpt>
      <trkpt lat="43.36389" lon="2.06084">
        <ele>311.6</ele>
        <time>2018-04-07T09:48:18Z</time>
      </trkpt>
      <trkpt lat="43.36386" lon="2.06084">
        <ele>314.01</ele>
        <time>2018-04-07T09:48:20Z</time>
      </trkpt>
      <trkpt lat="43.36384" lon="2.06084">
        <ele>309.68</ele>
        <time>2018-04-07T09:48:22Z</time>
      </trkpt>
      <trkpt lat="43.36382" lon="2.06083">
        <ele>308.24</ele>
        <time>2018-04-07T09:48:25Z</time>
      </trkpt>
      <trkpt lat="43.36382" lon="2.06082">
        <ele>311.12</ele>
        <time>2018-04-07T09:48:26Z</time>
      </trkpt>
      <trkpt lat="43.36382" lon="2.06081">
        <ele>310.64</ele>
        <time>2018-04-07T09:48:27Z</time>
      </trkpt>
      <trkpt lat="43.3638" lon="2.06076">
        <ele>315.45</ele>
        <time>2018-04-07T09:48:37Z</time>
      </trkpt>
      <trkpt lat="43.36392" lon="2.06073">
        <ele>315.45</ele>
        <time>2018-04-07T09:50:16Z</time>
      </trkpt>
      <trkpt lat="43.36396" lon="2.06066">
        <ele>315.93</ele>
        <time>2018-04-07T09:50:27Z</time>
      </trkpt>
      <trkpt lat="43.36399" lon="2.06065">
        <ele>315.45</ele>
        <time>2018-04-07T09:50:33Z</time>
      </trkpt>
      <trkpt lat="43.36401" lon="2.06065">
        <ele>317.85</ele>
        <time>2018-04-07T09:50:36Z</time>
      </trkpt>
      <trkpt lat="43.36404" lon="2.0607">
        <ele>315.45</ele>
        <time>2018-04-07T09:50:44Z</time>
      </trkpt>
      <trkpt lat="43.36405" lon="2.06071">
        <ele>319.78</ele>
        <time>2018-04-07T09:50:47Z</time>
      </trkpt>
      <trkpt lat="43.36409" lon="2.0607">
        <ele>319.78</ele>
        <time>2018-04-07T09:50:54Z</time>
      </trkpt>
      <trkpt lat="43.36416" lon="2.06072">
        <ele>317.37</ele>
        <time>2018-04-07T09:51:01Z</time>
      </trkpt>
      <trkpt lat="43.36424" lon="2.06069">
        <ele>320.26</ele>
        <time>2018-04-07T09:51:07Z</time>
      </trkpt>
      <trkpt lat="43.36426" lon="2.06067">
        <ele>318.33</ele>
        <time>2018-04-07T09:51:12Z</time>
      </trkpt>
      <trkpt lat="43.36428" lon="2.06065">
        <ele>315.93</ele>
        <time>2018-04-07T09:51:15Z</time>
      </trkpt>
      <trkpt lat="43.36431" lon="2.06065">
        <ele>321.7</ele>
        <time>2018-04-07T09:51:17Z</time>
      </trkpt>
      <trkpt lat="43.36432" lon="2.06065">
        <ele>320.26</ele>
        <time>2018-04-07T09:51:18Z</time>
      </trkpt>
      <trkpt lat="43.36439" lon="2.06058">
        <ele>320.74</ele>
        <time>2018-04-07T09:51:32Z</time>
      </trkpt>
      <trkpt lat="43.36438" lon="2.06055">
        <ele>318.81</ele>
        <time>2018-04-07T09:51:36Z</time>
      </trkpt>
      <trkpt lat="43.36438" lon="2.06052">
        <ele>321.7</ele>
        <time>2018-04-07T09:51:39Z</time>
      </trkpt>
      <trkpt lat="43.36438" lon="2.06052">
        <ele>321.7</ele>
        <time>2018-04-07T09:51:40Z</time>
      </trkpt>
      <trkpt lat="43.36444" lon="2.06044">
        <ele>323.14</ele>
        <time>2018-04-07T09:51:50Z</time>
      </trkpt>
      <trkpt lat="43.36451" lon="2.06037">
        <ele>320.26</ele>
        <time>2018-04-07T09:52:00Z</time>
      </trkpt>
      <trkpt lat="43.36451" lon="2.06036">
        <ele>321.7</ele>
        <time>2018-04-07T09:52:02Z</time>
      </trkpt>
      <trkpt lat="43.36451" lon="2.06035">
        <ele>324.1</ele>
        <time>2018-04-07T09:52:03Z</time>
      </trkpt>
      <trkpt lat="43.36451" lon="2.06034">
        <ele>326.02</ele>
        <time>2018-04-07T09:52:04Z</time>
      </trkpt>
      <trkpt lat="43.36453" lon="2.06031">
        <ele>322.66</ele>
        <time>2018-04-07T09:52:08Z</time>
      </trkpt>
      <trkpt lat="43.36453" lon="2.06031">
        <ele>321.7</ele>
        <time>2018-04-07T09:52:09Z</time>
      </trkpt>
      <trkpt lat="43.36454" lon="2.0603">
        <ele>324.1</ele>
        <time>2018-04-07T09:52:14Z</time>
      </trkpt>
      <trkpt lat="43.36455" lon="2.0603">
        <ele>326.02</ele>
        <time>2018-04-07T09:52:15Z</time>
      </trkpt>
      <trkpt lat="43.36457" lon="2.06033">
        <ele>323.14</ele>
        <time>2018-04-07T09:52:22Z</time>
      </trkpt>
      <trkpt lat="43.3646" lon="2.0604">
        <ele>324.1</ele>
        <time>2018-04-07T09:52:27Z</time>
      </trkpt>
      <trkpt lat="43.36465" lon="2.06042">
        <ele>324.1</ele>
        <time>2018-04-07T09:52:34Z</time>
      </trkpt>
      <trkpt lat="43.36465" lon="2.06041">
        <ele>326.02</ele>
        <time>2018-04-07T09:55:31Z</time>
      </trkpt>
      <trkpt lat="43.36465" lon="2.06041">
        <ele>323.14</ele>
        <time>2018-04-07T09:55:35Z</time>
      </trkpt>
      <trkpt lat="43.36464" lon="2.06042">
        <ele>322.66</ele>
        <time>2018-04-07T09:55:39Z</time>
      </trkpt>
      <trkpt lat="43.36465" lon="2.06041">
        <ele>322.18</ele>
        <time>2018-04-07T09:55:44Z</time>
      </trkpt>
      <trkpt lat="43.36467" lon="2.06035">
        <ele>325.54</ele>
        <time>2018-04-07T09:55:56Z</time>
      </trkpt>
      <trkpt lat="43.36486" lon="2.06013">
        <ele>326.5</ele>
        <time>2018-04-07T09:56:28Z</time>
      </trkpt>
      <trkpt lat="43.36496" lon="2.06003">
        <ele>323.14</ele>
        <time>2018-04-07T09:56:43Z</time>
      </trkpt>
      <trkpt lat="43.36506" lon="2.06001">
        <ele>322.66</ele>
        <time>2018-04-07T09:57:04Z</time>
      </trkpt>
      <trkpt lat="43.36514" lon="2.05997">
        <ele>321.22</ele>
        <time>2018-04-07T09:57:08Z</time>
      </trkpt>
      <trkpt lat="43.36528" lon="2.05987">
        <ele>315.45</ele>
        <time>2018-04-07T09:58:16Z</time>
      </trkpt>
      <trkpt lat="43.36543" lon="2.05969">
        <ele>314.01</ele>
        <time>2018-04-07T09:58:36Z</time>
      </trkpt>
      <trkpt lat="43.36548" lon="2.05957">
        <ele>310.64</ele>
        <time>2018-04-07T09:58:53Z</time>
      </trkpt>
      <trkpt lat="43.36561" lon="2.05952">
        <ele>307.28</ele>
        <time>2018-04-07T09:59:04Z</time>
      </trkpt>
      <trkpt lat="43.36572" lon="2.05949">
        <ele>307.76</ele>
        <time>2018-04-07T09:59:24Z</time>
      </trkpt>
      <trkpt lat="43.36586" lon="2.05943">
        <ele>304.88</ele>
        <time>2018-04-07T09:59:32Z</time>
      </trkpt>
      <trkpt lat="43.3659" lon="2.05937">
        <ele>308.24</ele>
        <time>2018-04-07T09:59:42Z</time>
      </trkpt>
      <trkpt lat="43.36609" lon="2.05932">
        <ele>306.8</ele>
        <time>2018-04-07T10:00:07Z</time>
      </trkpt>
      <trkpt lat="43.36613" lon="2.05933">
        <ele>307.76</ele>
        <time>2018-04-07T10:01:11Z</time>
      </trkpt>
      <trkpt lat="43.3662" lon="2.05936">
        <ele>306.8</ele>
        <time>2018-04-07T10:01:40Z</time>
      </trkpt>
      <trkpt lat="43.36615" lon="2.0594">
        <ele>306.32</ele>
        <time>2018-04-07T10:02:09Z</time>
      </trkpt>
      <trkpt lat="43.36625" lon="2.05945">
        <ele>308.72</ele>
        <time>2018-04-07T10:02:38Z</time>
      </trkpt>
      <trkpt lat="43.36626" lon="2.05953">
        <ele>306.32</ele>
        <time>2018-04-07T10:02:44Z</time>
      </trkpt>
      <trkpt lat="43.36621" lon="2.05965">
        <ele>307.76</ele>
        <time>2018-04-07T10:03:03Z</time>
      </trkpt>
      <trkpt lat="43.36618" lon="2.05967">
        <ele>309.2</ele>
        <time>2018-04-07T10:03:06Z</time>
      </trkpt>
      <trkpt lat="43.36599" lon="2.05992">
        <ele>311.6</ele>
        <time>2018-04-07T10:03:26Z</time>
      </trkpt>
      <trkpt lat="43.36592" lon="2.06012">
        <ele>314.49</ele>
        <time>2018-04-07T10:03:47Z</time>
      </trkpt>
      <trkpt lat="43.36581" lon="2.0603">
        <ele>315.45</ele>
        <time>2018-04-07T10:04:04Z</time>
      </trkpt>
      <trkpt lat="43.36579" lon="2.06051">
        <ele>316.41</ele>
        <time>2018-04-07T10:04:20Z</time>
      </trkpt>
      <trkpt lat="43.3658" lon="2.06057">
        <ele>318.33</ele>
        <time>2018-04-07T10:04:25Z</time>
      </trkpt>
      <trkpt lat="43.36583" lon="2.06056">
        <ele>317.85</ele>
        <time>2018-04-07T10:04:41Z</time>
      </trkpt>
      <trkpt lat="43.36583" lon="2.06055">
        <ele>317.85</ele>
        <time>2018-04-07T10:04:42Z</time>
      </trkpt>
      <trkpt lat="43.36585" lon="2.06042">
        <ele>321.22</ele>
        <time>2018-04-07T10:04:56Z</time>
      </trkpt>
      <trkpt lat="43.36592" lon="2.0603">
        <ele>320.74</ele>
        <time>2018-04-07T10:05:10Z</time>
      </trkpt>
      <trkpt lat="43.36596" lon="2.06019">
        <ele>321.7</ele>
        <time>2018-04-07T10:05:26Z</time>
      </trkpt>
      <trkpt lat="43.36604" lon="2.06012">
        <ele>324.1</ele>
        <time>2018-04-07T10:05:42Z</time>
      </trkpt>
      <trkpt lat="43.36612" lon="2.06007">
        <ele>326.02</ele>
        <time>2018-04-07T10:05:54Z</time>
      </trkpt>
      <trkpt lat="43.36612" lon="2.06007">
        <ele>326.02</ele>
        <time>2018-04-07T10:05:55Z</time>
      </trkpt>
      <trkpt lat="43.36615" lon="2.06007">
        <ele>324.58</ele>
        <time>2018-04-07T10:05:58Z</time>
      </trkpt>
      <trkpt lat="43.36618" lon="2.06006">
        <ele>327.95</ele>
        <time>2018-04-07T10:06:02Z</time>
      </trkpt>
      <trkpt lat="43.36621" lon="2.06007">
        <ele>329.87</ele>
        <time>2018-04-07T10:06:05Z</time>
      </trkpt>
      <trkpt lat="43.36626" lon="2.06006">
        <ele>328.43</ele>
        <time>2018-04-07T10:06:09Z</time>
      </trkpt>
      <trkpt lat="43.36636" lon="2.06013">
        <ele>328.91</ele>
        <time>2018-04-07T10:06:23Z</time>
      </trkpt>
      <trkpt lat="43.36647" lon="2.06021">
        <ele>329.87</ele>
        <time>2018-04-07T10:06:37Z</time>
      </trkpt>
      <trkpt lat="43.3665" lon="2.06026">
        <ele>333.71</ele>
        <time>2018-04-07T10:06:45Z</time>
      </trkpt>
      <trkpt lat="43.3665" lon="2.06026">
        <ele>334.2</ele>
        <time>2018-04-07T10:06:46Z</time>
      </trkpt>
      <trkpt lat="43.36662" lon="2.06036">
        <ele>331.79</ele>
        <time>2018-04-07T10:07:02Z</time>
      </trkpt>
      <trkpt lat="43.36666" lon="2.06044">
        <ele>333.71</ele>
        <time>2018-04-07T10:07:12Z</time>
      </trkpt>
      <trkpt lat="43.36672" lon="2.0605">
        <ele>337.08</ele>
        <time>2018-04-07T10:07:23Z</time>
      </trkpt>
      <trkpt lat="43.36673" lon="2.06053">
        <ele>333.71</ele>
        <time>2018-04-07T10:07:27Z</time>
      </trkpt>
      <trkpt lat="43.36673" lon="2.06053">
        <ele>333.71</ele>
        <time>2018-04-07T10:07:28Z</time>
      </trkpt>
      <trkpt lat="43.36675" lon="2.06055">
        <ele>336.6</ele>
        <time>2018-04-07T10:07:31Z</time>
      </trkpt>
      <trkpt lat="43.36684" lon="2.06067">
        <ele>338.52</ele>
        <time>2018-04-07T10:07:52Z</time>
      </trkpt>
      <trkpt lat="43.36686" lon="2.06072">
        <ele>340.92</ele>
        <time>2018-04-07T10:08:03Z</time>
      </trkpt>
      <trkpt lat="43.36689" lon="2.06074">
        <ele>339.48</ele>
        <time>2018-04-07T10:08:09Z</time>
      </trkpt>
      <trkpt lat="43.36697" lon="2.06078">
        <ele>342.37</ele>
        <time>2018-04-07T10:08:18Z</time>
      </trkpt>
      <trkpt lat="43.36707" lon="2.0609">
        <ele>344.77</ele>
        <time>2018-04-07T10:08:33Z</time>
      </trkpt>
      <trkpt lat="43.3671" lon="2.06098">
        <ele>344.77</ele>
        <time>2018-04-07T10:08:47Z</time>
      </trkpt>
      <trkpt lat="43.36721" lon="2.06113">
        <ele>346.69</ele>
        <time>2018-04-07T10:09:07Z</time>
      </trkpt>
      <trkpt lat="43.36735" lon="2.06126">
        <ele>348.13</ele>
        <time>2018-04-07T10:09:25Z</time>
      </trkpt>
      <trkpt lat="43.36743" lon="2.06131">
        <ele>350.54</ele>
        <time>2018-04-07T10:09:40Z</time>
      </trkpt>
      <trkpt lat="43.36754" lon="2.0614">
        <ele>353.9</ele>
        <time>2018-04-07T10:10:02Z</time>
      </trkpt>
      <trkpt lat="43.36757" lon="2.06148">
        <ele>354.38</ele>
        <time>2018-04-07T10:10:10Z</time>
      </trkpt>
      <trkpt lat="43.36766" lon="2.0616">
        <ele>354.38</ele>
        <time>2018-04-07T10:10:27Z</time>
      </trkpt>
      <trkpt lat="43.36778" lon="2.06158">
        <ele>356.31</ele>
        <time>2018-04-07T10:10:46Z</time>
      </trkpt>
      <trkpt lat="43.36785" lon="2.06156">
        <ele>358.71</ele>
        <time>2018-04-07T10:10:57Z</time>
      </trkpt>
      <trkpt lat="43.36795" lon="2.06155">
        <ele>360.15</ele>
        <time>2018-04-07T10:11:12Z</time>
      </trkpt>
      <trkpt lat="43.36803" lon="2.06155">
        <ele>361.59</ele>
        <time>2018-04-07T10:11:28Z</time>
      </trkpt>
      <trkpt lat="43.36814" lon="2.0616">
        <ele>364</ele>
        <time>2018-04-07T10:14:25Z</time>
      </trkpt>
      <trkpt lat="43.36818" lon="2.0616">
        <ele>366.88</ele>
        <time>2018-04-07T11:03:11Z</time>
      </trkpt>
      <trkpt lat="43.36817" lon="2.06159">
        <ele>367.36</ele>
        <time>2018-04-07T11:03:18Z</time>
      </trkpt>
      <trkpt lat="43.36828" lon="2.06161">
        <ele>368.32</ele>
        <time>2018-04-07T11:03:31Z</time>
      </trkpt>
      <trkpt lat="43.36836" lon="2.06167">
        <ele>369.28</ele>
        <time>2018-04-07T11:03:45Z</time>
      </trkpt>
      <trkpt lat="43.36841" lon="2.06171">
        <ele>371.21</ele>
        <time>2018-04-07T11:04:03Z</time>
      </trkpt>
      <trkpt lat="43.36846" lon="2.06182">
        <ele>370.73</ele>
        <time>2018-04-07T11:04:18Z</time>
      </trkpt>
      <trkpt lat="43.36848" lon="2.06193">
        <ele>372.17</ele>
        <time>2018-04-07T11:04:30Z</time>
      </trkpt>
      <trkpt lat="43.36848" lon="2.062">
        <ele>373.61</ele>
        <time>2018-04-07T11:04:37Z</time>
      </trkpt>
      <trkpt lat="43.36847" lon="2.06202">
        <ele>374.57</ele>
        <time>2018-04-07T11:04:39Z</time>
      </trkpt>
      <trkpt lat="43.3684" lon="2.06202">
        <ele>374.57</ele>
        <time>2018-04-07T11:04:49Z</time>
      </trkpt>
      <trkpt lat="43.3684" lon="2.0621">
        <ele>374.09</ele>
        <time>2018-04-07T11:05:02Z</time>
      </trkpt>
      <trkpt lat="43.36846" lon="2.06209">
        <ele>374.09</ele>
        <time>2018-04-07T11:05:16Z</time>
      </trkpt>
      <trkpt lat="43.3685" lon="2.0621">
        <ele>374.57</ele>
        <time>2018-04-07T11:05:31Z</time>
      </trkpt>
      <trkpt lat="43.36856" lon="2.06213">
        <ele>375.05</ele>
        <time>2018-04-07T11:05:44Z</time>
      </trkpt>
      <trkpt lat="43.36863" lon="2.06215">
        <ele>374.57</ele>
        <time>2018-04-07T11:05:57Z</time>
      </trkpt>
      <trkpt lat="43.36874" lon="2.06219">
        <ele>376.97</ele>
        <time>2018-04-07T11:06:11Z</time>
      </trkpt>
      <trkpt lat="43.36886" lon="2.06221">
        <ele>379.86</ele>
        <time>2018-04-07T11:06:26Z</time>
      </trkpt>
      <trkpt lat="43.36886" lon="2.06221">
        <ele>379.86</ele>
        <time>2018-04-07T11:06:27Z</time>
      </trkpt>
      <trkpt lat="43.36895" lon="2.06223">
        <ele>379.86</ele>
        <time>2018-04-07T11:06:42Z</time>
      </trkpt>
      <trkpt lat="43.36906" lon="2.06227">
        <ele>381.78</ele>
        <time>2018-04-07T11:06:56Z</time>
      </trkpt>
      <trkpt lat="43.36916" lon="2.06229">
        <ele>382.26</ele>
        <time>2018-04-07T11:07:08Z</time>
      </trkpt>
      <trkpt lat="43.36926" lon="2.06233">
        <ele>384.66</ele>
        <time>2018-04-07T11:07:24Z</time>
      </trkpt>
      <trkpt lat="43.36929" lon="2.06235">
        <ele>385.63</ele>
        <time>2018-04-07T11:07:28Z</time>
      </trkpt>
      <trkpt lat="43.36931" lon="2.06236">
        <ele>385.15</ele>
        <time>2018-04-07T11:07:33Z</time>
      </trkpt>
      <trkpt lat="43.36935" lon="2.06238">
        <ele>384.66</ele>
        <time>2018-04-07T11:07:41Z</time>
      </trkpt>
      <trkpt lat="43.36946" lon="2.06244">
        <ele>387.07</ele>
        <time>2018-04-07T11:07:55Z</time>
      </trkpt>
      <trkpt lat="43.36948" lon="2.06244">
        <ele>383.7</ele>
        <time>2018-04-07T11:07:58Z</time>
      </trkpt>
      <trkpt lat="43.36952" lon="2.06245">
        <ele>387.07</ele>
        <time>2018-04-07T11:08:03Z</time>
      </trkpt>
      <trkpt lat="43.36956" lon="2.06247">
        <ele>387.55</ele>
        <time>2018-04-07T11:08:08Z</time>
      </trkpt>
      <trkpt lat="43.36961" lon="2.06249">
        <ele>389.95</ele>
        <time>2018-04-07T11:08:15Z</time>
      </trkpt>
      <trkpt lat="43.36972" lon="2.06251">
        <ele>388.51</ele>
        <time>2018-04-07T11:08:30Z</time>
      </trkpt>
      <trkpt lat="43.36971" lon="2.06253">
        <ele>388.03</ele>
        <time>2018-04-07T11:08:39Z</time>
      </trkpt>
      <trkpt lat="43.36976" lon="2.06256">
        <ele>387.07</ele>
        <time>2018-04-07T11:09:36Z</time>
      </trkpt>
      <trkpt lat="43.36976" lon="2.06256">
        <ele>389.95</ele>
        <time>2018-04-07T11:09:39Z</time>
      </trkpt>
      <trkpt lat="43.36976" lon="2.06256">
        <ele>390.43</ele>
        <time>2018-04-07T11:09:40Z</time>
      </trkpt>
      <trkpt lat="43.36976" lon="2.06256">
        <ele>388.99</ele>
        <time>2018-04-07T11:10:02Z</time>
      </trkpt>
      <trkpt lat="43.36978" lon="2.06256">
        <ele>390.43</ele>
        <time>2018-04-07T11:10:21Z</time>
      </trkpt>
      <trkpt lat="43.36985" lon="2.06259">
        <ele>391.87</ele>
        <time>2018-04-07T11:10:42Z</time>
      </trkpt>
      <trkpt lat="43.36994" lon="2.06265">
        <ele>393.32</ele>
        <time>2018-04-07T11:10:58Z</time>
      </trkpt>
      <trkpt lat="43.37002" lon="2.06272">
        <ele>393.8</ele>
        <time>2018-04-07T11:11:11Z</time>
      </trkpt>
      <trkpt lat="43.37014" lon="2.0628">
        <ele>392.84</ele>
        <time>2018-04-07T11:11:25Z</time>
      </trkpt>
      <trkpt lat="43.37016" lon="2.06281">
        <ele>394.28</ele>
        <time>2018-04-07T11:11:27Z</time>
      </trkpt>
      <trkpt lat="43.3702" lon="2.06283">
        <ele>397.64</ele>
        <time>2018-04-07T11:11:34Z</time>
      </trkpt>
      <trkpt lat="43.3702" lon="2.06284">
        <ele>391.87</ele>
        <time>2018-04-07T11:11:35Z</time>
      </trkpt>
      <trkpt lat="43.37026" lon="2.0629">
        <ele>397.16</ele>
        <time>2018-04-07T11:11:47Z</time>
      </trkpt>
      <trkpt lat="43.37027" lon="2.06292">
        <ele>394.76</ele>
        <time>2018-04-07T11:11:49Z</time>
      </trkpt>
      <trkpt lat="43.37027" lon="2.06293">
        <ele>398.6</ele>
        <time>2018-04-07T11:11:53Z</time>
      </trkpt>
      <trkpt lat="43.37027" lon="2.06292">
        <ele>397.64</ele>
        <time>2018-04-07T11:11:54Z</time>
      </trkpt>
      <trkpt lat="43.37027" lon="2.06292">
        <ele>401.97</ele>
        <time>2018-04-07T11:12:00Z</time>
      </trkpt>
      <trkpt lat="43.37027" lon="2.06292">
        <ele>398.12</ele>
        <time>2018-04-07T11:12:02Z</time>
      </trkpt>
      <trkpt lat="43.37027" lon="2.06292">
        <ele>398.12</ele>
        <time>2018-04-07T11:12:03Z</time>
      </trkpt>
      <trkpt lat="43.37027" lon="2.06292">
        <ele>397.64</ele>
        <time>2018-04-07T11:12:07Z</time>
      </trkpt>
      <trkpt lat="43.37028" lon="2.06292">
        <ele>393.8</ele>
        <time>2018-04-07T11:12:09Z</time>
      </trkpt>
      <trkpt lat="43.37028" lon="2.06293">
        <ele>398.12</ele>
        <time>2018-04-07T11:12:10Z</time>
      </trkpt>
      <trkpt lat="43.37034" lon="2.06297">
        <ele>398.6</ele>
        <time>2018-04-07T11:12:24Z</time>
      </trkpt>
      <trkpt lat="43.37036" lon="2.06299">
        <ele>396.2</ele>
        <time>2018-04-07T11:12:27Z</time>
      </trkpt>
      <trkpt lat="43.37042" lon="2.06303">
        <ele>395.72</ele>
        <time>2018-04-07T11:12:33Z</time>
      </trkpt>
      <trkpt lat="43.37045" lon="2.06306">
        <ele>396.2</ele>
        <time>2018-04-07T11:12:38Z</time>
      </trkpt>
      <trkpt lat="43.3705" lon="2.06309">
        <ele>395.24</ele>
        <time>2018-04-07T11:12:44Z</time>
      </trkpt>
      <trkpt lat="43.37052" lon="2.06311">
        <ele>398.12</ele>
        <time>2018-04-07T11:12:47Z</time>
      </trkpt>
      <trkpt lat="43.37056" lon="2.06313">
        <ele>396.68</ele>
        <time>2018-04-07T11:12:52Z</time>
      </trkpt>
      <trkpt lat="43.3706" lon="2.06315">
        <ele>398.12</ele>
        <time>2018-04-07T11:12:56Z</time>
      </trkpt>
      <trkpt lat="43.37066" lon="2.0632">
        <ele>400.05</ele>
        <time>2018-04-07T11:13:04Z</time>
      </trkpt>
      <trkpt lat="43.3707" lon="2.06323">
        <ele>401.49</ele>
        <time>2018-04-07T11:13:12Z</time>
      </trkpt>
      <trkpt lat="43.37076" lon="2.06326">
        <ele>403.41</ele>
        <time>2018-04-07T11:13:21Z</time>
      </trkpt>
      <trkpt lat="43.37086" lon="2.06334">
        <ele>404.85</ele>
        <time>2018-04-07T11:13:34Z</time>
      </trkpt>
      <trkpt lat="43.37095" lon="2.06341">
        <ele>404.85</ele>
        <time>2018-04-07T11:13:49Z</time>
      </trkpt>
      <trkpt lat="43.37099" lon="2.06345">
        <ele>403.89</ele>
        <time>2018-04-07T11:14:04Z</time>
      </trkpt>
      <trkpt lat="43.37103" lon="2.06347">
        <ele>407.74</ele>
        <time>2018-04-07T11:14:12Z</time>
      </trkpt>
      <trkpt lat="43.37104" lon="2.06347">
        <ele>409.66</ele>
        <time>2018-04-07T11:14:15Z</time>
      </trkpt>
      <trkpt lat="43.37105" lon="2.06347">
        <ele>405.81</ele>
        <time>2018-04-07T11:14:17Z</time>
      </trkpt>
      <trkpt lat="43.37107" lon="2.0635">
        <ele>402.45</ele>
        <time>2018-04-07T11:14:23Z</time>
      </trkpt>
      <trkpt lat="43.37109" lon="2.06351">
        <ele>404.37</ele>
        <time>2018-04-07T11:14:26Z</time>
      </trkpt>
      <trkpt lat="43.3711" lon="2.06353">
        <ele>406.77</ele>
        <time>2018-04-07T11:14:28Z</time>
      </trkpt>
      <trkpt lat="43.37115" lon="2.06358">
        <ele>405.33</ele>
        <time>2018-04-07T11:14:37Z</time>
      </trkpt>
      <trkpt lat="43.37116" lon="2.0636">
        <ele>408.22</ele>
        <time>2018-04-07T11:14:40Z</time>
      </trkpt>
      <trkpt lat="43.37127" lon="2.06368">
        <ele>409.18</ele>
        <time>2018-04-07T11:14:57Z</time>
      </trkpt>
      <trkpt lat="43.37132" lon="2.06371">
        <ele>410.62</ele>
        <time>2018-04-07T11:15:04Z</time>
      </trkpt>
      <trkpt lat="43.37139" lon="2.06376">
        <ele>410.62</ele>
        <time>2018-04-07T11:15:13Z</time>
      </trkpt>
      <trkpt lat="43.37143" lon="2.06378">
        <ele>413.5</ele>
        <time>2018-04-07T11:15:17Z</time>
      </trkpt>
      <trkpt lat="43.37144" lon="2.06379">
        <ele>413.5</ele>
        <time>2018-04-07T11:15:18Z</time>
      </trkpt>
      <trkpt lat="43.37151" lon="2.06385">
        <ele>412.54</ele>
        <time>2018-04-07T11:15:26Z</time>
      </trkpt>
      <trkpt lat="43.37154" lon="2.06388">
        <ele>410.62</ele>
        <time>2018-04-07T11:15:32Z</time>
      </trkpt>
      <trkpt lat="43.37158" lon="2.06393">
        <ele>413.98</ele>
        <time>2018-04-07T11:15:37Z</time>
      </trkpt>
      <trkpt lat="43.3716" lon="2.06394">
        <ele>412.54</ele>
        <time>2018-04-07T11:15:40Z</time>
      </trkpt>
      <trkpt lat="43.37165" lon="2.06398">
        <ele>414.47</ele>
        <time>2018-04-07T11:15:45Z</time>
      </trkpt>
      <trkpt lat="43.37169" lon="2.064">
        <ele>412.54</ele>
        <time>2018-04-07T11:15:48Z</time>
      </trkpt>
      <trkpt lat="43.3718" lon="2.0641">
        <ele>412.54</ele>
        <time>2018-04-07T11:16:01Z</time>
      </trkpt>
      <trkpt lat="43.37192" lon="2.06417">
        <ele>415.43</ele>
        <time>2018-04-07T11:16:14Z</time>
      </trkpt>
      <trkpt lat="43.37199" lon="2.06423">
        <ele>414.95</ele>
        <time>2018-04-07T11:16:29Z</time>
      </trkpt>
      <trkpt lat="43.37209" lon="2.06432">
        <ele>415.43</ele>
        <time>2018-04-07T11:16:40Z</time>
      </trkpt>
      <trkpt lat="43.37219" lon="2.0644">
        <ele>415.43</ele>
        <time>2018-04-07T11:16:52Z</time>
      </trkpt>
      <trkpt lat="43.37225" lon="2.06445">
        <ele>415.91</ele>
        <time>2018-04-07T11:17:07Z</time>
      </trkpt>
      <trkpt lat="43.37229" lon="2.0645">
        <ele>412.54</ele>
        <time>2018-04-07T11:17:16Z</time>
      </trkpt>
      <trkpt lat="43.37227" lon="2.06458">
        <ele>412.54</ele>
        <time>2018-04-07T11:17:23Z</time>
      </trkpt>
      <trkpt lat="43.37228" lon="2.06464">
        <ele>410.62</ele>
        <time>2018-04-07T11:17:28Z</time>
      </trkpt>
      <trkpt lat="43.37229" lon="2.0647">
        <ele>414.95</ele>
        <time>2018-04-07T11:17:33Z</time>
      </trkpt>
      <trkpt lat="43.37229" lon="2.06471">
        <ele>414.95</ele>
        <time>2018-04-07T11:17:34Z</time>
      </trkpt>
      <trkpt lat="43.37229" lon="2.06474">
        <ele>410.62</ele>
        <time>2018-04-07T11:17:36Z</time>
      </trkpt>
      <trkpt lat="43.3723" lon="2.06476">
        <ele>407.74</ele>
        <time>2018-04-07T11:17:38Z</time>
      </trkpt>
      <trkpt lat="43.37231" lon="2.06482">
        <ele>414.47</ele>
        <time>2018-04-07T11:17:41Z</time>
      </trkpt>
      <trkpt lat="43.3723" lon="2.06486">
        <ele>419.27</ele>
        <time>2018-04-07T11:17:44Z</time>
      </trkpt>
      <trkpt lat="43.3723" lon="2.06487">
        <ele>416.39</ele>
        <time>2018-04-07T11:17:45Z</time>
      </trkpt>
      <trkpt lat="43.37231" lon="2.0649">
        <ele>411.1</ele>
        <time>2018-04-07T11:17:47Z</time>
      </trkpt>
      <trkpt lat="43.37231" lon="2.06491">
        <ele>412.54</ele>
        <time>2018-04-07T11:17:48Z</time>
      </trkpt>
      <trkpt lat="43.37232" lon="2.06498">
        <ele>410.14</ele>
        <time>2018-04-07T11:17:52Z</time>
      </trkpt>
      <trkpt lat="43.37232" lon="2.06501">
        <ele>404.85</ele>
        <time>2018-04-07T11:17:54Z</time>
      </trkpt>
      <trkpt lat="43.37232" lon="2.06502">
        <ele>407.26</ele>
        <time>2018-04-07T11:17:55Z</time>
      </trkpt>
      <trkpt lat="43.37232" lon="2.06506">
        <ele>406.29</ele>
        <time>2018-04-07T11:17:58Z</time>
      </trkpt>
      <trkpt lat="43.37233" lon="2.06507">
        <ele>410.62</ele>
        <time>2018-04-07T11:17:59Z</time>
      </trkpt>
      <trkpt lat="43.37233" lon="2.06508">
        <ele>405.81</ele>
        <time>2018-04-07T11:18:00Z</time>
      </trkpt>
      <trkpt lat="43.37233" lon="2.06511">
        <ele>410.62</ele>
        <time>2018-04-07T11:18:02Z</time>
      </trkpt>
      <trkpt lat="43.37233" lon="2.06513">
        <ele>410.62</ele>
        <time>2018-04-07T11:18:03Z</time>
      </trkpt>
      <trkpt lat="43.37233" lon="2.06517">
        <ele>406.77</ele>
        <time>2018-04-07T11:18:06Z</time>
      </trkpt>
      <trkpt lat="43.37233" lon="2.0652">
        <ele>410.62</ele>
        <time>2018-04-07T11:18:08Z</time>
      </trkpt>
      <trkpt lat="43.37234" lon="2.06534">
        <ele>413.98</ele>
        <time>2018-04-07T11:18:17Z</time>
      </trkpt>
      <trkpt lat="43.37235" lon="2.06536">
        <ele>410.62</ele>
        <time>2018-04-07T11:18:19Z</time>
      </trkpt>
      <trkpt lat="43.37235" lon="2.0654">
        <ele>407.74</ele>
        <time>2018-04-07T11:18:22Z</time>
      </trkpt>
      <trkpt lat="43.37236" lon="2.06544">
        <ele>411.58</ele>
        <time>2018-04-07T11:18:25Z</time>
      </trkpt>
      <trkpt lat="43.37236" lon="2.06547">
        <ele>407.26</ele>
        <time>2018-04-07T11:18:27Z</time>
      </trkpt>
      <trkpt lat="43.37236" lon="2.06549">
        <ele>410.62</ele>
        <time>2018-04-07T11:18:28Z</time>
      </trkpt>
      <trkpt lat="43.37237" lon="2.06556">
        <ele>407.26</ele>
        <time>2018-04-07T11:18:34Z</time>
      </trkpt>
      <trkpt lat="43.37237" lon="2.06558">
        <ele>410.62</ele>
        <time>2018-04-07T11:18:35Z</time>
      </trkpt>
      <trkpt lat="43.37238" lon="2.06567">
        <ele>407.26</ele>
        <time>2018-04-07T11:18:41Z</time>
      </trkpt>
      <trkpt lat="43.37239" lon="2.0657">
        <ele>410.62</ele>
        <time>2018-04-07T11:18:43Z</time>
      </trkpt>
      <trkpt lat="43.3724" lon="2.06579">
        <ele>402.93</ele>
        <time>2018-04-07T11:18:49Z</time>
      </trkpt>
      <trkpt lat="43.3724" lon="2.06581">
        <ele>407.26</ele>
        <time>2018-04-07T11:18:50Z</time>
      </trkpt>
      <trkpt lat="43.3724" lon="2.06586">
        <ele>401.49</ele>
        <time>2018-04-07T11:18:54Z</time>
      </trkpt>
      <trkpt lat="43.37241" lon="2.06587">
        <ele>408.22</ele>
        <time>2018-04-07T11:18:55Z</time>
      </trkpt>
      <trkpt lat="43.37241" lon="2.06589">
        <ele>411.1</ele>
        <time>2018-04-07T11:18:56Z</time>
      </trkpt>
      <trkpt lat="43.37241" lon="2.06593">
        <ele>407.74</ele>
        <time>2018-04-07T11:18:59Z</time>
      </trkpt>
      <trkpt lat="43.37241" lon="2.06595">
        <ele>407.74</ele>
        <time>2018-04-07T11:19:00Z</time>
      </trkpt>
      <trkpt lat="43.37242" lon="2.06597">
        <ele>408.7</ele>
        <time>2018-04-07T11:19:01Z</time>
      </trkpt>
      <trkpt lat="43.37243" lon="2.06607">
        <ele>405.81</ele>
        <time>2018-04-07T11:19:08Z</time>
      </trkpt>
      <trkpt lat="43.37243" lon="2.06609">
        <ele>409.18</ele>
        <time>2018-04-07T11:19:10Z</time>
      </trkpt>
      <trkpt lat="43.37244" lon="2.06616">
        <ele>409.66</ele>
        <time>2018-04-07T11:19:14Z</time>
      </trkpt>
      <trkpt lat="43.37245" lon="2.06627">
        <ele>405.81</ele>
        <time>2018-04-07T11:19:22Z</time>
      </trkpt>
      <trkpt lat="43.37245" lon="2.06638">
        <ele>409.18</ele>
        <time>2018-04-07T11:19:29Z</time>
      </trkpt>
      <trkpt lat="43.37245" lon="2.06642">
        <ele>405.33</ele>
        <time>2018-04-07T11:19:32Z</time>
      </trkpt>
      <trkpt lat="43.37245" lon="2.06643">
        <ele>402.93</ele>
        <time>2018-04-07T11:19:33Z</time>
      </trkpt>
      <trkpt lat="43.37245" lon="2.06644">
        <ele>406.77</ele>
        <time>2018-04-07T11:19:34Z</time>
      </trkpt>
      <trkpt lat="43.37245" lon="2.06647">
        <ele>410.62</ele>
        <time>2018-04-07T11:19:35Z</time>
      </trkpt>
      <trkpt lat="43.37245" lon="2.06647">
        <ele>410.62</ele>
        <time>2018-04-07T11:19:36Z</time>
      </trkpt>
      <trkpt lat="43.37245" lon="2.06664">
        <ele>408.22</ele>
        <time>2018-04-07T11:19:46Z</time>
      </trkpt>
      <trkpt lat="43.37245" lon="2.06671">
        <ele>408.7</ele>
        <time>2018-04-07T11:19:51Z</time>
      </trkpt>
      <trkpt lat="43.37245" lon="2.06676">
        <ele>410.14</ele>
        <time>2018-04-07T11:19:54Z</time>
      </trkpt>
      <trkpt lat="43.37246" lon="2.06695">
        <ele>406.77</ele>
        <time>2018-04-07T11:20:07Z</time>
      </trkpt>
      <trkpt lat="43.37246" lon="2.06705">
        <ele>407.26</ele>
        <time>2018-04-07T11:20:14Z</time>
      </trkpt>
      <trkpt lat="43.37246" lon="2.06727">
        <ele>408.7</ele>
        <time>2018-04-07T11:20:29Z</time>
      </trkpt>
      <trkpt lat="43.37246" lon="2.06748">
        <ele>407.26</ele>
        <time>2018-04-07T11:20:44Z</time>
      </trkpt>
      <trkpt lat="43.37248" lon="2.06761">
        <ele>404.37</ele>
        <time>2018-04-07T11:20:53Z</time>
      </trkpt>
      <trkpt lat="43.37249" lon="2.06763">
        <ele>405.33</ele>
        <time>2018-04-07T11:20:54Z</time>
      </trkpt>
      <trkpt lat="43.37254" lon="2.0678">
        <ele>406.29</ele>
        <time>2018-04-07T11:21:08Z</time>
      </trkpt>
      <trkpt lat="43.37256" lon="2.06784">
        <ele>403.41</ele>
        <time>2018-04-07T11:21:11Z</time>
      </trkpt>
      <trkpt lat="43.37259" lon="2.06791">
        <ele>400.05</ele>
        <time>2018-04-07T11:21:16Z</time>
      </trkpt>
      <trkpt lat="43.37259" lon="2.06794">
        <ele>403.41</ele>
        <time>2018-04-07T11:21:18Z</time>
      </trkpt>
      <trkpt lat="43.3726" lon="2.06796">
        <ele>404.37</ele>
        <time>2018-04-07T11:21:20Z</time>
      </trkpt>
      <trkpt lat="43.37265" lon="2.06807">
        <ele>400.05</ele>
        <time>2018-04-07T11:21:28Z</time>
      </trkpt>
      <trkpt lat="43.37265" lon="2.06808">
        <ele>400.05</ele>
        <time>2018-04-07T11:21:29Z</time>
      </trkpt>
      <trkpt lat="43.37266" lon="2.06811">
        <ele>397.64</ele>
        <time>2018-04-07T11:21:31Z</time>
      </trkpt>
      <trkpt lat="43.37268" lon="2.06816">
        <ele>401.01</ele>
        <time>2018-04-07T11:21:36Z</time>
      </trkpt>
      <trkpt lat="43.3727" lon="2.06823">
        <ele>401.49</ele>
        <time>2018-04-07T11:21:40Z</time>
      </trkpt>
      <trkpt lat="43.37277" lon="2.0684">
        <ele>400.05</ele>
        <time>2018-04-07T11:21:54Z</time>
      </trkpt>
      <trkpt lat="43.37277" lon="2.06842">
        <ele>399.57</ele>
        <time>2018-04-07T11:21:55Z</time>
      </trkpt>
      <trkpt lat="43.37284" lon="2.06853">
        <ele>398.6</ele>
        <time>2018-04-07T11:22:06Z</time>
      </trkpt>
      <trkpt lat="43.37296" lon="2.06862">
        <ele>395.24</ele>
        <time>2018-04-07T11:22:20Z</time>
      </trkpt>
      <trkpt lat="43.37309" lon="2.06867">
        <ele>392.84</ele>
        <time>2018-04-07T11:22:33Z</time>
      </trkpt>
      <trkpt lat="43.37316" lon="2.06869">
        <ele>390.43</ele>
        <time>2018-04-07T11:22:40Z</time>
      </trkpt>
      <trkpt lat="43.3732" lon="2.06873">
        <ele>391.39</ele>
        <time>2018-04-07T11:22:47Z</time>
      </trkpt>
      <trkpt lat="43.37325" lon="2.06879">
        <ele>390.91</ele>
        <time>2018-04-07T11:22:56Z</time>
      </trkpt>
      <trkpt lat="43.37323" lon="2.06885">
        <ele>387.55</ele>
        <time>2018-04-07T11:23:01Z</time>
      </trkpt>
      <trkpt lat="43.37319" lon="2.0689">
        <ele>388.03</ele>
        <time>2018-04-07T11:23:07Z</time>
      </trkpt>
      <trkpt lat="43.37309" lon="2.06896">
        <ele>387.55</ele>
        <time>2018-04-07T11:23:18Z</time>
      </trkpt>
      <trkpt lat="43.37307" lon="2.06898">
        <ele>388.99</ele>
        <time>2018-04-07T11:23:21Z</time>
      </trkpt>
      <trkpt lat="43.37301" lon="2.06908">
        <ele>386.59</ele>
        <time>2018-04-07T11:23:30Z</time>
      </trkpt>
      <trkpt lat="43.37304" lon="2.06928">
        <ele>384.66</ele>
        <time>2018-04-07T11:23:45Z</time>
      </trkpt>
      <trkpt lat="43.3731" lon="2.06936">
        <ele>381.3</ele>
        <time>2018-04-07T11:23:53Z</time>
      </trkpt>
      <trkpt lat="43.37313" lon="2.06942">
        <ele>383.22</ele>
        <time>2018-04-07T11:24:00Z</time>
      </trkpt>
      <trkpt lat="43.37313" lon="2.06949">
        <ele>382.74</ele>
        <time>2018-04-07T11:24:05Z</time>
      </trkpt>
      <trkpt lat="43.37312" lon="2.06953">
        <ele>383.22</ele>
        <time>2018-04-07T11:24:08Z</time>
      </trkpt>
      <trkpt lat="43.3731" lon="2.06955">
        <ele>383.22</ele>
        <time>2018-04-07T11:24:11Z</time>
      </trkpt>
      <trkpt lat="43.37301" lon="2.06966">
        <ele>382.74</ele>
        <time>2018-04-07T11:24:23Z</time>
      </trkpt>
      <trkpt lat="43.37289" lon="2.06969">
        <ele>383.7</ele>
        <time>2018-04-07T11:24:34Z</time>
      </trkpt>
      <trkpt lat="43.37278" lon="2.06968">
        <ele>384.66</ele>
        <time>2018-04-07T11:24:44Z</time>
      </trkpt>
      <trkpt lat="43.37259" lon="2.06962">
        <ele>385.63</ele>
        <time>2018-04-07T11:24:59Z</time>
      </trkpt>
      <trkpt lat="43.37255" lon="2.06959">
        <ele>385.63</ele>
        <time>2018-04-07T11:25:03Z</time>
      </trkpt>
      <trkpt lat="43.37242" lon="2.06948">
        <ele>387.07</ele>
        <time>2018-04-07T11:25:17Z</time>
      </trkpt>
      <trkpt lat="43.37233" lon="2.06943">
        <ele>388.03</ele>
        <time>2018-04-07T11:25:33Z</time>
      </trkpt>
      <trkpt lat="43.37224" lon="2.06933">
        <ele>389.47</ele>
        <time>2018-04-07T11:25:45Z</time>
      </trkpt>
      <trkpt lat="43.37213" lon="2.06924">
        <ele>390.43</ele>
        <time>2018-04-07T11:25:59Z</time>
      </trkpt>
      <trkpt lat="43.37201" lon="2.06913">
        <ele>391.39</ele>
        <time>2018-04-07T11:26:11Z</time>
      </trkpt>
      <trkpt lat="43.37189" lon="2.06901">
        <ele>391.87</ele>
        <time>2018-04-07T11:26:23Z</time>
      </trkpt>
      <trkpt lat="43.37188" lon="2.06899">
        <ele>391.87</ele>
        <time>2018-04-07T11:26:24Z</time>
      </trkpt>
      <trkpt lat="43.37178" lon="2.06888">
        <ele>393.8</ele>
        <time>2018-04-07T11:26:36Z</time>
      </trkpt>
      <trkpt lat="43.37166" lon="2.06882">
        <ele>393.8</ele>
        <time>2018-04-07T11:26:49Z</time>
      </trkpt>
      <trkpt lat="43.3715" lon="2.0688">
        <ele>396.2</ele>
        <time>2018-04-07T11:27:04Z</time>
      </trkpt>
      <trkpt lat="43.37135" lon="2.06878">
        <ele>396.68</ele>
        <time>2018-04-07T11:27:17Z</time>
      </trkpt>
      <trkpt lat="43.37126" lon="2.06881">
        <ele>396.2</ele>
        <time>2018-04-07T11:27:25Z</time>
      </trkpt>
      <trkpt lat="43.37123" lon="2.06883">
        <ele>396.68</ele>
        <time>2018-04-07T11:27:27Z</time>
      </trkpt>
      <trkpt lat="43.37116" lon="2.06898">
        <ele>395.72</ele>
        <time>2018-04-07T11:27:42Z</time>
      </trkpt>
      <trkpt lat="43.37116" lon="2.06903">
        <ele>399.08</ele>
        <time>2018-04-07T11:27:46Z</time>
      </trkpt>
      <trkpt lat="43.37117" lon="2.06921">
        <ele>400.53</ele>
        <time>2018-04-07T11:28:03Z</time>
      </trkpt>
      <trkpt lat="43.37117" lon="2.06922">
        <ele>397.64</ele>
        <time>2018-04-07T11:28:10Z</time>
      </trkpt>
      <trkpt lat="43.37118" lon="2.06923">
        <ele>397.16</ele>
        <time>2018-04-07T11:28:11Z</time>
      </trkpt>
      <trkpt lat="43.37118" lon="2.06926">
        <ele>400.05</ele>
        <time>2018-04-07T11:28:14Z</time>
      </trkpt>
      <trkpt lat="43.37116" lon="2.06932">
        <ele>400.53</ele>
        <time>2018-04-07T11:28:22Z</time>
      </trkpt>
      <trkpt lat="43.37117" lon="2.06945">
        <ele>399.57</ele>
        <time>2018-04-07T11:28:32Z</time>
      </trkpt>
      <trkpt lat="43.37117" lon="2.0695">
        <ele>401.49</ele>
        <time>2018-04-07T11:28:35Z</time>
      </trkpt>
      <trkpt lat="43.37117" lon="2.06968">
        <ele>401.01</ele>
        <time>2018-04-07T11:28:48Z</time>
      </trkpt>
      <trkpt lat="43.37118" lon="2.06975">
        <ele>402.45</ele>
        <time>2018-04-07T11:28:53Z</time>
      </trkpt>
      <trkpt lat="43.37119" lon="2.06988">
        <ele>403.89</ele>
        <time>2018-04-07T11:29:03Z</time>
      </trkpt>
      <trkpt lat="43.37123" lon="2.07008">
        <ele>404.85</ele>
        <time>2018-04-07T11:29:17Z</time>
      </trkpt>
      <trkpt lat="43.37127" lon="2.07031">
        <ele>404.85</ele>
        <time>2018-04-07T11:29:33Z</time>
      </trkpt>
      <trkpt lat="43.37128" lon="2.07037">
        <ele>403.89</ele>
        <time>2018-04-07T11:29:38Z</time>
      </trkpt>
      <trkpt lat="43.37128" lon="2.07038">
        <ele>405.81</ele>
        <time>2018-04-07T11:29:39Z</time>
      </trkpt>
      <trkpt lat="43.37129" lon="2.07044">
        <ele>402.45</ele>
        <time>2018-04-07T11:29:43Z</time>
      </trkpt>
      <trkpt lat="43.3713" lon="2.07048">
        <ele>406.29</ele>
        <time>2018-04-07T11:29:45Z</time>
      </trkpt>
      <trkpt lat="43.37131" lon="2.07051">
        <ele>410.14</ele>
        <time>2018-04-07T11:29:47Z</time>
      </trkpt>
      <trkpt lat="43.37131" lon="2.07052">
        <ele>409.66</ele>
        <time>2018-04-07T11:29:48Z</time>
      </trkpt>
      <trkpt lat="43.37132" lon="2.07056">
        <ele>406.77</ele>
        <time>2018-04-07T11:29:52Z</time>
      </trkpt>
      <trkpt lat="43.37132" lon="2.07055">
        <ele>409.66</ele>
        <time>2018-04-07T11:30:07Z</time>
      </trkpt>
      <trkpt lat="43.37132" lon="2.07055">
        <ele>409.18</ele>
        <time>2018-04-07T11:30:08Z</time>
      </trkpt>
      <trkpt lat="43.37135" lon="2.07061">
        <ele>406.77</ele>
        <time>2018-04-07T11:30:28Z</time>
      </trkpt>
      <trkpt lat="43.37136" lon="2.07067">
        <ele>410.62</ele>
        <time>2018-04-07T11:30:32Z</time>
      </trkpt>
      <trkpt lat="43.37142" lon="2.07087">
        <ele>410.14</ele>
        <time>2018-04-07T11:30:47Z</time>
      </trkpt>
      <trkpt lat="43.37147" lon="2.07098">
        <ele>405.81</ele>
        <time>2018-04-07T11:30:56Z</time>
      </trkpt>
      <trkpt lat="43.37148" lon="2.07099">
        <ele>406.77</ele>
        <time>2018-04-07T11:30:57Z</time>
      </trkpt>
      <trkpt lat="43.37149" lon="2.07101">
        <ele>410.14</ele>
        <time>2018-04-07T11:30:59Z</time>
      </trkpt>
      <trkpt lat="43.3715" lon="2.07104">
        <ele>413.02</ele>
        <time>2018-04-07T11:31:02Z</time>
      </trkpt>
      <trkpt lat="43.37158" lon="2.07119">
        <ele>412.54</ele>
        <time>2018-04-07T11:31:16Z</time>
      </trkpt>
      <trkpt lat="43.37159" lon="2.07123">
        <ele>414.47</ele>
        <time>2018-04-07T11:31:19Z</time>
      </trkpt>
      <trkpt lat="43.37163" lon="2.07145">
        <ele>414.95</ele>
        <time>2018-04-07T11:31:34Z</time>
      </trkpt>
      <trkpt lat="43.37163" lon="2.07148">
        <ele>414.95</ele>
        <time>2018-04-07T11:31:36Z</time>
      </trkpt>
      <trkpt lat="43.37162" lon="2.07172">
        <ele>412.54</ele>
        <time>2018-04-07T11:31:52Z</time>
      </trkpt>
      <trkpt lat="43.37162" lon="2.07177">
        <ele>414.47</ele>
        <time>2018-04-07T11:31:55Z</time>
      </trkpt>
      <trkpt lat="43.37162" lon="2.072">
        <ele>412.54</ele>
        <time>2018-04-07T11:32:10Z</time>
      </trkpt>
      <trkpt lat="43.37159" lon="2.07223">
        <ele>413.5</ele>
        <time>2018-04-07T11:32:25Z</time>
      </trkpt>
      <trkpt lat="43.37159" lon="2.07236">
        <ele>413.98</ele>
        <time>2018-04-07T11:32:32Z</time>
      </trkpt>
      <trkpt lat="43.37154" lon="2.07253">
        <ele>414.47</ele>
        <time>2018-04-07T11:32:46Z</time>
      </trkpt>
      <trkpt lat="43.3715" lon="2.07262">
        <ele>413.5</ele>
        <time>2018-04-07T11:32:56Z</time>
      </trkpt>
      <trkpt lat="43.37142" lon="2.07267">
        <ele>414.95</ele>
        <time>2018-04-07T11:33:03Z</time>
      </trkpt>
      <trkpt lat="43.37137" lon="2.07266">
        <ele>415.43</ele>
        <time>2018-04-07T11:33:09Z</time>
      </trkpt>
      <trkpt lat="43.37133" lon="2.07263">
        <ele>415.91</ele>
        <time>2018-04-07T11:33:13Z</time>
      </trkpt>
      <trkpt lat="43.37129" lon="2.07262">
        <ele>415.91</ele>
        <time>2018-04-07T11:33:16Z</time>
      </trkpt>
      <trkpt lat="43.37119" lon="2.07248">
        <ele>417.35</ele>
        <time>2018-04-07T11:33:29Z</time>
      </trkpt>
      <trkpt lat="43.37111" lon="2.0723">
        <ele>418.31</ele>
        <time>2018-04-07T11:33:44Z</time>
      </trkpt>
      <trkpt lat="43.37104" lon="2.07215">
        <ele>421.19</ele>
        <time>2018-04-07T11:33:56Z</time>
      </trkpt>
      <trkpt lat="43.37093" lon="2.07198">
        <ele>423.6</ele>
        <time>2018-04-07T11:34:11Z</time>
      </trkpt>
      <trkpt lat="43.37087" lon="2.07194">
        <ele>422.64</ele>
        <time>2018-04-07T11:34:17Z</time>
      </trkpt>
      <trkpt lat="43.37084" lon="2.07194">
        <ele>422.64</ele>
        <time>2018-04-07T11:34:20Z</time>
      </trkpt>
      <trkpt lat="43.3708" lon="2.07194">
        <ele>422.64</ele>
        <time>2018-04-07T11:34:24Z</time>
      </trkpt>
      <trkpt lat="43.37078" lon="2.07195">
        <ele>421.19</ele>
        <time>2018-04-07T11:34:27Z</time>
      </trkpt>
      <trkpt lat="43.3707" lon="2.07206">
        <ele>425.04</ele>
        <time>2018-04-07T11:34:38Z</time>
      </trkpt>
      <trkpt lat="43.37069" lon="2.07208">
        <ele>421.68</ele>
        <time>2018-04-07T11:34:40Z</time>
      </trkpt>
      <trkpt lat="43.37068" lon="2.07211">
        <ele>418.31</ele>
        <time>2018-04-07T11:34:43Z</time>
      </trkpt>
      <trkpt lat="43.37067" lon="2.07212">
        <ele>419.27</ele>
        <time>2018-04-07T11:34:44Z</time>
      </trkpt>
      <trkpt lat="43.37067" lon="2.07214">
        <ele>423.12</ele>
        <time>2018-04-07T11:34:45Z</time>
      </trkpt>
      <trkpt lat="43.37066" lon="2.07215">
        <ele>420.71</ele>
        <time>2018-04-07T11:34:46Z</time>
      </trkpt>
      <trkpt lat="43.37064" lon="2.07218">
        <ele>425.52</ele>
        <time>2018-04-07T11:34:49Z</time>
      </trkpt>
      <trkpt lat="43.37058" lon="2.07226">
        <ele>427.92</ele>
        <time>2018-04-07T11:34:57Z</time>
      </trkpt>
      <trkpt lat="43.37047" lon="2.07238">
        <ele>427.44</ele>
        <time>2018-04-07T11:35:11Z</time>
      </trkpt>
      <trkpt lat="43.37035" lon="2.0725">
        <ele>427.92</ele>
        <time>2018-04-07T11:35:27Z</time>
      </trkpt>
      <trkpt lat="43.37032" lon="2.07253">
        <ele>430.33</ele>
        <time>2018-04-07T11:35:31Z</time>
      </trkpt>
      <trkpt lat="43.37025" lon="2.07259">
        <ele>430.81</ele>
        <time>2018-04-07T11:35:40Z</time>
      </trkpt>
      <trkpt lat="43.37018" lon="2.07266">
        <ele>431.77</ele>
        <time>2018-04-07T11:35:49Z</time>
      </trkpt>
      <trkpt lat="43.37005" lon="2.07275">
        <ele>431.77</ele>
        <time>2018-04-07T11:36:03Z</time>
      </trkpt>
      <trkpt lat="43.36998" lon="2.0728">
        <ele>432.73</ele>
        <time>2018-04-07T11:36:11Z</time>
      </trkpt>
      <trkpt lat="43.36993" lon="2.07283">
        <ele>434.65</ele>
        <time>2018-04-07T11:36:16Z</time>
      </trkpt>
      <trkpt lat="43.3698" lon="2.0729">
        <ele>432.73</ele>
        <time>2018-04-07T11:36:30Z</time>
      </trkpt>
      <trkpt lat="43.36972" lon="2.07296">
        <ele>436.1</ele>
        <time>2018-04-07T11:36:39Z</time>
      </trkpt>
      <trkpt lat="43.36967" lon="2.073">
        <ele>431.77</ele>
        <time>2018-04-07T11:36:45Z</time>
      </trkpt>
      <trkpt lat="43.36966" lon="2.07301">
        <ele>434.65</ele>
        <time>2018-04-07T11:36:46Z</time>
      </trkpt>
      <trkpt lat="43.36961" lon="2.07307">
        <ele>434.65</ele>
        <time>2018-04-07T11:36:52Z</time>
      </trkpt>
      <trkpt lat="43.36959" lon="2.07308">
        <ele>433.69</ele>
        <time>2018-04-07T11:36:54Z</time>
      </trkpt>
      <trkpt lat="43.36954" lon="2.07316">
        <ele>434.65</ele>
        <time>2018-04-07T11:37:01Z</time>
      </trkpt>
      <trkpt lat="43.36952" lon="2.07319">
        <ele>436.58</ele>
        <time>2018-04-07T11:37:04Z</time>
      </trkpt>
      <trkpt lat="43.36951" lon="2.0732">
        <ele>435.61</ele>
        <time>2018-04-07T11:37:05Z</time>
      </trkpt>
      <trkpt lat="43.36949" lon="2.07324">
        <ele>435.61</ele>
        <time>2018-04-07T11:37:08Z</time>
      </trkpt>
      <trkpt lat="43.36946" lon="2.07331">
        <ele>438.02</ele>
        <time>2018-04-07T11:37:13Z</time>
      </trkpt>
      <trkpt lat="43.36944" lon="2.07337">
        <ele>435.13</ele>
        <time>2018-04-07T11:37:18Z</time>
      </trkpt>
      <trkpt lat="43.36942" lon="2.07339">
        <ele>432.25</ele>
        <time>2018-04-07T11:37:20Z</time>
      </trkpt>
      <trkpt lat="43.36941" lon="2.07342">
        <ele>436.58</ele>
        <time>2018-04-07T11:37:22Z</time>
      </trkpt>
      <trkpt lat="43.36941" lon="2.07343">
        <ele>436.1</ele>
        <time>2018-04-07T11:37:23Z</time>
      </trkpt>
      <trkpt lat="43.36939" lon="2.07347">
        <ele>436.58</ele>
        <time>2018-04-07T11:37:27Z</time>
      </trkpt>
      <trkpt lat="43.36937" lon="2.07353">
        <ele>433.21</ele>
        <time>2018-04-07T11:37:31Z</time>
      </trkpt>
      <trkpt lat="43.36935" lon="2.07361">
        <ele>437.54</ele>
        <time>2018-04-07T11:37:37Z</time>
      </trkpt>
      <trkpt lat="43.36934" lon="2.07362">
        <ele>437.54</ele>
        <time>2018-04-07T11:37:38Z</time>
      </trkpt>
      <trkpt lat="43.36933" lon="2.07366">
        <ele>439.94</ele>
        <time>2018-04-07T11:37:41Z</time>
      </trkpt>
      <trkpt lat="43.3693" lon="2.07373">
        <ele>435.13</ele>
        <time>2018-04-07T11:37:47Z</time>
      </trkpt>
      <trkpt lat="43.3693" lon="2.07378">
        <ele>438.5</ele>
        <time>2018-04-07T11:37:51Z</time>
      </trkpt>
      <trkpt lat="43.36929" lon="2.07379">
        <ele>438.02</ele>
        <time>2018-04-07T11:37:52Z</time>
      </trkpt>
      <trkpt lat="43.36927" lon="2.07389">
        <ele>433.69</ele>
        <time>2018-04-07T11:37:59Z</time>
      </trkpt>
      <trkpt lat="43.36926" lon="2.0739">
        <ele>434.65</ele>
        <time>2018-04-07T11:38:00Z</time>
      </trkpt>
      <trkpt lat="43.36926" lon="2.07391">
        <ele>438.02</ele>
        <time>2018-04-07T11:38:01Z</time>
      </trkpt>
      <trkpt lat="43.36924" lon="2.07396">
        <ele>436.1</ele>
        <time>2018-04-07T11:38:04Z</time>
      </trkpt>
      <trkpt lat="43.36923" lon="2.074">
        <ele>438.02</ele>
        <time>2018-04-07T11:38:07Z</time>
      </trkpt>
      <trkpt lat="43.36921" lon="2.07409">
        <ele>435.61</ele>
        <time>2018-04-07T11:38:13Z</time>
      </trkpt>
      <trkpt lat="43.3692" lon="2.07414">
        <ele>439.94</ele>
        <time>2018-04-07T11:38:17Z</time>
      </trkpt>
      <trkpt lat="43.3692" lon="2.07416">
        <ele>438.5</ele>
        <time>2018-04-07T11:38:18Z</time>
      </trkpt>
      <trkpt lat="43.3692" lon="2.07417">
        <ele>435.13</ele>
        <time>2018-04-07T11:38:19Z</time>
      </trkpt>
      <trkpt lat="43.3692" lon="2.07418">
        <ele>435.61</ele>
        <time>2018-04-07T11:38:20Z</time>
      </trkpt>
      <trkpt lat="43.36919" lon="2.07421">
        <ele>436.1</ele>
        <time>2018-04-07T11:38:22Z</time>
      </trkpt>
      <trkpt lat="43.36914" lon="2.07441">
        <ele>436.1</ele>
        <time>2018-04-07T11:38:36Z</time>
      </trkpt>
      <trkpt lat="43.36912" lon="2.07455">
        <ele>432.73</ele>
        <time>2018-04-07T11:38:45Z</time>
      </trkpt>
      <trkpt lat="43.3691" lon="2.07462">
        <ele>436.1</ele>
        <time>2018-04-07T11:38:50Z</time>
      </trkpt>
      <trkpt lat="43.36909" lon="2.07464">
        <ele>431.29</ele>
        <time>2018-04-07T11:38:52Z</time>
      </trkpt>
      <trkpt lat="43.36909" lon="2.07466">
        <ele>432.25</ele>
        <time>2018-04-07T11:38:53Z</time>
      </trkpt>
      <trkpt lat="43.36907" lon="2.07474">
        <ele>436.58</ele>
        <time>2018-04-07T11:38:59Z</time>
      </trkpt>
      <trkpt lat="43.36907" lon="2.07475">
        <ele>435.61</ele>
        <time>2018-04-07T11:39:00Z</time>
      </trkpt>
      <trkpt lat="43.36905" lon="2.07483">
        <ele>437.54</ele>
        <time>2018-04-07T11:39:06Z</time>
      </trkpt>
      <trkpt lat="43.36902" lon="2.07501">
        <ele>438.5</ele>
        <time>2018-04-07T11:39:19Z</time>
      </trkpt>
      <trkpt lat="43.36898" lon="2.07517">
        <ele>434.65</ele>
        <time>2018-04-07T11:39:30Z</time>
      </trkpt>
      <trkpt lat="43.36896" lon="2.07521">
        <ele>439.46</ele>
        <time>2018-04-07T11:39:34Z</time>
      </trkpt>
      <trkpt lat="43.36895" lon="2.07527">
        <ele>437.06</ele>
        <time>2018-04-07T11:39:38Z</time>
      </trkpt>
      <trkpt lat="43.36894" lon="2.07529">
        <ele>440.9</ele>
        <time>2018-04-07T11:39:40Z</time>
      </trkpt>
      <trkpt lat="43.36894" lon="2.07531">
        <ele>440.42</ele>
        <time>2018-04-07T11:39:41Z</time>
      </trkpt>
      <trkpt lat="43.36889" lon="2.07552">
        <ele>440.9</ele>
        <time>2018-04-07T11:39:56Z</time>
      </trkpt>
      <trkpt lat="43.36887" lon="2.07559">
        <ele>441.38</ele>
        <time>2018-04-07T11:40:01Z</time>
      </trkpt>
      <trkpt lat="43.36884" lon="2.07574">
        <ele>438.02</ele>
        <time>2018-04-07T11:40:12Z</time>
      </trkpt>
      <trkpt lat="43.36882" lon="2.07581">
        <ele>442.82</ele>
        <time>2018-04-07T11:40:17Z</time>
      </trkpt>
      <trkpt lat="43.36881" lon="2.07585">
        <ele>438.02</ele>
        <time>2018-04-07T11:40:20Z</time>
      </trkpt>
      <trkpt lat="43.3688" lon="2.07589">
        <ele>441.86</ele>
        <time>2018-04-07T11:40:22Z</time>
      </trkpt>
      <trkpt lat="43.3688" lon="2.0759">
        <ele>441.86</ele>
        <time>2018-04-07T11:40:23Z</time>
      </trkpt>
      <trkpt lat="43.3688" lon="2.07593">
        <ele>443.31</ele>
        <time>2018-04-07T11:40:25Z</time>
      </trkpt>
      <trkpt lat="43.36876" lon="2.07609">
        <ele>442.82</ele>
        <time>2018-04-07T11:40:36Z</time>
      </trkpt>
      <trkpt lat="43.36874" lon="2.07615">
        <ele>438.5</ele>
        <time>2018-04-07T11:40:41Z</time>
      </trkpt>
      <trkpt lat="43.36874" lon="2.07617">
        <ele>439.46</ele>
        <time>2018-04-07T11:40:42Z</time>
      </trkpt>
      <trkpt lat="43.36872" lon="2.07628">
        <ele>443.31</ele>
        <time>2018-04-07T11:40:50Z</time>
      </trkpt>
      <trkpt lat="43.36872" lon="2.07629">
        <ele>443.31</ele>
        <time>2018-04-07T11:40:51Z</time>
      </trkpt>
      <trkpt lat="43.36871" lon="2.07631">
        <ele>443.31</ele>
        <time>2018-04-07T11:40:52Z</time>
      </trkpt>
      <trkpt lat="43.3687" lon="2.07633">
        <ele>445.23</ele>
        <time>2018-04-07T11:40:54Z</time>
      </trkpt>
      <trkpt lat="43.36868" lon="2.07643">
        <ele>448.11</ele>
        <time>2018-04-07T11:41:00Z</time>
      </trkpt>
      <trkpt lat="43.36868" lon="2.07646">
        <ele>443.79</ele>
        <time>2018-04-07T11:41:02Z</time>
      </trkpt>
      <trkpt lat="43.36868" lon="2.07648">
        <ele>443.79</ele>
        <time>2018-04-07T11:41:03Z</time>
      </trkpt>
      <trkpt lat="43.36867" lon="2.07656">
        <ele>438.98</ele>
        <time>2018-04-07T11:41:08Z</time>
      </trkpt>
      <trkpt lat="43.36867" lon="2.07657">
        <ele>440.42</ele>
        <time>2018-04-07T11:41:09Z</time>
      </trkpt>
      <trkpt lat="43.36866" lon="2.0766">
        <ele>444.27</ele>
        <time>2018-04-07T11:41:11Z</time>
      </trkpt>
      <trkpt lat="43.36866" lon="2.07661">
        <ele>440.9</ele>
        <time>2018-04-07T11:41:12Z</time>
      </trkpt>
      <trkpt lat="43.36865" lon="2.07663">
        <ele>441.38</ele>
        <time>2018-04-07T11:41:13Z</time>
      </trkpt>
      <trkpt lat="43.36864" lon="2.07668">
        <ele>444.27</ele>
        <time>2018-04-07T11:41:17Z</time>
      </trkpt>
      <trkpt lat="43.36864" lon="2.07672">
        <ele>446.19</ele>
        <time>2018-04-07T11:41:19Z</time>
      </trkpt>
      <trkpt lat="43.36863" lon="2.07676">
        <ele>442.82</ele>
        <time>2018-04-07T11:41:22Z</time>
      </trkpt>
      <trkpt lat="43.36862" lon="2.07683">
        <ele>439.94</ele>
        <time>2018-04-07T11:41:28Z</time>
      </trkpt>
      <trkpt lat="43.36861" lon="2.07691">
        <ele>444.27</ele>
        <time>2018-04-07T11:41:33Z</time>
      </trkpt>
      <trkpt lat="43.36861" lon="2.07693">
        <ele>444.27</ele>
        <time>2018-04-07T11:41:34Z</time>
      </trkpt>
      <trkpt lat="43.3686" lon="2.07704">
        <ele>447.15</ele>
        <time>2018-04-07T11:41:41Z</time>
      </trkpt>
      <trkpt lat="43.36859" lon="2.0771">
        <ele>448.59</ele>
        <time>2018-04-07T11:41:45Z</time>
      </trkpt>
      <trkpt lat="43.36859" lon="2.07716">
        <ele>448.59</ele>
        <time>2018-04-07T11:41:49Z</time>
      </trkpt>
      <trkpt lat="43.36859" lon="2.07721">
        <ele>445.71</ele>
        <time>2018-04-07T11:41:52Z</time>
      </trkpt>
      <trkpt lat="43.36859" lon="2.07724">
        <ele>443.79</ele>
        <time>2018-04-07T11:41:54Z</time>
      </trkpt>
      <trkpt lat="43.36859" lon="2.07727">
        <ele>447.63</ele>
        <time>2018-04-07T11:41:56Z</time>
      </trkpt>
      <trkpt lat="43.36859" lon="2.07731">
        <ele>449.07</ele>
        <time>2018-04-07T11:41:59Z</time>
      </trkpt>
      <trkpt lat="43.36858" lon="2.07741">
        <ele>448.59</ele>
        <time>2018-04-07T11:42:05Z</time>
      </trkpt>
      <trkpt lat="43.36858" lon="2.07747">
        <ele>446.67</ele>
        <time>2018-04-07T11:42:09Z</time>
      </trkpt>
      <trkpt lat="43.36857" lon="2.07765">
        <ele>447.15</ele>
        <time>2018-04-07T11:42:22Z</time>
      </trkpt>
      <trkpt lat="43.36857" lon="2.07771">
        <ele>448.59</ele>
        <time>2018-04-07T11:42:26Z</time>
      </trkpt>
      <trkpt lat="43.36857" lon="2.07773">
        <ele>445.23</ele>
        <time>2018-04-07T11:42:27Z</time>
      </trkpt>
      <trkpt lat="43.36857" lon="2.07775">
        <ele>448.11</ele>
        <time>2018-04-07T11:42:28Z</time>
      </trkpt>
      <trkpt lat="43.36857" lon="2.07795">
        <ele>448.11</ele>
        <time>2018-04-07T11:42:42Z</time>
      </trkpt>
      <trkpt lat="43.36857" lon="2.07798">
        <ele>445.23</ele>
        <time>2018-04-07T11:42:44Z</time>
      </trkpt>
      <trkpt lat="43.36857" lon="2.07802">
        <ele>440.9</ele>
        <time>2018-04-07T11:42:47Z</time>
      </trkpt>
      <trkpt lat="43.36857" lon="2.07804">
        <ele>449.55</ele>
        <time>2018-04-07T11:42:49Z</time>
      </trkpt>
      <trkpt lat="43.36858" lon="2.07806">
        <ele>449.07</ele>
        <time>2018-04-07T11:42:50Z</time>
      </trkpt>
      <trkpt lat="43.36859" lon="2.07827">
        <ele>449.07</ele>
        <time>2018-04-07T11:43:05Z</time>
      </trkpt>
      <trkpt lat="43.36859" lon="2.0783">
        <ele>449.55</ele>
        <time>2018-04-07T11:43:07Z</time>
      </trkpt>
      <trkpt lat="43.36861" lon="2.07832">
        <ele>448.11</ele>
        <time>2018-04-07T11:43:09Z</time>
      </trkpt>
      <trkpt lat="43.36862" lon="2.07853">
        <ele>448.59</ele>
        <time>2018-04-07T11:43:23Z</time>
      </trkpt>
      <trkpt lat="43.36861" lon="2.07855">
        <ele>451</ele>
        <time>2018-04-07T11:43:25Z</time>
      </trkpt>
      <trkpt lat="43.3686" lon="2.07857">
        <ele>450.03</ele>
        <time>2018-04-07T11:43:26Z</time>
      </trkpt>
      <trkpt lat="43.36851" lon="2.07863">
        <ele>451</ele>
        <time>2018-04-07T11:43:35Z</time>
      </trkpt>
      <trkpt lat="43.36846" lon="2.07866">
        <ele>447.15</ele>
        <time>2018-04-07T11:43:40Z</time>
      </trkpt>
      <trkpt lat="43.36846" lon="2.07866">
        <ele>448.11</ele>
        <time>2018-04-07T11:43:41Z</time>
      </trkpt>
      <trkpt lat="43.36844" lon="2.07868">
        <ele>449.55</ele>
        <time>2018-04-07T11:43:43Z</time>
      </trkpt>
      <trkpt lat="43.36842" lon="2.07869">
        <ele>451</ele>
        <time>2018-04-07T11:43:45Z</time>
      </trkpt>
      <trkpt lat="43.36834" lon="2.07876">
        <ele>445.23</ele>
        <time>2018-04-07T11:43:54Z</time>
      </trkpt>
      <trkpt lat="43.3683" lon="2.07877">
        <ele>450.52</ele>
        <time>2018-04-07T11:43:58Z</time>
      </trkpt>
      <trkpt lat="43.36829" lon="2.07878">
        <ele>449.55</ele>
        <time>2018-04-07T11:43:59Z</time>
      </trkpt>
      <trkpt lat="43.36827" lon="2.0788">
        <ele>448.11</ele>
        <time>2018-04-07T11:44:01Z</time>
      </trkpt>
      <trkpt lat="43.36825" lon="2.07881">
        <ele>444.75</ele>
        <time>2018-04-07T11:44:03Z</time>
      </trkpt>
      <trkpt lat="43.36824" lon="2.07881">
        <ele>445.71</ele>
        <time>2018-04-07T11:44:04Z</time>
      </trkpt>
      <trkpt lat="43.36823" lon="2.07882">
        <ele>449.07</ele>
        <time>2018-04-07T11:44:05Z</time>
      </trkpt>
      <trkpt lat="43.36819" lon="2.07885">
        <ele>445.71</ele>
        <time>2018-04-07T11:44:10Z</time>
      </trkpt>
      <trkpt lat="43.36816" lon="2.07887">
        <ele>448.11</ele>
        <time>2018-04-07T11:44:13Z</time>
      </trkpt>
      <trkpt lat="43.3681" lon="2.07893">
        <ele>443.31</ele>
        <time>2018-04-07T11:44:20Z</time>
      </trkpt>
      <trkpt lat="43.36809" lon="2.07893">
        <ele>445.71</ele>
        <time>2018-04-07T11:44:21Z</time>
      </trkpt>
      <trkpt lat="43.36807" lon="2.07895">
        <ele>446.67</ele>
        <time>2018-04-07T11:44:23Z</time>
      </trkpt>
      <trkpt lat="43.36805" lon="2.07896">
        <ele>445.71</ele>
        <time>2018-04-07T11:44:25Z</time>
      </trkpt>
      <trkpt lat="43.36802" lon="2.07899">
        <ele>450.52</ele>
        <time>2018-04-07T11:44:28Z</time>
      </trkpt>
      <trkpt lat="43.36801" lon="2.079">
        <ele>449.07</ele>
        <time>2018-04-07T11:44:29Z</time>
      </trkpt>
      <trkpt lat="43.36799" lon="2.07901">
        <ele>449.07</ele>
        <time>2018-04-07T11:44:31Z</time>
      </trkpt>
      <trkpt lat="43.36796" lon="2.07904">
        <ele>445.23</ele>
        <time>2018-04-07T11:44:34Z</time>
      </trkpt>
      <trkpt lat="43.36782" lon="2.07914">
        <ele>448.59</ele>
        <time>2018-04-07T11:44:48Z</time>
      </trkpt>
      <trkpt lat="43.36777" lon="2.07918">
        <ele>444.27</ele>
        <time>2018-04-07T11:44:53Z</time>
      </trkpt>
      <trkpt lat="43.36771" lon="2.07922">
        <ele>442.82</ele>
        <time>2018-04-07T11:44:59Z</time>
      </trkpt>
      <trkpt lat="43.36766" lon="2.07927">
        <ele>436.58</ele>
        <time>2018-04-07T11:45:05Z</time>
      </trkpt>
      <trkpt lat="43.36766" lon="2.07928">
        <ele>441.86</ele>
        <time>2018-04-07T11:45:06Z</time>
      </trkpt>
      <trkpt lat="43.36755" lon="2.07935">
        <ele>438.98</ele>
        <time>2018-04-07T11:45:17Z</time>
      </trkpt>
      <trkpt lat="43.36752" lon="2.07938">
        <ele>441.38</ele>
        <time>2018-04-07T11:45:20Z</time>
      </trkpt>
      <trkpt lat="43.36745" lon="2.07944">
        <ele>440.42</ele>
        <time>2018-04-07T11:45:28Z</time>
      </trkpt>
      <trkpt lat="43.36735" lon="2.07951">
        <ele>442.34</ele>
        <time>2018-04-07T11:45:38Z</time>
      </trkpt>
      <trkpt lat="43.36733" lon="2.07952">
        <ele>439.46</ele>
        <time>2018-04-07T11:45:40Z</time>
      </trkpt>
      <trkpt lat="43.36729" lon="2.07955">
        <ele>442.34</ele>
        <time>2018-04-07T11:45:44Z</time>
      </trkpt>
      <trkpt lat="43.36725" lon="2.07958">
        <ele>445.71</ele>
        <time>2018-04-07T11:45:48Z</time>
      </trkpt>
      <trkpt lat="43.36723" lon="2.07959">
        <ele>441.38</ele>
        <time>2018-04-07T11:45:50Z</time>
      </trkpt>
      <trkpt lat="43.36721" lon="2.0796">
        <ele>442.34</ele>
        <time>2018-04-07T11:45:52Z</time>
      </trkpt>
      <trkpt lat="43.36719" lon="2.07961">
        <ele>443.79</ele>
        <time>2018-04-07T11:45:54Z</time>
      </trkpt>
      <trkpt lat="43.36719" lon="2.07962">
        <ele>440.42</ele>
        <time>2018-04-07T11:45:55Z</time>
      </trkpt>
      <trkpt lat="43.36704" lon="2.07975">
        <ele>441.38</ele>
        <time>2018-04-07T11:46:14Z</time>
      </trkpt>
      <trkpt lat="43.36701" lon="2.07978">
        <ele>441.38</ele>
        <time>2018-04-07T11:46:18Z</time>
      </trkpt>
      <trkpt lat="43.36697" lon="2.07986">
        <ele>437.06</ele>
        <time>2018-04-07T11:46:25Z</time>
      </trkpt>
      <trkpt lat="43.36696" lon="2.07987">
        <ele>440.42</ele>
        <time>2018-04-07T11:46:26Z</time>
      </trkpt>
      <trkpt lat="43.36695" lon="2.07988">
        <ele>435.13</ele>
        <time>2018-04-07T11:46:27Z</time>
      </trkpt>
      <trkpt lat="43.36695" lon="2.07991">
        <ele>438.98</ele>
        <time>2018-04-07T11:46:29Z</time>
      </trkpt>
      <trkpt lat="43.36694" lon="2.07993">
        <ele>434.17</ele>
        <time>2018-04-07T11:46:31Z</time>
      </trkpt>
      <trkpt lat="43.36694" lon="2.07996">
        <ele>440.42</ele>
        <time>2018-04-07T11:46:33Z</time>
      </trkpt>
      <trkpt lat="43.36693" lon="2.07997">
        <ele>440.9</ele>
        <time>2018-04-07T11:46:34Z</time>
      </trkpt>
      <trkpt lat="43.36689" lon="2.08008">
        <ele>438.5</ele>
        <time>2018-04-07T11:46:43Z</time>
      </trkpt>
      <trkpt lat="43.36686" lon="2.08015">
        <ele>435.13</ele>
        <time>2018-04-07T11:46:49Z</time>
      </trkpt>
      <trkpt lat="43.36679" lon="2.08029">
        <ele>439.46</ele>
        <time>2018-04-07T11:46:58Z</time>
      </trkpt>
      <trkpt lat="43.36677" lon="2.08031">
        <ele>436.1</ele>
        <time>2018-04-07T11:47:00Z</time>
      </trkpt>
      <trkpt lat="43.36667" lon="2.08042">
        <ele>434.17</ele>
        <time>2018-04-07T11:47:10Z</time>
      </trkpt>
      <trkpt lat="43.36666" lon="2.08044">
        <ele>437.54</ele>
        <time>2018-04-07T11:47:12Z</time>
      </trkpt>
      <trkpt lat="43.36666" lon="2.08045">
        <ele>436.1</ele>
        <time>2018-04-07T11:47:13Z</time>
      </trkpt>
      <trkpt lat="43.36665" lon="2.08045">
        <ele>430.33</ele>
        <time>2018-04-07T11:47:14Z</time>
      </trkpt>
      <trkpt lat="43.36665" lon="2.08046">
        <ele>436.58</ele>
        <time>2018-04-07T11:47:15Z</time>
      </trkpt>
      <trkpt lat="43.36663" lon="2.0805">
        <ele>435.13</ele>
        <time>2018-04-07T11:47:18Z</time>
      </trkpt>
      <trkpt lat="43.3666" lon="2.08056">
        <ele>436.58</ele>
        <time>2018-04-07T11:47:23Z</time>
      </trkpt>
      <trkpt lat="43.36658" lon="2.08062">
        <ele>436.58</ele>
        <time>2018-04-07T11:47:27Z</time>
      </trkpt>
      <trkpt lat="43.36655" lon="2.08071">
        <ele>436.1</ele>
        <time>2018-04-07T11:47:33Z</time>
      </trkpt>
      <trkpt lat="43.36654" lon="2.08078">
        <ele>432.73</ele>
        <time>2018-04-07T11:47:38Z</time>
      </trkpt>
      <trkpt lat="43.36654" lon="2.08084">
        <ele>436.58</ele>
        <time>2018-04-07T11:47:42Z</time>
      </trkpt>
      <trkpt lat="43.36653" lon="2.0809">
        <ele>432.25</ele>
        <time>2018-04-07T11:47:47Z</time>
      </trkpt>
      <trkpt lat="43.36653" lon="2.08092">
        <ele>432.73</ele>
        <time>2018-04-07T11:47:48Z</time>
      </trkpt>
      <trkpt lat="43.36653" lon="2.08097">
        <ele>436.58</ele>
        <time>2018-04-07T11:47:51Z</time>
      </trkpt>
      <trkpt lat="43.36652" lon="2.08099">
        <ele>434.17</ele>
        <time>2018-04-07T11:47:53Z</time>
      </trkpt>
      <trkpt lat="43.36647" lon="2.08101">
        <ele>434.17</ele>
        <time>2018-04-07T11:47:58Z</time>
      </trkpt>
      <trkpt lat="43.36644" lon="2.08094">
        <ele>435.61</ele>
        <time>2018-04-07T11:48:04Z</time>
      </trkpt>
      <trkpt lat="43.36644" lon="2.08092">
        <ele>435.13</ele>
        <time>2018-04-07T11:48:05Z</time>
      </trkpt>
      <trkpt lat="43.36644" lon="2.08071">
        <ele>435.13</ele>
        <time>2018-04-07T11:48:20Z</time>
      </trkpt>
      <trkpt lat="43.36642" lon="2.08053">
        <ele>433.69</ele>
        <time>2018-04-07T11:48:32Z</time>
      </trkpt>
      <trkpt lat="43.36637" lon="2.08032">
        <ele>433.69</ele>
        <time>2018-04-07T11:48:47Z</time>
      </trkpt>
      <trkpt lat="43.36636" lon="2.08029">
        <ele>432.25</ele>
        <time>2018-04-07T11:48:50Z</time>
      </trkpt>
      <trkpt lat="43.36627" lon="2.08005">
        <ele>433.21</ele>
        <time>2018-04-07T11:49:08Z</time>
      </trkpt>
      <trkpt lat="43.36626" lon="2.08003">
        <ele>431.77</ele>
        <time>2018-04-07T11:49:10Z</time>
      </trkpt>
      <trkpt lat="43.36619" lon="2.07994">
        <ele>431.29</ele>
        <time>2018-04-07T11:49:19Z</time>
      </trkpt>
      <trkpt lat="43.36616" lon="2.07989">
        <ele>433.21</ele>
        <time>2018-04-07T11:49:23Z</time>
      </trkpt>
      <trkpt lat="43.36603" lon="2.07971">
        <ele>434.65</ele>
        <time>2018-04-07T11:49:40Z</time>
      </trkpt>
      <trkpt lat="43.366" lon="2.07967">
        <ele>431.29</ele>
        <time>2018-04-07T11:49:44Z</time>
      </trkpt>
      <trkpt lat="43.36599" lon="2.07965">
        <ele>432.25</ele>
        <time>2018-04-07T11:49:45Z</time>
      </trkpt>
      <trkpt lat="43.36598" lon="2.07963">
        <ele>434.17</ele>
        <time>2018-04-07T11:49:47Z</time>
      </trkpt>
      <trkpt lat="43.36582" lon="2.07943">
        <ele>434.17</ele>
        <time>2018-04-07T11:50:06Z</time>
      </trkpt>
      <trkpt lat="43.36581" lon="2.07942">
        <ele>434.65</ele>
        <time>2018-04-07T11:50:07Z</time>
      </trkpt>
      <trkpt lat="43.36569" lon="2.07926">
        <ele>435.13</ele>
        <time>2018-04-07T11:50:23Z</time>
      </trkpt>
      <trkpt lat="43.36566" lon="2.07923">
        <ele>435.61</ele>
        <time>2018-04-07T11:50:27Z</time>
      </trkpt>
      <trkpt lat="43.36564" lon="2.07919">
        <ele>434.65</ele>
        <time>2018-04-07T11:50:30Z</time>
      </trkpt>
      <trkpt lat="43.36562" lon="2.07917">
        <ele>436.1</ele>
        <time>2018-04-07T11:50:32Z</time>
      </trkpt>
      <trkpt lat="43.36561" lon="2.07915">
        <ele>435.61</ele>
        <time>2018-04-07T11:50:33Z</time>
      </trkpt>
      <trkpt lat="43.36554" lon="2.07906">
        <ele>437.54</ele>
        <time>2018-04-07T11:50:42Z</time>
      </trkpt>
      <trkpt lat="43.36553" lon="2.07904">
        <ele>438.5</ele>
        <time>2018-04-07T11:50:44Z</time>
      </trkpt>
      <trkpt lat="43.36545" lon="2.07894">
        <ele>436.58</ele>
        <time>2018-04-07T11:50:53Z</time>
      </trkpt>
      <trkpt lat="43.36535" lon="2.0788">
        <ele>437.54</ele>
        <time>2018-04-07T11:51:08Z</time>
      </trkpt>
      <trkpt lat="43.36519" lon="2.07859">
        <ele>437.06</ele>
        <time>2018-04-07T11:51:27Z</time>
      </trkpt>
      <trkpt lat="43.36513" lon="2.07852">
        <ele>437.06</ele>
        <time>2018-04-07T11:51:34Z</time>
      </trkpt>
      <trkpt lat="43.3651" lon="2.07848">
        <ele>434.65</ele>
        <time>2018-04-07T11:51:37Z</time>
      </trkpt>
      <trkpt lat="43.36505" lon="2.07841">
        <ele>438.02</ele>
        <time>2018-04-07T11:51:45Z</time>
      </trkpt>
      <trkpt lat="43.36504" lon="2.07841">
        <ele>436.1</ele>
        <time>2018-04-07T11:51:46Z</time>
      </trkpt>
      <trkpt lat="43.36502" lon="2.07838">
        <ele>434.17</ele>
        <time>2018-04-07T11:51:49Z</time>
      </trkpt>
      <trkpt lat="43.36492" lon="2.07823">
        <ele>435.13</ele>
        <time>2018-04-07T11:52:03Z</time>
      </trkpt>
      <trkpt lat="43.36481" lon="2.07803">
        <ele>432.25</ele>
        <time>2018-04-07T11:52:20Z</time>
      </trkpt>
      <trkpt lat="43.36471" lon="2.07783">
        <ele>431.77</ele>
        <time>2018-04-07T11:52:36Z</time>
      </trkpt>
      <trkpt lat="43.3646" lon="2.0776">
        <ele>430.81</ele>
        <time>2018-04-07T11:52:54Z</time>
      </trkpt>
      <trkpt lat="43.36459" lon="2.07756">
        <ele>430.81</ele>
        <time>2018-04-07T11:52:57Z</time>
      </trkpt>
      <trkpt lat="43.36452" lon="2.07741">
        <ele>427.92</ele>
        <time>2018-04-07T11:53:10Z</time>
      </trkpt>
      <trkpt lat="43.36441" lon="2.07732">
        <ele>425.04</ele>
        <time>2018-04-07T11:53:24Z</time>
      </trkpt>
      <trkpt lat="43.36436" lon="2.07728">
        <ele>426.48</ele>
        <time>2018-04-07T11:53:33Z</time>
      </trkpt>
      <trkpt lat="43.36433" lon="2.07726">
        <ele>423.12</ele>
        <time>2018-04-07T11:53:37Z</time>
      </trkpt>
      <trkpt lat="43.3643" lon="2.07722">
        <ele>421.68</ele>
        <time>2018-04-07T11:53:42Z</time>
      </trkpt>
      <trkpt lat="43.36428" lon="2.0772">
        <ele>423.12</ele>
        <time>2018-04-07T11:53:45Z</time>
      </trkpt>
      <trkpt lat="43.36423" lon="2.07712">
        <ele>422.16</ele>
        <time>2018-04-07T11:53:53Z</time>
      </trkpt>
      <trkpt lat="43.3642" lon="2.07708">
        <ele>422.16</ele>
        <time>2018-04-07T11:53:58Z</time>
      </trkpt>
      <trkpt lat="43.36417" lon="2.07704">
        <ele>422.64</ele>
        <time>2018-04-07T11:54:02Z</time>
      </trkpt>
      <trkpt lat="43.36412" lon="2.07698">
        <ele>422.16</ele>
        <time>2018-04-07T11:54:09Z</time>
      </trkpt>
      <trkpt lat="43.36408" lon="2.07694">
        <ele>420.71</ele>
        <time>2018-04-07T11:54:14Z</time>
      </trkpt>
      <trkpt lat="43.36402" lon="2.07687">
        <ele>420.23</ele>
        <time>2018-04-07T11:54:22Z</time>
      </trkpt>
      <trkpt lat="43.36399" lon="2.07684">
        <ele>418.31</ele>
        <time>2018-04-07T11:54:26Z</time>
      </trkpt>
      <trkpt lat="43.36392" lon="2.07674">
        <ele>418.31</ele>
        <time>2018-04-07T11:54:37Z</time>
      </trkpt>
      <trkpt lat="43.36387" lon="2.07659">
        <ele>418.79</ele>
        <time>2018-04-07T11:54:51Z</time>
      </trkpt>
      <trkpt lat="43.36384" lon="2.0764">
        <ele>418.31</ele>
        <time>2018-04-07T11:55:06Z</time>
      </trkpt>
      <trkpt lat="43.36381" lon="2.07628">
        <ele>416.39</ele>
        <time>2018-04-07T11:55:17Z</time>
      </trkpt>
      <trkpt lat="43.36377" lon="2.07607">
        <ele>415.91</ele>
        <time>2018-04-07T11:55:33Z</time>
      </trkpt>
      <trkpt lat="43.36368" lon="2.07582">
        <ele>414.47</ele>
        <time>2018-04-07T11:56:01Z</time>
      </trkpt>
      <trkpt lat="43.36364" lon="2.07577">
        <ele>411.1</ele>
        <time>2018-04-07T11:56:07Z</time>
      </trkpt>
      <trkpt lat="43.36363" lon="2.0757">
        <ele>411.58</ele>
        <time>2018-04-07T11:56:14Z</time>
      </trkpt>
      <trkpt lat="43.36362" lon="2.07568">
        <ele>410.62</ele>
        <time>2018-04-07T11:56:16Z</time>
      </trkpt>
      <trkpt lat="43.36358" lon="2.07561">
        <ele>411.1</ele>
        <time>2018-04-07T11:56:23Z</time>
      </trkpt>
      <trkpt lat="43.3635" lon="2.07554">
        <ele>407.74</ele>
        <time>2018-04-07T11:56:36Z</time>
      </trkpt>
      <trkpt lat="43.36347" lon="2.07551">
        <ele>404.37</ele>
        <time>2018-04-07T11:56:41Z</time>
      </trkpt>
      <trkpt lat="43.36345" lon="2.07551">
        <ele>402.93</ele>
        <time>2018-04-07T11:56:43Z</time>
      </trkpt>
      <trkpt lat="43.36343" lon="2.0755">
        <ele>398.6</ele>
        <time>2018-04-07T11:56:46Z</time>
      </trkpt>
      <trkpt lat="43.36342" lon="2.0755">
        <ele>399.08</ele>
        <time>2018-04-07T11:56:47Z</time>
      </trkpt>
      <trkpt lat="43.36339" lon="2.0755">
        <ele>401.01</ele>
        <time>2018-04-07T11:56:50Z</time>
      </trkpt>
      <trkpt lat="43.3633" lon="2.07547">
        <ele>397.64</ele>
        <time>2018-04-07T11:57:01Z</time>
      </trkpt>
      <trkpt lat="43.36329" lon="2.07546">
        <ele>400.05</ele>
        <time>2018-04-07T11:57:02Z</time>
      </trkpt>
      <trkpt lat="43.36318" lon="2.07543">
        <ele>398.12</ele>
        <time>2018-04-07T11:57:14Z</time>
      </trkpt>
      <trkpt lat="43.36314" lon="2.07542">
        <ele>401.97</ele>
        <time>2018-04-07T11:57:19Z</time>
      </trkpt>
      <trkpt lat="43.36311" lon="2.0754">
        <ele>398.6</ele>
        <time>2018-04-07T11:57:23Z</time>
      </trkpt>
      <trkpt lat="43.3631" lon="2.07539">
        <ele>398.12</ele>
        <time>2018-04-07T11:57:24Z</time>
      </trkpt>
      <trkpt lat="43.36308" lon="2.07539">
        <ele>396.68</ele>
        <time>2018-04-07T11:57:27Z</time>
      </trkpt>
      <trkpt lat="43.36297" lon="2.07534">
        <ele>395.24</ele>
        <time>2018-04-07T11:57:40Z</time>
      </trkpt>
      <trkpt lat="43.36285" lon="2.0753">
        <ele>395.72</ele>
        <time>2018-04-07T11:57:54Z</time>
      </trkpt>
      <trkpt lat="43.36281" lon="2.07527">
        <ele>396.68</ele>
        <time>2018-04-07T11:57:59Z</time>
      </trkpt>
      <trkpt lat="43.36272" lon="2.07524">
        <ele>397.16</ele>
        <time>2018-04-07T11:58:08Z</time>
      </trkpt>
      <trkpt lat="43.36259" lon="2.07518">
        <ele>393.8</ele>
        <time>2018-04-07T11:58:22Z</time>
      </trkpt>
      <trkpt lat="43.36252" lon="2.07516">
        <ele>391.87</ele>
        <time>2018-04-07T11:58:29Z</time>
      </trkpt>
      <trkpt lat="43.36249" lon="2.07515">
        <ele>391.39</ele>
        <time>2018-04-07T11:58:33Z</time>
      </trkpt>
      <trkpt lat="43.36233" lon="2.07509">
        <ele>391.87</ele>
        <time>2018-04-07T11:58:50Z</time>
      </trkpt>
      <trkpt lat="43.36232" lon="2.07509">
        <ele>391.87</ele>
        <time>2018-04-07T11:58:51Z</time>
      </trkpt>
      <trkpt lat="43.36227" lon="2.07506">
        <ele>388.03</ele>
        <time>2018-04-07T11:58:57Z</time>
      </trkpt>
      <trkpt lat="43.36226" lon="2.07506">
        <ele>387.07</ele>
        <time>2018-04-07T11:58:58Z</time>
      </trkpt>
      <trkpt lat="43.3621" lon="2.075">
        <ele>387.55</ele>
        <time>2018-04-07T11:59:15Z</time>
      </trkpt>
      <trkpt lat="43.36204" lon="2.07499">
        <ele>383.7</ele>
        <time>2018-04-07T11:59:21Z</time>
      </trkpt>
      <trkpt lat="43.362" lon="2.07497">
        <ele>384.18</ele>
        <time>2018-04-07T11:59:25Z</time>
      </trkpt>
      <trkpt lat="43.36188" lon="2.07492">
        <ele>383.22</ele>
        <time>2018-04-07T11:59:38Z</time>
      </trkpt>
      <trkpt lat="43.36187" lon="2.07492">
        <ele>383.22</ele>
        <time>2018-04-07T11:59:39Z</time>
      </trkpt>
      <trkpt lat="43.36176" lon="2.07488">
        <ele>383.7</ele>
        <time>2018-04-07T11:59:50Z</time>
      </trkpt>
      <trkpt lat="43.36173" lon="2.07487">
        <ele>384.66</ele>
        <time>2018-04-07T11:59:53Z</time>
      </trkpt>
      <trkpt lat="43.36159" lon="2.07481">
        <ele>380.82</ele>
        <time>2018-04-07T12:00:10Z</time>
      </trkpt>
      <trkpt lat="43.36158" lon="2.07481">
        <ele>380.82</ele>
        <time>2018-04-07T12:00:11Z</time>
      </trkpt>
      <trkpt lat="43.36146" lon="2.07477">
        <ele>381.78</ele>
        <time>2018-04-07T12:00:23Z</time>
      </trkpt>
      <trkpt lat="43.36144" lon="2.07476">
        <ele>378.42</ele>
        <time>2018-04-07T12:00:26Z</time>
      </trkpt>
      <trkpt lat="43.36143" lon="2.07476">
        <ele>379.38</ele>
        <time>2018-04-07T12:00:27Z</time>
      </trkpt>
      <trkpt lat="43.3613" lon="2.07472">
        <ele>380.82</ele>
        <time>2018-04-07T12:00:42Z</time>
      </trkpt>
      <trkpt lat="43.36126" lon="2.0747">
        <ele>382.74</ele>
        <time>2018-04-07T12:00:46Z</time>
      </trkpt>
      <trkpt lat="43.36117" lon="2.07467">
        <ele>379.38</ele>
        <time>2018-04-07T12:00:55Z</time>
      </trkpt>
      <trkpt lat="43.36104" lon="2.07464">
        <ele>375.53</ele>
        <time>2018-04-07T12:01:09Z</time>
      </trkpt>
      <trkpt lat="43.36103" lon="2.07464">
        <ele>376.49</ele>
        <time>2018-04-07T12:01:10Z</time>
      </trkpt>
      <trkpt lat="43.36094" lon="2.0746">
        <ele>377.45</ele>
        <time>2018-04-07T12:01:19Z</time>
      </trkpt>
      <trkpt lat="43.36079" lon="2.07454">
        <ele>375.53</ele>
        <time>2018-04-07T12:01:34Z</time>
      </trkpt>
      <trkpt lat="43.36069" lon="2.07451">
        <ele>376.49</ele>
        <time>2018-04-07T12:01:44Z</time>
      </trkpt>
      <trkpt lat="43.36065" lon="2.07448">
        <ele>379.38</ele>
        <time>2018-04-07T12:01:48Z</time>
      </trkpt>
      <trkpt lat="43.36064" lon="2.07448">
        <ele>376.01</ele>
        <time>2018-04-07T12:01:49Z</time>
      </trkpt>
      <trkpt lat="43.36062" lon="2.07448">
        <ele>378.9</ele>
        <time>2018-04-07T12:01:51Z</time>
      </trkpt>
      <trkpt lat="43.36061" lon="2.07447">
        <ele>377.45</ele>
        <time>2018-04-07T12:01:52Z</time>
      </trkpt>
      <trkpt lat="43.3605" lon="2.07443">
        <ele>380.34</ele>
        <time>2018-04-07T12:02:02Z</time>
      </trkpt>
      <trkpt lat="43.36048" lon="2.07442">
        <ele>376.97</ele>
        <time>2018-04-07T12:02:05Z</time>
      </trkpt>
      <trkpt lat="43.36047" lon="2.07441">
        <ele>377.45</ele>
        <time>2018-04-07T12:02:06Z</time>
      </trkpt>
      <trkpt lat="43.36044" lon="2.0744">
        <ele>376.49</ele>
        <time>2018-04-07T12:02:09Z</time>
      </trkpt>
      <trkpt lat="43.36037" lon="2.07437">
        <ele>376.01</ele>
        <time>2018-04-07T12:02:16Z</time>
      </trkpt>
      <trkpt lat="43.36036" lon="2.07437">
        <ele>376.01</ele>
        <time>2018-04-07T12:02:17Z</time>
      </trkpt>
      <trkpt lat="43.36022" lon="2.07432">
        <ele>374.09</ele>
        <time>2018-04-07T12:02:33Z</time>
      </trkpt>
      <trkpt lat="43.36017" lon="2.0743">
        <ele>371.69</ele>
        <time>2018-04-07T12:02:39Z</time>
      </trkpt>
      <trkpt lat="43.36006" lon="2.07427">
        <ele>373.61</ele>
        <time>2018-04-07T12:02:51Z</time>
      </trkpt>
      <trkpt lat="43.36004" lon="2.07427">
        <ele>372.65</ele>
        <time>2018-04-07T12:02:53Z</time>
      </trkpt>
      <trkpt lat="43.36001" lon="2.07425">
        <ele>375.53</ele>
        <time>2018-04-07T12:02:57Z</time>
      </trkpt>
      <trkpt lat="43.35995" lon="2.07422">
        <ele>372.17</ele>
        <time>2018-04-07T12:03:03Z</time>
      </trkpt>
      <trkpt lat="43.35993" lon="2.07422">
        <ele>370.73</ele>
        <time>2018-04-07T12:03:05Z</time>
      </trkpt>
      <trkpt lat="43.35981" lon="2.07418">
        <ele>367.36</ele>
        <time>2018-04-07T12:03:17Z</time>
      </trkpt>
      <trkpt lat="43.3598" lon="2.07418">
        <ele>367.84</ele>
        <time>2018-04-07T12:03:18Z</time>
      </trkpt>
      <trkpt lat="43.35971" lon="2.07416">
        <ele>369.76</ele>
        <time>2018-04-07T12:03:30Z</time>
      </trkpt>
      <trkpt lat="43.35953" lon="2.07407">
        <ele>367.36</ele>
        <time>2018-04-07T12:03:47Z</time>
      </trkpt>
      <trkpt lat="43.3595" lon="2.07406">
        <ele>368.8</ele>
        <time>2018-04-07T12:03:51Z</time>
      </trkpt>
      <trkpt lat="43.3594" lon="2.07403">
        <ele>362.55</ele>
        <time>2018-04-07T12:04:01Z</time>
      </trkpt>
      <trkpt lat="43.35939" lon="2.07402">
        <ele>362.07</ele>
        <time>2018-04-07T12:04:02Z</time>
      </trkpt>
      <trkpt lat="43.35937" lon="2.07402">
        <ele>365.92</ele>
        <time>2018-04-07T12:04:04Z</time>
      </trkpt>
      <trkpt lat="43.35933" lon="2.07399">
        <ele>364</ele>
        <time>2018-04-07T12:04:08Z</time>
      </trkpt>
      <trkpt lat="43.3593" lon="2.07399">
        <ele>362.07</ele>
        <time>2018-04-07T12:04:11Z</time>
      </trkpt>
      <trkpt lat="43.35925" lon="2.07398">
        <ele>365.44</ele>
        <time>2018-04-07T12:04:16Z</time>
      </trkpt>
      <trkpt lat="43.35919" lon="2.07395">
        <ele>364</ele>
        <time>2018-04-07T12:04:22Z</time>
      </trkpt>
      <trkpt lat="43.3591" lon="2.07392">
        <ele>363.04</ele>
        <time>2018-04-07T12:04:31Z</time>
      </trkpt>
      <trkpt lat="43.35899" lon="2.07388">
        <ele>363.04</ele>
        <time>2018-04-07T12:04:42Z</time>
      </trkpt>
      <trkpt lat="43.35895" lon="2.07385">
        <ele>361.11</ele>
        <time>2018-04-07T12:04:47Z</time>
      </trkpt>
      <trkpt lat="43.35881" lon="2.07381">
        <ele>357.27</ele>
        <time>2018-04-07T12:05:02Z</time>
      </trkpt>
      <trkpt lat="43.35865" lon="2.07374">
        <ele>357.75</ele>
        <time>2018-04-07T12:05:18Z</time>
      </trkpt>
      <trkpt lat="43.35861" lon="2.07374">
        <ele>354.38</ele>
        <time>2018-04-07T12:05:23Z</time>
      </trkpt>
      <trkpt lat="43.35851" lon="2.0737">
        <ele>351.98</ele>
        <time>2018-04-07T12:05:33Z</time>
      </trkpt>
      <trkpt lat="43.35847" lon="2.07368">
        <ele>351.02</ele>
        <time>2018-04-07T12:05:37Z</time>
      </trkpt>
      <trkpt lat="43.3584" lon="2.07366">
        <ele>352.46</ele>
        <time>2018-04-07T12:05:44Z</time>
      </trkpt>
      <trkpt lat="43.35838" lon="2.07365">
        <ele>352.94</ele>
        <time>2018-04-07T12:05:46Z</time>
      </trkpt>
      <trkpt lat="43.3583" lon="2.07363">
        <ele>351.5</ele>
        <time>2018-04-07T12:05:54Z</time>
      </trkpt>
      <trkpt lat="43.35812" lon="2.07356">
        <ele>353.9</ele>
        <time>2018-04-07T12:06:13Z</time>
      </trkpt>
      <trkpt lat="43.35811" lon="2.07356">
        <ele>353.9</ele>
        <time>2018-04-07T12:06:14Z</time>
      </trkpt>
      <trkpt lat="43.35808" lon="2.07355">
        <ele>351.5</ele>
        <time>2018-04-07T12:06:17Z</time>
      </trkpt>
      <trkpt lat="43.35803" lon="2.07354">
        <ele>350.06</ele>
        <time>2018-04-07T12:06:21Z</time>
      </trkpt>
      <trkpt lat="43.35795" lon="2.07351">
        <ele>347.17</ele>
        <time>2018-04-07T12:06:29Z</time>
      </trkpt>
      <trkpt lat="43.35791" lon="2.07348">
        <ele>348.62</ele>
        <time>2018-04-07T12:06:34Z</time>
      </trkpt>
      <trkpt lat="43.3579" lon="2.07348">
        <ele>345.25</ele>
        <time>2018-04-07T12:06:36Z</time>
      </trkpt>
      <trkpt lat="43.35786" lon="2.07347">
        <ele>349.58</ele>
        <time>2018-04-07T12:06:39Z</time>
      </trkpt>
      <trkpt lat="43.35781" lon="2.07343">
        <ele>350.06</ele>
        <time>2018-04-07T12:06:45Z</time>
      </trkpt>
      <trkpt lat="43.35778" lon="2.07341">
        <ele>350.54</ele>
        <time>2018-04-07T12:06:48Z</time>
      </trkpt>
      <trkpt lat="43.35773" lon="2.0733">
        <ele>351.98</ele>
        <time>2018-04-07T12:06:58Z</time>
      </trkpt>
      <trkpt lat="43.35756" lon="2.07324">
        <ele>350.06</ele>
        <time>2018-04-07T12:07:15Z</time>
      </trkpt>
      <trkpt lat="43.35754" lon="2.07324">
        <ele>346.69</ele>
        <time>2018-04-07T12:07:17Z</time>
      </trkpt>
      <trkpt lat="43.35754" lon="2.07324">
        <ele>350.06</ele>
        <time>2018-04-07T12:07:18Z</time>
      </trkpt>
      <trkpt lat="43.35748" lon="2.07322">
        <ele>347.17</ele>
        <time>2018-04-07T12:07:23Z</time>
      </trkpt>
      <trkpt lat="43.35747" lon="2.07321">
        <ele>351.98</ele>
        <time>2018-04-07T12:07:25Z</time>
      </trkpt>
      <trkpt lat="43.35746" lon="2.07321">
        <ele>351.02</ele>
        <time>2018-04-07T12:07:26Z</time>
      </trkpt>
      <trkpt lat="43.35745" lon="2.0732">
        <ele>345.73</ele>
        <time>2018-04-07T12:07:27Z</time>
      </trkpt>
      <trkpt lat="43.35744" lon="2.0732">
        <ele>348.13</ele>
        <time>2018-04-07T12:07:28Z</time>
      </trkpt>
      <trkpt lat="43.35739" lon="2.07318">
        <ele>350.06</ele>
        <time>2018-04-07T12:07:33Z</time>
      </trkpt>
      <trkpt lat="43.35737" lon="2.07318">
        <ele>346.69</ele>
        <time>2018-04-07T12:07:35Z</time>
      </trkpt>
      <trkpt lat="43.35734" lon="2.07316">
        <ele>347.65</ele>
        <time>2018-04-07T12:07:39Z</time>
      </trkpt>
      <trkpt lat="43.35732" lon="2.07316">
        <ele>349.1</ele>
        <time>2018-04-07T12:07:41Z</time>
      </trkpt>
      <trkpt lat="43.35723" lon="2.07313">
        <ele>345.73</ele>
        <time>2018-04-07T12:07:51Z</time>
      </trkpt>
      <trkpt lat="43.35719" lon="2.07311">
        <ele>349.58</ele>
        <time>2018-04-07T12:07:55Z</time>
      </trkpt>
      <trkpt lat="43.35718" lon="2.0731">
        <ele>349.1</ele>
        <time>2018-04-07T12:07:56Z</time>
      </trkpt>
      <trkpt lat="43.35713" lon="2.07308">
        <ele>344.77</ele>
        <time>2018-04-07T12:08:01Z</time>
      </trkpt>
      <trkpt lat="43.35711" lon="2.07306">
        <ele>347.65</ele>
        <time>2018-04-07T12:08:04Z</time>
      </trkpt>
      <trkpt lat="43.35708" lon="2.07306">
        <ele>346.21</ele>
        <time>2018-04-07T12:08:06Z</time>
      </trkpt>
      <trkpt lat="43.35694" lon="2.073">
        <ele>343.81</ele>
        <time>2018-04-07T12:08:22Z</time>
      </trkpt>
      <trkpt lat="43.35693" lon="2.073">
        <ele>342.37</ele>
        <time>2018-04-07T12:08:27Z</time>
      </trkpt>
      <trkpt lat="43.35691" lon="2.07298">
        <ele>346.21</ele>
        <time>2018-04-07T12:08:31Z</time>
      </trkpt>
      <trkpt lat="43.35692" lon="2.07298">
        <ele>345.25</ele>
        <time>2018-04-07T12:08:32Z</time>
      </trkpt>
      <trkpt lat="43.35692" lon="2.07298">
        <ele>342.37</ele>
        <time>2018-04-07T12:08:33Z</time>
      </trkpt>
      <trkpt lat="43.35691" lon="2.07299">
        <ele>341.41</ele>
        <time>2018-04-07T12:08:35Z</time>
      </trkpt>
      <trkpt lat="43.35691" lon="2.07299">
        <ele>344.29</ele>
        <time>2018-04-07T12:08:37Z</time>
      </trkpt>
      <trkpt lat="43.35691" lon="2.07299">
        <ele>343.33</ele>
        <time>2018-04-07T12:08:38Z</time>
      </trkpt>
      <trkpt lat="43.35689" lon="2.07296">
        <ele>338.52</ele>
        <time>2018-04-07T12:08:45Z</time>
      </trkpt>
      <trkpt lat="43.35689" lon="2.07296">
        <ele>334.2</ele>
        <time>2018-04-07T12:08:46Z</time>
      </trkpt>
      <trkpt lat="43.35689" lon="2.07297">
        <ele>335.16</ele>
        <time>2018-04-07T12:08:47Z</time>
      </trkpt>
      <trkpt lat="43.35689" lon="2.07296">
        <ele>339.48</ele>
        <time>2018-04-07T12:08:54Z</time>
      </trkpt>
      <trkpt lat="43.35688" lon="2.07297">
        <ele>340.92</ele>
        <time>2018-04-07T12:08:56Z</time>
      </trkpt>
      <trkpt lat="43.35688" lon="2.07297">
        <ele>339.48</ele>
        <time>2018-04-07T12:08:59Z</time>
      </trkpt>
      <trkpt lat="43.35687" lon="2.07297">
        <ele>341.41</ele>
        <time>2018-04-07T12:09:04Z</time>
      </trkpt>
      <trkpt lat="43.35682" lon="2.07295">
        <ele>345.25</ele>
        <time>2018-04-07T12:09:11Z</time>
      </trkpt>
      <trkpt lat="43.3568" lon="2.07294">
        <ele>341.41</ele>
        <time>2018-04-07T12:09:13Z</time>
      </trkpt>
      <trkpt lat="43.35679" lon="2.07293">
        <ele>340.92</ele>
        <time>2018-04-07T12:09:14Z</time>
      </trkpt>
      <trkpt lat="43.35677" lon="2.07293">
        <ele>337.56</ele>
        <time>2018-04-07T12:09:17Z</time>
      </trkpt>
      <trkpt lat="43.35676" lon="2.07292">
        <ele>343.81</ele>
        <time>2018-04-07T12:09:18Z</time>
      </trkpt>
      <trkpt lat="43.35675" lon="2.07292">
        <ele>343.33</ele>
        <time>2018-04-07T12:09:19Z</time>
      </trkpt>
      <trkpt lat="43.35673" lon="2.07291">
        <ele>346.21</ele>
        <time>2018-04-07T12:09:21Z</time>
      </trkpt>
      <trkpt lat="43.35672" lon="2.07291">
        <ele>343.33</ele>
        <time>2018-04-07T12:09:22Z</time>
      </trkpt>
      <trkpt lat="43.35662" lon="2.07291">
        <ele>340.92</ele>
        <time>2018-04-07T12:09:32Z</time>
      </trkpt>
      <trkpt lat="43.35657" lon="2.07291">
        <ele>339.96</ele>
        <time>2018-04-07T12:09:38Z</time>
      </trkpt>
      <trkpt lat="43.35649" lon="2.07285">
        <ele>336.6</ele>
        <time>2018-04-07T12:09:47Z</time>
      </trkpt>
      <trkpt lat="43.35641" lon="2.07273">
        <ele>338.52</ele>
        <time>2018-04-07T12:10:00Z</time>
      </trkpt>
      <trkpt lat="43.35638" lon="2.07261">
        <ele>338.04</ele>
        <time>2018-04-07T12:10:09Z</time>
      </trkpt>
      <trkpt lat="43.35636" lon="2.07246">
        <ele>338.04</ele>
        <time>2018-04-07T12:10:21Z</time>
      </trkpt>
      <trkpt lat="43.35637" lon="2.07237">
        <ele>336.12</ele>
        <time>2018-04-07T12:10:27Z</time>
      </trkpt>
      <trkpt lat="43.35638" lon="2.07228">
        <ele>336.6</ele>
        <time>2018-04-07T12:10:34Z</time>
      </trkpt>
      <trkpt lat="43.3564" lon="2.0722">
        <ele>336.6</ele>
        <time>2018-04-07T12:10:39Z</time>
      </trkpt>
      <trkpt lat="43.35641" lon="2.07216">
        <ele>338.04</ele>
        <time>2018-04-07T12:10:42Z</time>
      </trkpt>
      <trkpt lat="43.35649" lon="2.07193">
        <ele>336.6</ele>
        <time>2018-04-07T12:10:55Z</time>
      </trkpt>
      <trkpt lat="43.3565" lon="2.07188">
        <ele>335.16</ele>
        <time>2018-04-07T12:11:02Z</time>
      </trkpt>
      <trkpt lat="43.35652" lon="2.07185">
        <ele>334.68</ele>
        <time>2018-04-07T12:11:05Z</time>
      </trkpt>
      <trkpt lat="43.35658" lon="2.07159">
        <ele>334.68</ele>
        <time>2018-04-07T12:11:23Z</time>
      </trkpt>
      <trkpt lat="43.35665" lon="2.07136">
        <ele>333.23</ele>
        <time>2018-04-07T12:11:40Z</time>
      </trkpt>
      <trkpt lat="43.35671" lon="2.07115">
        <ele>331.79</ele>
        <time>2018-04-07T12:11:55Z</time>
      </trkpt>
      <trkpt lat="43.35676" lon="2.07093">
        <ele>331.79</ele>
        <time>2018-04-07T12:12:11Z</time>
      </trkpt>
      <trkpt lat="43.35677" lon="2.07088">
        <ele>329.87</ele>
        <time>2018-04-07T12:12:15Z</time>
      </trkpt>
      <trkpt lat="43.35678" lon="2.07083">
        <ele>330.83</ele>
        <time>2018-04-07T12:12:18Z</time>
      </trkpt>
      <trkpt lat="43.35678" lon="2.07063">
        <ele>332.27</ele>
        <time>2018-04-07T12:12:32Z</time>
      </trkpt>
      <trkpt lat="43.35673" lon="2.07056">
        <ele>329.39</ele>
        <time>2018-04-07T12:12:39Z</time>
      </trkpt>
      <trkpt lat="43.35658" lon="2.07047">
        <ele>327.47</ele>
        <time>2018-04-07T12:12:54Z</time>
      </trkpt>
      <trkpt lat="43.35651" lon="2.07043">
        <ele>324.1</ele>
        <time>2018-04-07T12:13:01Z</time>
      </trkpt>
      <trkpt lat="43.35637" lon="2.07035">
        <ele>324.58</ele>
        <time>2018-04-07T12:13:14Z</time>
      </trkpt>
      <trkpt lat="43.35636" lon="2.07035">
        <ele>324.58</ele>
        <time>2018-04-07T12:13:15Z</time>
      </trkpt>
      <trkpt lat="43.35632" lon="2.07032">
        <ele>327.95</ele>
        <time>2018-04-07T12:13:19Z</time>
      </trkpt>
      <trkpt lat="43.35629" lon="2.07031">
        <ele>322.66</ele>
        <time>2018-04-07T12:13:22Z</time>
      </trkpt>
      <trkpt lat="43.35628" lon="2.0703">
        <ele>324.1</ele>
        <time>2018-04-07T12:13:23Z</time>
      </trkpt>
      <trkpt lat="43.35626" lon="2.07029">
        <ele>324.58</ele>
        <time>2018-04-07T12:13:25Z</time>
      </trkpt>
      <trkpt lat="43.35621" lon="2.07026">
        <ele>322.66</ele>
        <time>2018-04-07T12:13:30Z</time>
      </trkpt>
      <trkpt lat="43.35616" lon="2.07024">
        <ele>322.66</ele>
        <time>2018-04-07T12:13:35Z</time>
      </trkpt>
      <trkpt lat="43.35605" lon="2.07015">
        <ele>320.74</ele>
        <time>2018-04-07T12:13:47Z</time>
      </trkpt>
      <trkpt lat="43.35603" lon="2.07014">
        <ele>321.22</ele>
        <time>2018-04-07T12:13:49Z</time>
      </trkpt>
      <trkpt lat="43.35601" lon="2.07012">
        <ele>325.06</ele>
        <time>2018-04-07T12:13:51Z</time>
      </trkpt>
      <trkpt lat="43.356" lon="2.07011">
        <ele>323.62</ele>
        <time>2018-04-07T12:13:52Z</time>
      </trkpt>
      <trkpt lat="43.35599" lon="2.07011">
        <ele>319.78</ele>
        <time>2018-04-07T12:13:53Z</time>
      </trkpt>
      <trkpt lat="43.35598" lon="2.0701">
        <ele>322.18</ele>
        <time>2018-04-07T12:13:54Z</time>
      </trkpt>
      <trkpt lat="43.35591" lon="2.07005">
        <ele>319.3</ele>
        <time>2018-04-07T12:14:01Z</time>
      </trkpt>
      <trkpt lat="43.35575" lon="2.06995">
        <ele>319.78</ele>
        <time>2018-04-07T12:14:17Z</time>
      </trkpt>
      <trkpt lat="43.35573" lon="2.06994">
        <ele>320.74</ele>
        <time>2018-04-07T12:14:19Z</time>
      </trkpt>
      <trkpt lat="43.35568" lon="2.0699">
        <ele>321.7</ele>
        <time>2018-04-07T12:14:23Z</time>
      </trkpt>
      <trkpt lat="43.35567" lon="2.0699">
        <ele>319.78</ele>
        <time>2018-04-07T12:14:25Z</time>
      </trkpt>
      <trkpt lat="43.35561" lon="2.06986">
        <ele>316.41</ele>
        <time>2018-04-07T12:14:31Z</time>
      </trkpt>
      <trkpt lat="43.3556" lon="2.06986">
        <ele>316.41</ele>
        <time>2018-04-07T12:14:32Z</time>
      </trkpt>
      <trkpt lat="43.35552" lon="2.0698">
        <ele>316.41</ele>
        <time>2018-04-07T12:14:40Z</time>
      </trkpt>
      <trkpt lat="43.35546" lon="2.06977">
        <ele>316.89</ele>
        <time>2018-04-07T12:14:45Z</time>
      </trkpt>
      <trkpt lat="43.35535" lon="2.0697">
        <ele>314.49</ele>
        <time>2018-04-07T12:14:57Z</time>
      </trkpt>
      <trkpt lat="43.35533" lon="2.06969">
        <ele>314.49</ele>
        <time>2018-04-07T12:14:58Z</time>
      </trkpt>
      <trkpt lat="43.3553" lon="2.06967">
        <ele>311.12</ele>
        <time>2018-04-07T12:15:01Z</time>
      </trkpt>
      <trkpt lat="43.35515" lon="2.06957">
        <ele>311.12</ele>
        <time>2018-04-07T12:15:16Z</time>
      </trkpt>
      <trkpt lat="43.35497" lon="2.06946">
        <ele>312.09</ele>
        <time>2018-04-07T12:15:33Z</time>
      </trkpt>
      <trkpt lat="43.35492" lon="2.06943">
        <ele>309.68</ele>
        <time>2018-04-07T12:15:38Z</time>
      </trkpt>
      <trkpt lat="43.35477" lon="2.06932">
        <ele>308.24</ele>
        <time>2018-04-07T12:15:52Z</time>
      </trkpt>
      <trkpt lat="43.35462" lon="2.06923">
        <ele>307.28</ele>
        <time>2018-04-07T12:16:07Z</time>
      </trkpt>
      <trkpt lat="43.35458" lon="2.06921">
        <ele>301.99</ele>
        <time>2018-04-07T12:16:11Z</time>
      </trkpt>
      <trkpt lat="43.35457" lon="2.06921">
        <ele>304.39</ele>
        <time>2018-04-07T12:16:12Z</time>
      </trkpt>
      <trkpt lat="43.35456" lon="2.0692">
        <ele>308.24</ele>
        <time>2018-04-07T12:16:13Z</time>
      </trkpt>
      <trkpt lat="43.35455" lon="2.06919">
        <ele>308.24</ele>
        <time>2018-04-07T12:16:14Z</time>
      </trkpt>
      <trkpt lat="43.35452" lon="2.06917">
        <ele>305.36</ele>
        <time>2018-04-07T12:16:17Z</time>
      </trkpt>
      <trkpt lat="43.3545" lon="2.06916">
        <ele>308.72</ele>
        <time>2018-04-07T12:16:19Z</time>
      </trkpt>
      <trkpt lat="43.35448" lon="2.06915">
        <ele>305.36</ele>
        <time>2018-04-07T12:16:21Z</time>
      </trkpt>
      <trkpt lat="43.35448" lon="2.06914">
        <ele>305.84</ele>
        <time>2018-04-07T12:16:22Z</time>
      </trkpt>
      <trkpt lat="43.35446" lon="2.06913">
        <ele>304.39</ele>
        <time>2018-04-07T12:16:24Z</time>
      </trkpt>
      <trkpt lat="43.35441" lon="2.06911">
        <ele>301.51</ele>
        <time>2018-04-07T12:16:28Z</time>
      </trkpt>
      <trkpt lat="43.35439" lon="2.0691">
        <ele>299.59</ele>
        <time>2018-04-07T12:16:30Z</time>
      </trkpt>
      <trkpt lat="43.35435" lon="2.06908">
        <ele>302.47</ele>
        <time>2018-04-07T12:16:34Z</time>
      </trkpt>
      <trkpt lat="43.35429" lon="2.06904">
        <ele>299.59</ele>
        <time>2018-04-07T12:16:40Z</time>
      </trkpt>
      <trkpt lat="43.35425" lon="2.069">
        <ele>307.28</ele>
        <time>2018-04-07T12:16:44Z</time>
      </trkpt>
      <trkpt lat="43.35424" lon="2.06899">
        <ele>306.32</ele>
        <time>2018-04-07T12:16:45Z</time>
      </trkpt>
      <trkpt lat="43.35423" lon="2.06897">
        <ele>305.84</ele>
        <time>2018-04-07T12:16:47Z</time>
      </trkpt>
      <trkpt lat="43.35419" lon="2.06892">
        <ele>304.39</ele>
        <time>2018-04-07T12:16:51Z</time>
      </trkpt>
      <trkpt lat="43.35417" lon="2.06887">
        <ele>306.32</ele>
        <time>2018-04-07T12:16:55Z</time>
      </trkpt>
      <trkpt lat="43.35415" lon="2.0688">
        <ele>305.84</ele>
        <time>2018-04-07T12:16:59Z</time>
      </trkpt>
      <trkpt lat="43.35415" lon="2.06856">
        <ele>304.88</ele>
        <time>2018-04-07T12:17:14Z</time>
      </trkpt>
      <trkpt lat="43.35415" lon="2.06842">
        <ele>304.88</ele>
        <time>2018-04-07T12:17:23Z</time>
      </trkpt>
      <trkpt lat="43.35416" lon="2.0683">
        <ele>306.32</ele>
        <time>2018-04-07T12:17:31Z</time>
      </trkpt>
      <trkpt lat="43.35416" lon="2.06828">
        <ele>303.91</ele>
        <time>2018-04-07T12:17:33Z</time>
      </trkpt>
      <trkpt lat="43.35418" lon="2.06814">
        <ele>302.95</ele>
        <time>2018-04-07T12:17:42Z</time>
      </trkpt>
      <trkpt lat="43.35415" lon="2.06808">
        <ele>302.47</ele>
        <time>2018-04-07T12:17:47Z</time>
      </trkpt>
      <trkpt lat="43.35408" lon="2.06802">
        <ele>302.47</ele>
        <time>2018-04-07T12:17:54Z</time>
      </trkpt>
      <trkpt lat="43.354" lon="2.06801">
        <ele>296.7</ele>
        <time>2018-04-07T12:18:01Z</time>
      </trkpt>
      <trkpt lat="43.35399" lon="2.06801">
        <ele>301.51</ele>
        <time>2018-04-07T12:18:02Z</time>
      </trkpt>
      <trkpt lat="43.35398" lon="2.06801">
        <ele>298.63</ele>
        <time>2018-04-07T12:18:03Z</time>
      </trkpt>
      <trkpt lat="43.35396" lon="2.06801">
        <ele>302.47</ele>
        <time>2018-04-07T12:18:05Z</time>
      </trkpt>
      <trkpt lat="43.35393" lon="2.06801">
        <ele>302.47</ele>
        <time>2018-04-07T12:18:07Z</time>
      </trkpt>
      <trkpt lat="43.35387" lon="2.06799">
        <ele>299.11</ele>
        <time>2018-04-07T12:18:13Z</time>
      </trkpt>
      <trkpt lat="43.3537" lon="2.06799">
        <ele>300.55</ele>
        <time>2018-04-07T12:18:27Z</time>
      </trkpt>
      <trkpt lat="43.35364" lon="2.06802">
        <ele>296.22</ele>
        <time>2018-04-07T12:18:32Z</time>
      </trkpt>
      <trkpt lat="43.35363" lon="2.06803">
        <ele>296.7</ele>
        <time>2018-04-07T12:18:33Z</time>
      </trkpt>
      <trkpt lat="43.35361" lon="2.06807">
        <ele>299.11</ele>
        <time>2018-04-07T12:18:36Z</time>
      </trkpt>
      <trkpt lat="43.35352" lon="2.06817">
        <ele>299.11</ele>
        <time>2018-04-07T12:18:46Z</time>
      </trkpt>
      <trkpt lat="43.3535" lon="2.06819">
        <ele>299.11</ele>
        <time>2018-04-07T12:18:48Z</time>
      </trkpt>
      <trkpt lat="43.35348" lon="2.06822">
        <ele>299.11</ele>
        <time>2018-04-07T12:18:51Z</time>
      </trkpt>
      <trkpt lat="43.35345" lon="2.06824">
        <ele>296.7</ele>
        <time>2018-04-07T12:18:54Z</time>
      </trkpt>
      <trkpt lat="43.35342" lon="2.06828">
        <ele>301.03</ele>
        <time>2018-04-07T12:18:58Z</time>
      </trkpt>
      <trkpt lat="43.35343" lon="2.06829">
        <ele>299.11</ele>
        <time>2018-04-07T12:18:59Z</time>
      </trkpt>
      <trkpt lat="43.35341" lon="2.06831">
        <ele>297.18</ele>
        <time>2018-04-07T12:19:01Z</time>
      </trkpt>
      <trkpt lat="43.35338" lon="2.06834">
        <ele>299.11</ele>
        <time>2018-04-07T12:19:04Z</time>
      </trkpt>
      <trkpt lat="43.35336" lon="2.06838">
        <ele>294.78</ele>
        <time>2018-04-07T12:19:07Z</time>
      </trkpt>
      <trkpt lat="43.35333" lon="2.06842">
        <ele>289.49</ele>
        <time>2018-04-07T12:19:10Z</time>
      </trkpt>
      <trkpt lat="43.35333" lon="2.06843">
        <ele>292.38</ele>
        <time>2018-04-07T12:19:11Z</time>
      </trkpt>
      <trkpt lat="43.35331" lon="2.06847">
        <ele>289.97</ele>
        <time>2018-04-07T12:19:14Z</time>
      </trkpt>
      <trkpt lat="43.35328" lon="2.06852">
        <ele>290.46</ele>
        <time>2018-04-07T12:19:18Z</time>
      </trkpt>
      <trkpt lat="43.35327" lon="2.06853">
        <ele>285.65</ele>
        <time>2018-04-07T12:19:19Z</time>
      </trkpt>
      <trkpt lat="43.35327" lon="2.06854">
        <ele>286.13</ele>
        <time>2018-04-07T12:19:20Z</time>
      </trkpt>
      <trkpt lat="43.35326" lon="2.06855">
        <ele>287.09</ele>
        <time>2018-04-07T12:19:21Z</time>
      </trkpt>
      <trkpt lat="43.35324" lon="2.06859">
        <ele>287.09</ele>
        <time>2018-04-07T12:19:24Z</time>
      </trkpt>
      <trkpt lat="43.35322" lon="2.06863">
        <ele>290.46</ele>
        <time>2018-04-07T12:19:27Z</time>
      </trkpt>
      <trkpt lat="43.3532" lon="2.06867">
        <ele>291.9</ele>
        <time>2018-04-07T12:19:30Z</time>
      </trkpt>
      <trkpt lat="43.35319" lon="2.0687">
        <ele>287.57</ele>
        <time>2018-04-07T12:19:32Z</time>
      </trkpt>
      <trkpt lat="43.35318" lon="2.06871">
        <ele>288.53</ele>
        <time>2018-04-07T12:19:33Z</time>
      </trkpt>
      <trkpt lat="43.35318" lon="2.06873">
        <ele>292.38</ele>
        <time>2018-04-07T12:19:34Z</time>
      </trkpt>
      <trkpt lat="43.35314" lon="2.06882">
        <ele>289.49</ele>
        <time>2018-04-07T12:19:41Z</time>
      </trkpt>
      <trkpt lat="43.35311" lon="2.06889">
        <ele>289.01</ele>
        <time>2018-04-07T12:19:46Z</time>
      </trkpt>
      <trkpt lat="43.35311" lon="2.06897">
        <ele>287.57</ele>
        <time>2018-04-07T12:19:50Z</time>
      </trkpt>
      <trkpt lat="43.35312" lon="2.06922">
        <ele>286.61</ele>
        <time>2018-04-07T12:20:05Z</time>
      </trkpt>
      <trkpt lat="43.35316" lon="2.06933">
        <ele>284.69</ele>
        <time>2018-04-07T12:20:14Z</time>
      </trkpt>
      <trkpt lat="43.35319" lon="2.06943">
        <ele>283.73</ele>
        <time>2018-04-07T12:20:21Z</time>
      </trkpt>
      <trkpt lat="43.3532" lon="2.06945">
        <ele>286.13</ele>
        <time>2018-04-07T12:20:23Z</time>
      </trkpt>
      <trkpt lat="43.35321" lon="2.06948">
        <ele>285.17</ele>
        <time>2018-04-07T12:20:25Z</time>
      </trkpt>
      <trkpt lat="43.35322" lon="2.06952">
        <ele>282.28</ele>
        <time>2018-04-07T12:20:28Z</time>
      </trkpt>
      <trkpt lat="43.35323" lon="2.06953">
        <ele>283.25</ele>
        <time>2018-04-07T12:20:29Z</time>
      </trkpt>
      <trkpt lat="43.35326" lon="2.06968">
        <ele>281.8</ele>
        <time>2018-04-07T12:20:40Z</time>
      </trkpt>
      <trkpt lat="43.35326" lon="2.06973">
        <ele>283.25</ele>
        <time>2018-04-07T12:20:44Z</time>
      </trkpt>
      <trkpt lat="43.35322" lon="2.06986">
        <ele>284.69</ele>
        <time>2018-04-07T12:20:53Z</time>
      </trkpt>
      <trkpt lat="43.35321" lon="2.0699">
        <ele>278.92</ele>
        <time>2018-04-07T12:22:33Z</time>
      </trkpt>
      <trkpt lat="43.35321" lon="2.0699">
        <ele>281.8</ele>
        <time>2018-04-07T12:22:35Z</time>
      </trkpt>
      <trkpt lat="43.35317" lon="2.06991">
        <ele>282.28</ele>
        <time>2018-04-07T12:22:48Z</time>
      </trkpt>
      <trkpt lat="43.35315" lon="2.06994">
        <ele>283.25</ele>
        <time>2018-04-07T12:22:50Z</time>
      </trkpt>
      <trkpt lat="43.35313" lon="2.06995">
        <ele>282.28</ele>
        <time>2018-04-07T12:22:52Z</time>
      </trkpt>
      <trkpt lat="43.35308" lon="2.06999">
        <ele>277.96</ele>
        <time>2018-04-07T12:22:57Z</time>
      </trkpt>
      <trkpt lat="43.35308" lon="2.06999">
        <ele>281.32</ele>
        <time>2018-04-07T12:22:58Z</time>
      </trkpt>
      <trkpt lat="43.35306" lon="2.07">
        <ele>282.28</ele>
        <time>2018-04-07T12:23:00Z</time>
      </trkpt>
      <trkpt lat="43.35296" lon="2.07007">
        <ele>284.21</ele>
        <time>2018-04-07T12:23:10Z</time>
      </trkpt>
      <trkpt lat="43.35296" lon="2.07006">
        <ele>285.17</ele>
        <time>2018-04-07T12:23:24Z</time>
      </trkpt>
      <trkpt lat="43.35293" lon="2.07007">
        <ele>283.25</ele>
        <time>2018-04-07T12:23:36Z</time>
      </trkpt>
      <trkpt lat="43.35281" lon="2.07016">
        <ele>284.21</ele>
        <time>2018-04-07T12:23:51Z</time>
      </trkpt>
      <trkpt lat="43.35269" lon="2.07022">
        <ele>283.73</ele>
        <time>2018-04-07T12:24:07Z</time>
      </trkpt>
      <trkpt lat="43.35267" lon="2.07024">
        <ele>285.65</ele>
        <time>2018-04-07T12:24:10Z</time>
      </trkpt>
      <trkpt lat="43.35265" lon="2.07025">
        <ele>282.28</ele>
        <time>2018-04-07T12:24:13Z</time>
      </trkpt>
      <trkpt lat="43.35263" lon="2.07027">
        <ele>284.21</ele>
        <time>2018-04-07T12:24:20Z</time>
      </trkpt>
      <trkpt lat="43.35259" lon="2.0703">
        <ele>281.8</ele>
        <time>2018-04-07T12:24:25Z</time>
      </trkpt>
      <trkpt lat="43.35257" lon="2.0703">
        <ele>281.8</ele>
        <time>2018-04-07T12:24:29Z</time>
      </trkpt>
      <trkpt lat="43.35256" lon="2.07031">
        <ele>283.25</ele>
        <time>2018-04-07T12:24:31Z</time>
      </trkpt>
      <trkpt lat="43.35251" lon="2.07035">
        <ele>284.69</ele>
        <time>2018-04-07T12:24:37Z</time>
      </trkpt>
      <trkpt lat="43.3524" lon="2.07051">
        <ele>284.21</ele>
        <time>2018-04-07T12:24:54Z</time>
      </trkpt>
      <trkpt lat="43.35239" lon="2.07069">
        <ele>282.28</ele>
        <time>2018-04-07T12:25:09Z</time>
      </trkpt>
      <trkpt lat="43.35239" lon="2.07074">
        <ele>279.4</ele>
        <time>2018-04-07T12:25:12Z</time>
      </trkpt>
      <trkpt lat="43.35239" lon="2.0708">
        <ele>282.77</ele>
        <time>2018-04-07T12:25:15Z</time>
      </trkpt>
      <trkpt lat="43.35239" lon="2.07086">
        <ele>279.88</ele>
        <time>2018-04-07T12:25:20Z</time>
      </trkpt>
      <trkpt lat="43.35239" lon="2.07089">
        <ele>283.25</ele>
        <time>2018-04-07T12:25:22Z</time>
      </trkpt>
      <trkpt lat="43.3524" lon="2.07091">
        <ele>283.25</ele>
        <time>2018-04-07T12:25:23Z</time>
      </trkpt>
      <trkpt lat="43.35239" lon="2.07106">
        <ele>283.25</ele>
        <time>2018-04-07T12:25:35Z</time>
      </trkpt>
      <trkpt lat="43.3523" lon="2.07118">
        <ele>279.4</ele>
        <time>2018-04-07T12:25:49Z</time>
      </trkpt>
      <trkpt lat="43.35225" lon="2.07115">
        <ele>283.25</ele>
        <time>2018-04-07T12:25:55Z</time>
      </trkpt>
      <trkpt lat="43.35215" lon="2.07105">
        <ele>283.25</ele>
        <time>2018-04-07T12:26:08Z</time>
      </trkpt>
      <trkpt lat="43.35203" lon="2.07101">
        <ele>283.73</ele>
        <time>2018-04-07T12:26:23Z</time>
      </trkpt>
      <trkpt lat="43.35197" lon="2.071">
        <ele>285.17</ele>
        <time>2018-04-07T12:26:29Z</time>
      </trkpt>
      <trkpt lat="43.35182" lon="2.07102">
        <ele>284.69</ele>
        <time>2018-04-07T12:26:44Z</time>
      </trkpt>
      <trkpt lat="43.35172" lon="2.07105">
        <ele>284.21</ele>
        <time>2018-04-07T12:26:54Z</time>
      </trkpt>
      <trkpt lat="43.35169" lon="2.07107">
        <ele>286.13</ele>
        <time>2018-04-07T12:26:57Z</time>
      </trkpt>
      <trkpt lat="43.35165" lon="2.07109">
        <ele>283.25</ele>
        <time>2018-04-07T12:27:01Z</time>
      </trkpt>
      <trkpt lat="43.35158" lon="2.07113">
        <ele>286.13</ele>
        <time>2018-04-07T12:27:08Z</time>
      </trkpt>
      <trkpt lat="43.35155" lon="2.07116">
        <ele>285.17</ele>
        <time>2018-04-07T12:27:11Z</time>
      </trkpt>
      <trkpt lat="43.35152" lon="2.07118">
        <ele>281.8</ele>
        <time>2018-04-07T12:27:15Z</time>
      </trkpt>
      <trkpt lat="43.35151" lon="2.07119">
        <ele>278.44</ele>
        <time>2018-04-07T12:27:16Z</time>
      </trkpt>
      <trkpt lat="43.3515" lon="2.0712">
        <ele>278.92</ele>
        <time>2018-04-07T12:27:17Z</time>
      </trkpt>
      <trkpt lat="43.35148" lon="2.07121">
        <ele>282.77</ele>
        <time>2018-04-07T12:27:18Z</time>
      </trkpt>
      <trkpt lat="43.35146" lon="2.07123">
        <ele>285.65</ele>
        <time>2018-04-07T12:27:20Z</time>
      </trkpt>
      <trkpt lat="43.35144" lon="2.07126">
        <ele>281.8</ele>
        <time>2018-04-07T12:27:23Z</time>
      </trkpt>
      <trkpt lat="43.35142" lon="2.0713">
        <ele>285.65</ele>
        <time>2018-04-07T12:27:26Z</time>
      </trkpt>
      <trkpt lat="43.35137" lon="2.07138">
        <ele>286.61</ele>
        <time>2018-04-07T12:27:34Z</time>
      </trkpt>
      <trkpt lat="43.35129" lon="2.07156">
        <ele>286.61</ele>
        <time>2018-04-07T12:27:49Z</time>
      </trkpt>
      <trkpt lat="43.35124" lon="2.07168">
        <ele>288.53</ele>
        <time>2018-04-07T12:27:58Z</time>
      </trkpt>
      <trkpt lat="43.35121" lon="2.07174">
        <ele>286.13</ele>
        <time>2018-04-07T12:28:03Z</time>
      </trkpt>
      <trkpt lat="43.3512" lon="2.07177">
        <ele>288.05</ele>
        <time>2018-04-07T12:28:05Z</time>
      </trkpt>
      <trkpt lat="43.35115" lon="2.07187">
        <ele>288.05</ele>
        <time>2018-04-07T12:28:15Z</time>
      </trkpt>
      <trkpt lat="43.35113" lon="2.07193">
        <ele>290.94</ele>
        <time>2018-04-07T12:28:20Z</time>
      </trkpt>
      <trkpt lat="43.35105" lon="2.07207">
        <ele>290.46</ele>
        <time>2018-04-07T12:28:33Z</time>
      </trkpt>
      <trkpt lat="43.35101" lon="2.07215">
        <ele>291.9</ele>
        <time>2018-04-07T12:28:39Z</time>
      </trkpt>
      <trkpt lat="43.35088" lon="2.07233">
        <ele>289.97</ele>
        <time>2018-04-07T12:28:55Z</time>
      </trkpt>
      <trkpt lat="43.35082" lon="2.07245">
        <ele>291.9</ele>
        <time>2018-04-07T12:29:07Z</time>
      </trkpt>
      <trkpt lat="43.35079" lon="2.07256">
        <ele>290.94</ele>
        <time>2018-04-07T12:29:16Z</time>
      </trkpt>
      <trkpt lat="43.35076" lon="2.07262">
        <ele>292.38</ele>
        <time>2018-04-07T12:29:20Z</time>
      </trkpt>
      <trkpt lat="43.35073" lon="2.0727">
        <ele>292.38</ele>
        <time>2018-04-07T12:29:26Z</time>
      </trkpt>
      <trkpt lat="43.35064" lon="2.07282">
        <ele>292.86</ele>
        <time>2018-04-07T12:29:37Z</time>
      </trkpt>
      <trkpt lat="43.35062" lon="2.07284">
        <ele>289.01</ele>
        <time>2018-04-07T12:29:39Z</time>
      </trkpt>
      <trkpt lat="43.35061" lon="2.07285">
        <ele>289.01</ele>
        <time>2018-04-07T12:29:40Z</time>
      </trkpt>
      <trkpt lat="43.3506" lon="2.07286">
        <ele>284.69</ele>
        <time>2018-04-07T12:29:42Z</time>
      </trkpt>
      <trkpt lat="43.35059" lon="2.07287">
        <ele>287.57</ele>
        <time>2018-04-07T12:29:43Z</time>
      </trkpt>
      <trkpt lat="43.35058" lon="2.07289">
        <ele>290.94</ele>
        <time>2018-04-07T12:29:45Z</time>
      </trkpt>
      <trkpt lat="43.35056" lon="2.07291">
        <ele>291.9</ele>
        <time>2018-04-07T12:29:47Z</time>
      </trkpt>
      <trkpt lat="43.35048" lon="2.073">
        <ele>290.94</ele>
        <time>2018-04-07T12:29:57Z</time>
      </trkpt>
      <trkpt lat="43.35045" lon="2.07303">
        <ele>287.57</ele>
        <time>2018-04-07T12:30:01Z</time>
      </trkpt>
      <trkpt lat="43.35044" lon="2.07305">
        <ele>287.57</ele>
        <time>2018-04-07T12:30:02Z</time>
      </trkpt>
      <trkpt lat="43.35038" lon="2.07312">
        <ele>291.42</ele>
        <time>2018-04-07T12:30:10Z</time>
      </trkpt>
      <trkpt lat="43.35035" lon="2.07315">
        <ele>290.94</ele>
        <time>2018-04-07T12:30:13Z</time>
      </trkpt>
      <trkpt lat="43.35027" lon="2.07326">
        <ele>288.53</ele>
        <time>2018-04-07T12:30:23Z</time>
      </trkpt>
      <trkpt lat="43.35024" lon="2.0733">
        <ele>283.73</ele>
        <time>2018-04-07T12:30:28Z</time>
      </trkpt>
      <trkpt lat="43.35023" lon="2.07331">
        <ele>287.09</ele>
        <time>2018-04-07T12:30:29Z</time>
      </trkpt>
      <trkpt lat="43.35021" lon="2.07334">
        <ele>282.77</ele>
        <time>2018-04-07T12:30:32Z</time>
      </trkpt>
      <trkpt lat="43.3502" lon="2.07335">
        <ele>285.17</ele>
        <time>2018-04-07T12:30:33Z</time>
      </trkpt>
      <trkpt lat="43.35018" lon="2.07337">
        <ele>286.13</ele>
        <time>2018-04-07T12:30:35Z</time>
      </trkpt>
      <trkpt lat="43.3501" lon="2.07347">
        <ele>288.53</ele>
        <time>2018-04-07T12:30:47Z</time>
      </trkpt>
      <trkpt lat="43.35009" lon="2.07348">
        <ele>288.53</ele>
        <time>2018-04-07T12:30:51Z</time>
      </trkpt>
      <trkpt lat="43.35005" lon="2.07354">
        <ele>284.69</ele>
        <time>2018-04-07T12:30:56Z</time>
      </trkpt>
      <trkpt lat="43.35001" lon="2.0736">
        <ele>287.57</ele>
        <time>2018-04-07T12:31:01Z</time>
      </trkpt>
      <trkpt lat="43.34995" lon="2.07366">
        <ele>287.09</ele>
        <time>2018-04-07T12:31:16Z</time>
      </trkpt>
      <trkpt lat="43.34995" lon="2.07366">
        <ele>288.05</ele>
        <time>2018-04-07T12:31:19Z</time>
      </trkpt>
      <trkpt lat="43.34996" lon="2.07367">
        <ele>289.97</ele>
        <time>2018-04-07T12:31:23Z</time>
      </trkpt>
      <trkpt lat="43.34995" lon="2.07367">
        <ele>286.61</ele>
        <time>2018-04-07T12:31:29Z</time>
      </trkpt>
      <trkpt lat="43.34995" lon="2.07367">
        <ele>287.09</ele>
        <time>2018-04-07T12:31:30Z</time>
      </trkpt>
      <trkpt lat="43.34995" lon="2.07367">
        <ele>286.13</ele>
        <time>2018-04-07T12:31:36Z</time>
      </trkpt>
      <trkpt lat="43.34991" lon="2.07371">
        <ele>284.21</ele>
        <time>2018-04-07T12:31:50Z</time>
      </trkpt>
      <trkpt lat="43.34988" lon="2.07376">
        <ele>288.53</ele>
        <time>2018-04-07T12:31:54Z</time>
      </trkpt>
      <trkpt lat="43.34987" lon="2.07377">
        <ele>287.09</ele>
        <time>2018-04-07T12:31:55Z</time>
      </trkpt>
      <trkpt lat="43.34987" lon="2.07378">
        <ele>282.77</ele>
        <time>2018-04-07T12:31:56Z</time>
      </trkpt>
      <trkpt lat="43.34986" lon="2.07378">
        <ele>285.65</ele>
        <time>2018-04-07T12:31:57Z</time>
      </trkpt>
      <trkpt lat="43.34984" lon="2.0738">
        <ele>287.09</ele>
        <time>2018-04-07T12:31:59Z</time>
      </trkpt>
      <trkpt lat="43.34977" lon="2.07388">
        <ele>283.73</ele>
        <time>2018-04-07T12:32:07Z</time>
      </trkpt>
      <trkpt lat="43.34975" lon="2.07391">
        <ele>289.49</ele>
        <time>2018-04-07T12:32:12Z</time>
      </trkpt>
      <trkpt lat="43.34974" lon="2.07392">
        <ele>285.65</ele>
        <time>2018-04-07T12:32:13Z</time>
      </trkpt>
      <trkpt lat="43.34973" lon="2.07395">
        <ele>280.36</ele>
        <time>2018-04-07T12:32:16Z</time>
      </trkpt>
      <trkpt lat="43.3497" lon="2.07397">
        <ele>283.73</ele>
        <time>2018-04-07T12:32:19Z</time>
      </trkpt>
      <trkpt lat="43.34968" lon="2.07398">
        <ele>282.28</ele>
        <time>2018-04-07T12:32:20Z</time>
      </trkpt>
      <trkpt lat="43.34965" lon="2.07402">
        <ele>278.44</ele>
        <time>2018-04-07T12:32:24Z</time>
      </trkpt>
      <trkpt lat="43.34964" lon="2.07403">
        <ele>279.88</ele>
        <time>2018-04-07T12:32:25Z</time>
      </trkpt>
      <trkpt lat="43.34959" lon="2.07407">
        <ele>280.36</ele>
        <time>2018-04-07T12:32:29Z</time>
      </trkpt>
      <trkpt lat="43.34957" lon="2.07409">
        <ele>284.21</ele>
        <time>2018-04-07T12:32:31Z</time>
      </trkpt>
      <trkpt lat="43.34956" lon="2.07411">
        <ele>284.21</ele>
        <time>2018-04-07T12:32:32Z</time>
      </trkpt>
      <trkpt lat="43.34948" lon="2.0742">
        <ele>280.84</ele>
        <time>2018-04-07T12:32:41Z</time>
      </trkpt>
      <trkpt lat="43.34944" lon="2.07425">
        <ele>279.88</ele>
        <time>2018-04-07T12:32:53Z</time>
      </trkpt>
      <trkpt lat="43.34933" lon="2.07439">
        <ele>279.4</ele>
        <time>2018-04-07T12:33:06Z</time>
      </trkpt>
      <trkpt lat="43.34928" lon="2.07446">
        <ele>279.4</ele>
        <time>2018-04-07T12:33:12Z</time>
      </trkpt>
      <trkpt lat="43.34916" lon="2.0746">
        <ele>276.04</ele>
        <time>2018-04-07T12:33:25Z</time>
      </trkpt>
      <trkpt lat="43.34915" lon="2.07461">
        <ele>276.52</ele>
        <time>2018-04-07T12:33:26Z</time>
      </trkpt>
      <trkpt lat="43.34901" lon="2.07478">
        <ele>273.63</ele>
        <time>2018-04-07T12:33:42Z</time>
      </trkpt>
      <trkpt lat="43.349" lon="2.07479">
        <ele>277</ele>
        <time>2018-04-07T12:33:43Z</time>
      </trkpt>
      <trkpt lat="43.3489" lon="2.07491">
        <ele>277.48</ele>
        <time>2018-04-07T12:33:53Z</time>
      </trkpt>
      <trkpt lat="43.34885" lon="2.07499">
        <ele>276.04</ele>
        <time>2018-04-07T12:33:59Z</time>
      </trkpt>
      <trkpt lat="43.34879" lon="2.07506">
        <ele>275.07</ele>
        <time>2018-04-07T12:34:06Z</time>
      </trkpt>
      <trkpt lat="43.3487" lon="2.07515">
        <ele>278.44</ele>
        <time>2018-04-07T12:34:16Z</time>
      </trkpt>
      <trkpt lat="43.34864" lon="2.07523">
        <ele>272.67</ele>
        <time>2018-04-07T12:34:22Z</time>
      </trkpt>
      <trkpt lat="43.34863" lon="2.07524">
        <ele>274.11</ele>
        <time>2018-04-07T12:34:23Z</time>
      </trkpt>
      <trkpt lat="43.34858" lon="2.07529">
        <ele>277.96</ele>
        <time>2018-04-07T12:34:28Z</time>
      </trkpt>
      <trkpt lat="43.34855" lon="2.07532">
        <ele>274.59</ele>
        <time>2018-04-07T12:34:31Z</time>
      </trkpt>
      <trkpt lat="43.34854" lon="2.07534">
        <ele>273.63</ele>
        <time>2018-04-07T12:34:33Z</time>
      </trkpt>
      <trkpt lat="43.34847" lon="2.07541">
        <ele>274.11</ele>
        <time>2018-04-07T12:34:40Z</time>
      </trkpt>
      <trkpt lat="43.34842" lon="2.07548">
        <ele>270.27</ele>
        <time>2018-04-07T12:34:46Z</time>
      </trkpt>
      <trkpt lat="43.34835" lon="2.07557">
        <ele>275.56</ele>
        <time>2018-04-07T12:34:54Z</time>
      </trkpt>
      <trkpt lat="43.34832" lon="2.0756">
        <ele>272.67</ele>
        <time>2018-04-07T12:34:57Z</time>
      </trkpt>
      <trkpt lat="43.3483" lon="2.07561">
        <ele>273.63</ele>
        <time>2018-04-07T12:34:58Z</time>
      </trkpt>
      <trkpt lat="43.34828" lon="2.07565">
        <ele>271.23</ele>
        <time>2018-04-07T12:35:01Z</time>
      </trkpt>
      <trkpt lat="43.34816" lon="2.07579">
        <ele>271.23</ele>
        <time>2018-04-07T12:35:14Z</time>
      </trkpt>
      <trkpt lat="43.34815" lon="2.0758">
        <ele>274.59</ele>
        <time>2018-04-07T12:35:15Z</time>
      </trkpt>
      <trkpt lat="43.34814" lon="2.07581">
        <ele>270.27</ele>
        <time>2018-04-07T12:35:16Z</time>
      </trkpt>
      <trkpt lat="43.34795" lon="2.07601">
        <ele>271.71</ele>
        <time>2018-04-07T12:35:35Z</time>
      </trkpt>
      <trkpt lat="43.34786" lon="2.07613">
        <ele>272.19</ele>
        <time>2018-04-07T12:35:46Z</time>
      </trkpt>
      <trkpt lat="43.34768" lon="2.07631">
        <ele>269.31</ele>
        <time>2018-04-07T12:36:05Z</time>
      </trkpt>
      <trkpt lat="43.34766" lon="2.07634">
        <ele>271.23</ele>
        <time>2018-04-07T12:36:08Z</time>
      </trkpt>
      <trkpt lat="43.34759" lon="2.0764">
        <ele>271.23</ele>
        <time>2018-04-07T12:36:14Z</time>
      </trkpt>
      <trkpt lat="43.34743" lon="2.07659">
        <ele>269.79</ele>
        <time>2018-04-07T12:36:32Z</time>
      </trkpt>
      <trkpt lat="43.34738" lon="2.07663">
        <ele>269.79</ele>
        <time>2018-04-07T12:36:37Z</time>
      </trkpt>
      <trkpt lat="43.3472" lon="2.07679">
        <ele>267.86</ele>
        <time>2018-04-07T12:36:54Z</time>
      </trkpt>
      <trkpt lat="43.34713" lon="2.07684">
        <ele>268.35</ele>
        <time>2018-04-07T12:37:00Z</time>
      </trkpt>
      <trkpt lat="43.34705" lon="2.0769">
        <ele>267.38</ele>
        <time>2018-04-07T12:37:08Z</time>
      </trkpt>
      <trkpt lat="43.34695" lon="2.07697">
        <ele>265.46</ele>
        <time>2018-04-07T12:37:17Z</time>
      </trkpt>
      <trkpt lat="43.3468" lon="2.07705">
        <ele>265.94</ele>
        <time>2018-04-07T12:37:30Z</time>
      </trkpt>
      <trkpt lat="43.34677" lon="2.07706">
        <ele>268.35</ele>
        <time>2018-04-07T12:37:33Z</time>
      </trkpt>
      <trkpt lat="43.34675" lon="2.07707">
        <ele>266.9</ele>
        <time>2018-04-07T12:37:35Z</time>
      </trkpt>
      <trkpt lat="43.34662" lon="2.07713">
        <ele>263.54</ele>
        <time>2018-04-07T12:37:47Z</time>
      </trkpt>
      <trkpt lat="43.3465" lon="2.07722">
        <ele>262.58</ele>
        <time>2018-04-07T12:37:59Z</time>
      </trkpt>
      <trkpt lat="43.34647" lon="2.07724">
        <ele>261.62</ele>
        <time>2018-04-07T12:38:01Z</time>
      </trkpt>
      <trkpt lat="43.34645" lon="2.07728">
        <ele>258.73</ele>
        <time>2018-04-07T12:38:04Z</time>
      </trkpt>
      <trkpt lat="43.34644" lon="2.0773">
        <ele>260.17</ele>
        <time>2018-04-07T12:38:06Z</time>
      </trkpt>
      <trkpt lat="43.34643" lon="2.07734">
        <ele>259.21</ele>
        <time>2018-04-07T12:38:08Z</time>
      </trkpt>
      <trkpt lat="43.34642" lon="2.07738">
        <ele>255.85</ele>
        <time>2018-04-07T12:38:11Z</time>
      </trkpt>
      <trkpt lat="43.34641" lon="2.07739">
        <ele>259.21</ele>
        <time>2018-04-07T12:38:12Z</time>
      </trkpt>
      <trkpt lat="43.34641" lon="2.0774">
        <ele>258.73</ele>
        <time>2018-04-07T12:38:13Z</time>
      </trkpt>
      <trkpt lat="43.34638" lon="2.0776">
        <ele>258.25</ele>
        <time>2018-04-07T12:38:25Z</time>
      </trkpt>
      <trkpt lat="43.34637" lon="2.07766">
        <ele>259.21</ele>
        <time>2018-04-07T12:38:29Z</time>
      </trkpt>
      <trkpt lat="43.34635" lon="2.07782">
        <ele>258.73</ele>
        <time>2018-04-07T12:38:38Z</time>
      </trkpt>
      <trkpt lat="43.34635" lon="2.07786">
        <ele>261.14</ele>
        <time>2018-04-07T12:38:40Z</time>
      </trkpt>
      <trkpt lat="43.34634" lon="2.07787">
        <ele>264.02</ele>
        <time>2018-04-07T12:38:41Z</time>
      </trkpt>
      <trkpt lat="43.34635" lon="2.07793">
        <ele>258.25</ele>
        <time>2018-04-07T12:38:45Z</time>
      </trkpt>
      <trkpt lat="43.34634" lon="2.07797">
        <ele>261.62</ele>
        <time>2018-04-07T12:38:47Z</time>
      </trkpt>
      <trkpt lat="43.34635" lon="2.07803">
        <ele>259.69</ele>
        <time>2018-04-07T12:38:51Z</time>
      </trkpt>
      <trkpt lat="43.34636" lon="2.07815">
        <ele>262.1</ele>
        <time>2018-04-07T12:38:59Z</time>
      </trkpt>
      <trkpt lat="43.34636" lon="2.07818">
        <ele>258.25</ele>
        <time>2018-04-07T12:39:01Z</time>
      </trkpt>
      <trkpt lat="43.34637" lon="2.0782">
        <ele>260.17</ele>
        <time>2018-04-07T12:39:02Z</time>
      </trkpt>
      <trkpt lat="43.34638" lon="2.07838">
        <ele>263.06</ele>
        <time>2018-04-07T12:39:13Z</time>
      </trkpt>
      <trkpt lat="43.34639" lon="2.07851">
        <ele>259.21</ele>
        <time>2018-04-07T12:39:21Z</time>
      </trkpt>
      <trkpt lat="43.34637" lon="2.07863">
        <ele>262.58</ele>
        <time>2018-04-07T12:39:29Z</time>
      </trkpt>
      <trkpt lat="43.34632" lon="2.07886">
        <ele>260.65</ele>
        <time>2018-04-07T12:39:44Z</time>
      </trkpt>
      <trkpt lat="43.34629" lon="2.07893">
        <ele>261.14</ele>
        <time>2018-04-07T12:39:49Z</time>
      </trkpt>
      <trkpt lat="43.34623" lon="2.07917">
        <ele>262.1</ele>
        <time>2018-04-07T12:40:04Z</time>
      </trkpt>
      <trkpt lat="43.3462" lon="2.07924">
        <ele>263.54</ele>
        <time>2018-04-07T12:40:09Z</time>
      </trkpt>
      <trkpt lat="43.34618" lon="2.07931">
        <ele>259.21</ele>
        <time>2018-04-07T12:40:13Z</time>
      </trkpt>
      <trkpt lat="43.34617" lon="2.07934">
        <ele>262.1</ele>
        <time>2018-04-07T12:40:15Z</time>
      </trkpt>
      <trkpt lat="43.34617" lon="2.07938">
        <ele>259.69</ele>
        <time>2018-04-07T12:40:18Z</time>
      </trkpt>
      <trkpt lat="43.34616" lon="2.07941">
        <ele>261.14</ele>
        <time>2018-04-07T12:40:20Z</time>
      </trkpt>
      <trkpt lat="43.34614" lon="2.07954">
        <ele>255.37</ele>
        <time>2018-04-07T12:40:29Z</time>
      </trkpt>
      <trkpt lat="43.34613" lon="2.07954">
        <ele>256.33</ele>
        <time>2018-04-07T12:40:30Z</time>
      </trkpt>
      <trkpt lat="43.34613" lon="2.07955">
        <ele>259.69</ele>
        <time>2018-04-07T12:40:31Z</time>
      </trkpt>
      <trkpt lat="43.34613" lon="2.07957">
        <ele>260.65</ele>
        <time>2018-04-07T12:40:33Z</time>
      </trkpt>
      <trkpt lat="43.34612" lon="2.0796">
        <ele>263.06</ele>
        <time>2018-04-07T12:40:35Z</time>
      </trkpt>
      <trkpt lat="43.34611" lon="2.07962">
        <ele>259.69</ele>
        <time>2018-04-07T12:40:38Z</time>
      </trkpt>
      <trkpt lat="43.34611" lon="2.07961">
        <ele>260.17</ele>
        <time>2018-04-07T12:40:39Z</time>
      </trkpt>
      <trkpt lat="43.34611" lon="2.0797">
        <ele>260.17</ele>
        <time>2018-04-07T12:44:04Z</time>
      </trkpt>
      <trkpt lat="43.34608" lon="2.07974">
        <ele>261.14</ele>
        <time>2018-04-07T12:44:15Z</time>
      </trkpt>
      <trkpt lat="43.34598" lon="2.07966">
        <ele>261.14</ele>
        <time>2018-04-07T12:44:31Z</time>
      </trkpt>
      <trkpt lat="43.34588" lon="2.07959">
        <ele>260.65</ele>
        <time>2018-04-07T12:44:43Z</time>
      </trkpt>
      <trkpt lat="43.34578" lon="2.07952">
        <ele>262.1</ele>
        <time>2018-04-07T12:44:55Z</time>
      </trkpt>
      <trkpt lat="43.34576" lon="2.07951">
        <ele>259.69</ele>
        <time>2018-04-07T12:44:57Z</time>
      </trkpt>
      <trkpt lat="43.34563" lon="2.07939">
        <ele>259.21</ele>
        <time>2018-04-07T12:45:12Z</time>
      </trkpt>
      <trkpt lat="43.34561" lon="2.07938">
        <ele>258.25</ele>
        <time>2018-04-07T12:45:14Z</time>
      </trkpt>
      <trkpt lat="43.3456" lon="2.07937">
        <ele>261.62</ele>
        <time>2018-04-07T12:45:15Z</time>
      </trkpt>
      <trkpt lat="43.34559" lon="2.07936">
        <ele>259.21</ele>
        <time>2018-04-07T12:45:16Z</time>
      </trkpt>
      <trkpt lat="43.34558" lon="2.07934">
        <ele>260.65</ele>
        <time>2018-04-07T12:45:18Z</time>
      </trkpt>
      <trkpt lat="43.34556" lon="2.07933">
        <ele>259.69</ele>
        <time>2018-04-07T12:45:20Z</time>
      </trkpt>
      <trkpt lat="43.34549" lon="2.07928">
        <ele>258.73</ele>
        <time>2018-04-07T12:45:27Z</time>
      </trkpt>
      <trkpt lat="43.34547" lon="2.07925">
        <ele>262.1</ele>
        <time>2018-04-07T12:45:30Z</time>
      </trkpt>
      <trkpt lat="43.34546" lon="2.07925">
        <ele>264.98</ele>
        <time>2018-04-07T12:45:31Z</time>
      </trkpt>
      <trkpt lat="43.34542" lon="2.07923">
        <ele>261.62</ele>
        <time>2018-04-07T12:45:34Z</time>
      </trkpt>
      <trkpt lat="43.34536" lon="2.07918">
        <ele>258.25</ele>
        <time>2018-04-07T12:45:40Z</time>
      </trkpt>
      <trkpt lat="43.34528" lon="2.07911">
        <ele>259.21</ele>
        <time>2018-04-07T12:45:49Z</time>
      </trkpt>
      <trkpt lat="43.34527" lon="2.07911">
        <ele>257.77</ele>
        <time>2018-04-07T12:45:50Z</time>
      </trkpt>
      <trkpt lat="43.34525" lon="2.07909">
        <ele>261.62</ele>
        <time>2018-04-07T12:45:52Z</time>
      </trkpt>
      <trkpt lat="43.34519" lon="2.07904">
        <ele>262.1</ele>
        <time>2018-04-07T12:45:59Z</time>
      </trkpt>
      <trkpt lat="43.34513" lon="2.07898">
        <ele>259.21</ele>
        <time>2018-04-07T12:46:06Z</time>
      </trkpt>
      <trkpt lat="43.34503" lon="2.0789">
        <ele>262.58</ele>
        <time>2018-04-07T12:46:17Z</time>
      </trkpt>
      <trkpt lat="43.34502" lon="2.07889">
        <ele>261.14</ele>
        <time>2018-04-07T12:46:18Z</time>
      </trkpt>
      <trkpt lat="43.34491" lon="2.0787">
        <ele>260.17</ele>
        <time>2018-04-07T12:46:35Z</time>
      </trkpt>
      <trkpt lat="43.34489" lon="2.07863">
        <ele>256.33</ele>
        <time>2018-04-07T12:46:40Z</time>
      </trkpt>
      <trkpt lat="43.34485" lon="2.0784">
        <ele>255.85</ele>
        <time>2018-04-07T12:46:57Z</time>
      </trkpt>
      <trkpt lat="43.34485" lon="2.07829">
        <ele>255.85</ele>
        <time>2018-04-07T12:47:04Z</time>
      </trkpt>
      <trkpt lat="43.34486" lon="2.07809">
        <ele>254.89</ele>
        <time>2018-04-07T12:47:17Z</time>
      </trkpt>
      <trkpt lat="43.34486" lon="2.07788">
        <ele>254.41</ele>
        <time>2018-04-07T12:47:30Z</time>
      </trkpt>
      <trkpt lat="43.34486" lon="2.07784">
        <ele>253.93</ele>
        <time>2018-04-07T12:47:33Z</time>
      </trkpt>
      <trkpt lat="43.34486" lon="2.07782">
        <ele>254.41</ele>
        <time>2018-04-07T12:47:35Z</time>
      </trkpt>
      <trkpt lat="43.34487" lon="2.07774">
        <ele>254.41</ele>
        <time>2018-04-07T12:47:40Z</time>
      </trkpt>
      <trkpt lat="43.34487" lon="2.0777">
        <ele>252.48</ele>
        <time>2018-04-07T12:47:42Z</time>
      </trkpt>
      <trkpt lat="43.34487" lon="2.07767">
        <ele>253.44</ele>
        <time>2018-04-07T12:47:44Z</time>
      </trkpt>
      <trkpt lat="43.34488" lon="2.07759">
        <ele>252.96</ele>
        <time>2018-04-07T12:47:49Z</time>
      </trkpt>
      <trkpt lat="43.34491" lon="2.07742">
        <ele>253.44</ele>
        <time>2018-04-07T12:48:00Z</time>
      </trkpt>
      <trkpt lat="43.34492" lon="2.07739">
        <ele>252</ele>
        <time>2018-04-07T12:48:02Z</time>
      </trkpt>
      <trkpt lat="43.34503" lon="2.07712">
        <ele>252</ele>
        <time>2018-04-07T12:48:21Z</time>
      </trkpt>
      <trkpt lat="43.34506" lon="2.07689">
        <ele>250.56</ele>
        <time>2018-04-07T12:48:36Z</time>
      </trkpt>
      <trkpt lat="43.34506" lon="2.07681">
        <ele>248.64</ele>
        <time>2018-04-07T12:48:41Z</time>
      </trkpt>
      <trkpt lat="43.34507" lon="2.07676">
        <ele>249.6</ele>
        <time>2018-04-07T12:48:44Z</time>
      </trkpt>
      <trkpt lat="43.34504" lon="2.0766">
        <ele>246.23</ele>
        <time>2018-04-07T12:48:54Z</time>
      </trkpt>
      <trkpt lat="43.34504" lon="2.07659">
        <ele>252.96</ele>
        <time>2018-04-07T12:48:55Z</time>
      </trkpt>
      <trkpt lat="43.34504" lon="2.07657">
        <ele>249.12</ele>
        <time>2018-04-07T12:48:56Z</time>
      </trkpt>
      <trkpt lat="43.34499" lon="2.07632">
        <ele>248.64</ele>
        <time>2018-04-07T12:49:14Z</time>
      </trkpt>
      <trkpt lat="43.34497" lon="2.0762">
        <ele>248.64</ele>
        <time>2018-04-07T12:49:22Z</time>
      </trkpt>
      <trkpt lat="43.34496" lon="2.0761">
        <ele>245.27</ele>
        <time>2018-04-07T12:49:28Z</time>
      </trkpt>
      <trkpt lat="43.34496" lon="2.07608">
        <ele>246.23</ele>
        <time>2018-04-07T12:49:30Z</time>
      </trkpt>
      <trkpt lat="43.34495" lon="2.07605">
        <ele>247.68</ele>
        <time>2018-04-07T12:49:32Z</time>
      </trkpt>
      <trkpt lat="43.34494" lon="2.07584">
        <ele>248.64</ele>
        <time>2018-04-07T12:49:48Z</time>
      </trkpt>
      <trkpt lat="43.34493" lon="2.07574">
        <ele>244.79</ele>
        <time>2018-04-07T12:49:54Z</time>
      </trkpt>
      <trkpt lat="43.34492" lon="2.07572">
        <ele>243.35</ele>
        <time>2018-04-07T12:49:56Z</time>
      </trkpt>
      <trkpt lat="43.34491" lon="2.07567">
        <ele>246.23</ele>
        <time>2018-04-07T12:50:00Z</time>
      </trkpt>
      <trkpt lat="43.34485" lon="2.07541">
        <ele>245.27</ele>
        <time>2018-04-07T12:50:18Z</time>
      </trkpt>
      <trkpt lat="43.34484" lon="2.07539">
        <ele>244.31</ele>
        <time>2018-04-07T12:50:20Z</time>
      </trkpt>
      <trkpt lat="43.34478" lon="2.07515">
        <ele>247.2</ele>
        <time>2018-04-07T12:50:34Z</time>
      </trkpt>
      <trkpt lat="43.34476" lon="2.07507">
        <ele>244.31</ele>
        <time>2018-04-07T12:50:40Z</time>
      </trkpt>
      <trkpt lat="43.34475" lon="2.07494">
        <ele>244.31</ele>
        <time>2018-04-07T12:51:06Z</time>
      </trkpt>
      <trkpt lat="43.34474" lon="2.07489">
        <ele>245.75</ele>
        <time>2018-04-07T12:51:10Z</time>
      </trkpt>
      <trkpt lat="43.34471" lon="2.07475">
        <ele>244.31</ele>
        <time>2018-04-07T12:51:24Z</time>
      </trkpt>
      <trkpt lat="43.34468" lon="2.07459">
        <ele>245.75</ele>
        <time>2018-04-07T12:51:35Z</time>
      </trkpt>
      <trkpt lat="43.34468" lon="2.07446">
        <ele>244.79</ele>
        <time>2018-04-07T12:51:42Z</time>
      </trkpt>
      <trkpt lat="43.34468" lon="2.0742">
        <ele>243.35</ele>
        <time>2018-04-07T12:51:57Z</time>
      </trkpt>
      <trkpt lat="43.34468" lon="2.07415">
        <ele>244.79</ele>
        <time>2018-04-07T12:52:01Z</time>
      </trkpt>
      <trkpt lat="43.34469" lon="2.07406">
        <ele>243.83</ele>
        <time>2018-04-07T12:52:07Z</time>
      </trkpt>
      <trkpt lat="43.3447" lon="2.07402">
        <ele>243.35</ele>
        <time>2018-04-07T12:52:10Z</time>
      </trkpt>
      <trkpt lat="43.34476" lon="2.07376">
        <ele>241.91</ele>
        <time>2018-04-07T12:52:25Z</time>
      </trkpt>
      <trkpt lat="43.34482" lon="2.07353">
        <ele>241.91</ele>
        <time>2018-04-07T12:52:41Z</time>
      </trkpt>
      <trkpt lat="43.34483" lon="2.07345">
        <ele>239.02</ele>
        <time>2018-04-07T12:52:46Z</time>
      </trkpt>
      <trkpt lat="43.34485" lon="2.07339">
        <ele>242.87</ele>
        <time>2018-04-07T12:52:51Z</time>
      </trkpt>
      <trkpt lat="43.34488" lon="2.07329">
        <ele>239.99</ele>
        <time>2018-04-07T12:52:58Z</time>
      </trkpt>
      <trkpt lat="43.34489" lon="2.07323">
        <ele>239.51</ele>
        <time>2018-04-07T12:53:03Z</time>
      </trkpt>
      <trkpt lat="43.34491" lon="2.07317">
        <ele>239.99</ele>
        <time>2018-04-07T12:53:08Z</time>
      </trkpt>
      <trkpt lat="43.34494" lon="2.07306">
        <ele>238.54</ele>
        <time>2018-04-07T12:53:17Z</time>
      </trkpt>
      <trkpt lat="43.34497" lon="2.07293">
        <ele>239.02</ele>
        <time>2018-04-07T12:53:26Z</time>
      </trkpt>
      <trkpt lat="43.34504" lon="2.0728">
        <ele>238.06</ele>
        <time>2018-04-07T12:53:37Z</time>
      </trkpt>
      <trkpt lat="43.3451" lon="2.07255">
        <ele>238.06</ele>
        <time>2018-04-07T12:53:53Z</time>
      </trkpt>
      <trkpt lat="43.34516" lon="2.07233">
        <ele>237.1</ele>
        <time>2018-04-07T12:54:09Z</time>
      </trkpt>
      <trkpt lat="43.34521" lon="2.07215">
        <ele>236.62</ele>
        <time>2018-04-07T12:54:24Z</time>
      </trkpt>
      <trkpt lat="43.34528" lon="2.07197">
        <ele>234.7</ele>
        <time>2018-04-07T12:54:38Z</time>
      </trkpt>
      <trkpt lat="43.34534" lon="2.07176">
        <ele>234.7</ele>
        <time>2018-04-07T12:54:53Z</time>
      </trkpt>
      <trkpt lat="43.3454" lon="2.07156">
        <ele>232.78</ele>
        <time>2018-04-07T12:55:08Z</time>
      </trkpt>
      <trkpt lat="43.34544" lon="2.07135">
        <ele>233.26</ele>
        <time>2018-04-07T12:55:22Z</time>
      </trkpt>
      <trkpt lat="43.34553" lon="2.0711">
        <ele>231.81</ele>
        <time>2018-04-07T12:55:38Z</time>
      </trkpt>
      <trkpt lat="43.34563" lon="2.07095">
        <ele>231.33</ele>
        <time>2018-04-07T12:55:51Z</time>
      </trkpt>
      <trkpt lat="43.34576" lon="2.07078">
        <ele>229.89</ele>
        <time>2018-04-07T12:56:08Z</time>
      </trkpt>
      <trkpt lat="43.34585" lon="2.07063">
        <ele>228.93</ele>
        <time>2018-04-07T12:56:21Z</time>
      </trkpt>
      <trkpt lat="43.34594" lon="2.07042">
        <ele>228.45</ele>
        <time>2018-04-07T12:56:38Z</time>
      </trkpt>
      <trkpt lat="43.34597" lon="2.07031">
        <ele>228.45</ele>
        <time>2018-04-07T12:56:51Z</time>
      </trkpt>
      <trkpt lat="43.34597" lon="2.07027">
        <ele>228.45</ele>
        <time>2018-04-07T12:56:57Z</time>
      </trkpt>
      <trkpt lat="43.34596" lon="2.07003">
        <ele>226.53</ele>
        <time>2018-04-07T12:57:13Z</time>
      </trkpt>
      <trkpt lat="43.34592" lon="2.06978">
        <ele>226.05</ele>
        <time>2018-04-07T12:57:30Z</time>
      </trkpt>
      <trkpt lat="43.34589" lon="2.06953">
        <ele>224.61</ele>
        <time>2018-04-07T12:57:46Z</time>
      </trkpt>
      <trkpt lat="43.34588" lon="2.0694">
        <ele>225.09</ele>
        <time>2018-04-07T12:57:55Z</time>
      </trkpt>
      <trkpt lat="43.34588" lon="2.06914">
        <ele>223.16</ele>
        <time>2018-04-07T12:58:13Z</time>
      </trkpt>
      <trkpt lat="43.34588" lon="2.06913">
        <ele>223.64</ele>
        <time>2018-04-07T12:58:14Z</time>
      </trkpt>
      <trkpt lat="43.34594" lon="2.06895">
        <ele>221.24</ele>
        <time>2018-04-07T12:58:27Z</time>
      </trkpt>
      <trkpt lat="43.34596" lon="2.06893">
        <ele>220.76</ele>
        <time>2018-04-07T12:58:29Z</time>
      </trkpt>
      <trkpt lat="43.34603" lon="2.06882">
        <ele>222.2</ele>
        <time>2018-04-07T12:58:38Z</time>
      </trkpt>
      <trkpt lat="43.34607" lon="2.06877">
        <ele>223.64</ele>
        <time>2018-04-07T12:58:43Z</time>
      </trkpt>
      <trkpt lat="43.34616" lon="2.06863">
        <ele>224.12</ele>
        <time>2018-04-07T12:58:57Z</time>
      </trkpt>
      <trkpt lat="43.34625" lon="2.06844">
        <ele>222.2</ele>
        <time>2018-04-07T12:59:11Z</time>
      </trkpt>
      <trkpt lat="43.34625" lon="2.06841">
        <ele>220.76</ele>
        <time>2018-04-07T12:59:13Z</time>
      </trkpt>
      <trkpt lat="43.34622" lon="2.06816">
        <ele>220.28</ele>
        <time>2018-04-07T12:59:30Z</time>
      </trkpt>
      <trkpt lat="43.34619" lon="2.06802">
        <ele>219.8</ele>
        <time>2018-04-07T12:59:43Z</time>
      </trkpt>
      <trkpt lat="43.34615" lon="2.06781">
        <ele>218.84</ele>
        <time>2018-04-07T12:59:57Z</time>
      </trkpt>
      <trkpt lat="43.34609" lon="2.06759">
        <ele>217.88</ele>
        <time>2018-04-07T13:00:12Z</time>
      </trkpt>
      <trkpt lat="43.34608" lon="2.06756">
        <ele>217.88</ele>
        <time>2018-04-07T13:00:14Z</time>
      </trkpt>
      <trkpt lat="43.34604" lon="2.06749">
        <ele>217.88</ele>
        <time>2018-04-07T13:00:19Z</time>
      </trkpt>
      <trkpt lat="43.34598" lon="2.06723">
        <ele>217.4</ele>
        <time>2018-04-07T13:00:37Z</time>
      </trkpt>
      <trkpt lat="43.34587" lon="2.06701">
        <ele>218.36</ele>
        <time>2018-04-07T13:00:53Z</time>
      </trkpt>
      <trkpt lat="43.34585" lon="2.06698">
        <ele>217.4</ele>
        <time>2018-04-07T13:00:55Z</time>
      </trkpt>
      <trkpt lat="43.34571" lon="2.06681">
        <ele>216.91</ele>
        <time>2018-04-07T13:01:12Z</time>
      </trkpt>
      <trkpt lat="43.34566" lon="2.06676">
        <ele>219.8</ele>
        <time>2018-04-07T13:01:17Z</time>
      </trkpt>
      <trkpt lat="43.34566" lon="2.06675">
        <ele>219.8</ele>
        <time>2018-04-07T13:01:18Z</time>
      </trkpt>
      <trkpt lat="43.34558" lon="2.06665">
        <ele>220.28</ele>
        <time>2018-04-07T13:01:27Z</time>
      </trkpt>
      <trkpt lat="43.34553" lon="2.06658">
        <ele>220.76</ele>
        <time>2018-04-07T13:01:32Z</time>
      </trkpt>
      <trkpt lat="43.34542" lon="2.06646">
        <ele>220.76</ele>
        <time>2018-04-07T13:01:45Z</time>
      </trkpt>
      <trkpt lat="43.34531" lon="2.06634">
        <ele>220.76</ele>
        <time>2018-04-07T13:01:57Z</time>
      </trkpt>
      <trkpt lat="43.34526" lon="2.06627">
        <ele>221.24</ele>
        <time>2018-04-07T13:02:05Z</time>
      </trkpt>
      <trkpt lat="43.34518" lon="2.06618">
        <ele>220.28</ele>
        <time>2018-04-07T13:02:14Z</time>
      </trkpt>
      <trkpt lat="43.34517" lon="2.06617">
        <ele>224.61</ele>
        <time>2018-04-07T13:02:15Z</time>
      </trkpt>
      <trkpt lat="43.34504" lon="2.06602">
        <ele>225.57</ele>
        <time>2018-04-07T13:02:30Z</time>
      </trkpt>
      <trkpt lat="43.34497" lon="2.06595">
        <ele>222.68</ele>
        <time>2018-04-07T13:02:38Z</time>
      </trkpt>
      <trkpt lat="43.34491" lon="2.06586">
        <ele>222.68</ele>
        <time>2018-04-07T13:02:46Z</time>
      </trkpt>
      <trkpt lat="43.34487" lon="2.06583">
        <ele>224.61</ele>
        <time>2018-04-07T13:02:50Z</time>
      </trkpt>
      <trkpt lat="43.34486" lon="2.0658">
        <ele>226.53</ele>
        <time>2018-04-07T13:02:52Z</time>
      </trkpt>
      <trkpt lat="43.34481" lon="2.06575">
        <ele>225.57</ele>
        <time>2018-04-07T13:02:58Z</time>
      </trkpt>
      <trkpt lat="43.34469" lon="2.06566">
        <ele>224.61</ele>
        <time>2018-04-07T13:03:09Z</time>
      </trkpt>
      <trkpt lat="43.34467" lon="2.06565">
        <ele>227.97</ele>
        <time>2018-04-07T13:03:11Z</time>
      </trkpt>
      <trkpt lat="43.34466" lon="2.06564">
        <ele>227.01</ele>
        <time>2018-04-07T13:03:12Z</time>
      </trkpt>
      <trkpt lat="43.34446" lon="2.06554">
        <ele>224.12</ele>
        <time>2018-04-07T13:03:30Z</time>
      </trkpt>
      <trkpt lat="43.34445" lon="2.06553">
        <ele>227.01</ele>
        <time>2018-04-07T13:03:31Z</time>
      </trkpt>
      <trkpt lat="43.34427" lon="2.06547">
        <ele>229.89</ele>
        <time>2018-04-07T13:03:47Z</time>
      </trkpt>
      <trkpt lat="43.34426" lon="2.06546">
        <ele>229.41</ele>
        <time>2018-04-07T13:03:48Z</time>
      </trkpt>
      <trkpt lat="43.34425" lon="2.06546">
        <ele>228.45</ele>
        <time>2018-04-07T13:03:49Z</time>
      </trkpt>
      <trkpt lat="43.34417" lon="2.06542">
        <ele>229.89</ele>
        <time>2018-04-07T13:03:56Z</time>
      </trkpt>
      <trkpt lat="43.34414" lon="2.0654">
        <ele>228.45</ele>
        <time>2018-04-07T13:03:59Z</time>
      </trkpt>
      <trkpt lat="43.34403" lon="2.06537">
        <ele>231.33</ele>
        <time>2018-04-07T13:04:10Z</time>
      </trkpt>
      <trkpt lat="43.344" lon="2.06535">
        <ele>227.97</ele>
        <time>2018-04-07T13:04:13Z</time>
      </trkpt>
      <trkpt lat="43.34386" lon="2.06528">
        <ele>229.89</ele>
        <time>2018-04-07T13:04:26Z</time>
      </trkpt>
      <trkpt lat="43.34374" lon="2.06523">
        <ele>228.93</ele>
        <time>2018-04-07T13:04:37Z</time>
      </trkpt>
      <trkpt lat="43.34371" lon="2.06521">
        <ele>229.41</ele>
        <time>2018-04-07T13:04:40Z</time>
      </trkpt>
      <trkpt lat="43.34361" lon="2.06517">
        <ele>229.41</ele>
        <time>2018-04-07T13:04:49Z</time>
      </trkpt>
      <trkpt lat="43.34359" lon="2.06515">
        <ele>233.26</ele>
        <time>2018-04-07T13:04:51Z</time>
      </trkpt>
      <trkpt lat="43.34352" lon="2.06512">
        <ele>234.22</ele>
        <time>2018-04-07T13:04:58Z</time>
      </trkpt>
      <trkpt lat="43.34345" lon="2.0651">
        <ele>231.33</ele>
        <time>2018-04-07T13:05:05Z</time>
      </trkpt>
      <trkpt lat="43.34343" lon="2.06509">
        <ele>231.33</ele>
        <time>2018-04-07T13:05:07Z</time>
      </trkpt>
      <trkpt lat="43.34338" lon="2.06507">
        <ele>231.33</ele>
        <time>2018-04-07T13:05:11Z</time>
      </trkpt>
      <trkpt lat="43.34326" lon="2.06498">
        <ele>232.78</ele>
        <time>2018-04-07T13:05:24Z</time>
      </trkpt>
      <trkpt lat="43.34324" lon="2.06495">
        <ele>232.78</ele>
        <time>2018-04-07T13:05:27Z</time>
      </trkpt>
      <trkpt lat="43.34315" lon="2.06478">
        <ele>233.26</ele>
        <time>2018-04-07T13:05:41Z</time>
      </trkpt>
      <trkpt lat="43.34308" lon="2.06457">
        <ele>233.74</ele>
        <time>2018-04-07T13:05:57Z</time>
      </trkpt>
      <trkpt lat="43.34307" lon="2.06445">
        <ele>233.26</ele>
        <time>2018-04-07T13:06:06Z</time>
      </trkpt>
      <trkpt lat="43.34305" lon="2.06425">
        <ele>234.22</ele>
        <time>2018-04-07T13:06:21Z</time>
      </trkpt>
      <trkpt lat="43.34304" lon="2.06407">
        <ele>236.14</ele>
        <time>2018-04-07T13:06:35Z</time>
      </trkpt>
      <trkpt lat="43.34303" lon="2.06401">
        <ele>233.26</ele>
        <time>2018-04-07T13:06:39Z</time>
      </trkpt>
      <trkpt lat="43.34303" lon="2.06396">
        <ele>236.62</ele>
        <time>2018-04-07T13:06:42Z</time>
      </trkpt>
      <trkpt lat="43.34299" lon="2.06376">
        <ele>236.62</ele>
        <time>2018-04-07T13:06:57Z</time>
      </trkpt>
      <trkpt lat="43.34298" lon="2.0637">
        <ele>240.47</ele>
        <time>2018-04-07T13:07:02Z</time>
      </trkpt>
      <trkpt lat="43.34298" lon="2.06369">
        <ele>239.02</ele>
        <time>2018-04-07T13:07:03Z</time>
      </trkpt>
      <trkpt lat="43.34297" lon="2.06366">
        <ele>238.06</ele>
        <time>2018-04-07T13:07:05Z</time>
      </trkpt>
      <trkpt lat="43.34292" lon="2.06347">
        <ele>237.58</ele>
        <time>2018-04-07T13:07:20Z</time>
      </trkpt>
      <trkpt lat="43.34291" lon="2.06345">
        <ele>238.54</ele>
        <time>2018-04-07T13:07:22Z</time>
      </trkpt>
      <trkpt lat="43.34285" lon="2.06324">
        <ele>240.95</ele>
        <time>2018-04-07T13:07:38Z</time>
      </trkpt>
      <trkpt lat="43.34285" lon="2.06322">
        <ele>237.58</ele>
        <time>2018-04-07T13:07:40Z</time>
      </trkpt>
      <trkpt lat="43.34284" lon="2.06321">
        <ele>237.58</ele>
        <time>2018-04-07T13:07:41Z</time>
      </trkpt>
      <trkpt lat="43.34282" lon="2.06315">
        <ele>236.14</ele>
        <time>2018-04-07T13:07:46Z</time>
      </trkpt>
      <trkpt lat="43.34279" lon="2.06309">
        <ele>235.66</ele>
        <time>2018-04-07T13:07:51Z</time>
      </trkpt>
      <trkpt lat="43.34273" lon="2.06291">
        <ele>234.22</ele>
        <time>2018-04-07T13:08:06Z</time>
      </trkpt>
      <trkpt lat="43.34267" lon="2.06272">
        <ele>233.74</ele>
        <time>2018-04-07T13:08:22Z</time>
      </trkpt>
      <trkpt lat="43.34262" lon="2.06256">
        <ele>233.26</ele>
        <time>2018-04-07T13:08:36Z</time>
      </trkpt>
      <trkpt lat="43.34253" lon="2.06233">
        <ele>231.33</ele>
        <time>2018-04-07T13:08:54Z</time>
      </trkpt>
      <trkpt lat="43.34247" lon="2.06215">
        <ele>229.41</ele>
        <time>2018-04-07T13:09:08Z</time>
      </trkpt>
      <trkpt lat="43.34244" lon="2.06206">
        <ele>228.93</ele>
        <time>2018-04-07T13:09:15Z</time>
      </trkpt>
      <trkpt lat="43.34236" lon="2.06187">
        <ele>228.45</ele>
        <time>2018-04-07T13:09:30Z</time>
      </trkpt>
      <trkpt lat="43.34231" lon="2.06171">
        <ele>226.05</ele>
        <time>2018-04-07T13:09:43Z</time>
      </trkpt>
      <trkpt lat="43.34222" lon="2.06149">
        <ele>226.53</ele>
        <time>2018-04-07T13:10:01Z</time>
      </trkpt>
      <trkpt lat="43.34215" lon="2.06129">
        <ele>224.61</ele>
        <time>2018-04-07T13:10:17Z</time>
      </trkpt>
      <trkpt lat="43.34207" lon="2.06104">
        <ele>223.64</ele>
        <time>2018-04-07T13:10:36Z</time>
      </trkpt>
      <trkpt lat="43.34198" lon="2.06081">
        <ele>222.2</ele>
        <time>2018-04-07T13:10:54Z</time>
      </trkpt>
      <trkpt lat="43.34197" lon="2.0608">
        <ele>222.68</ele>
        <time>2018-04-07T13:10:55Z</time>
      </trkpt>
      <trkpt lat="43.34196" lon="2.06074">
        <ele>221.24</ele>
        <time>2018-04-07T13:10:59Z</time>
      </trkpt>
      <trkpt lat="43.34192" lon="2.06065">
        <ele>220.28</ele>
        <time>2018-04-07T13:11:12Z</time>
      </trkpt>
      <trkpt lat="43.34188" lon="2.0605">
        <ele>219.8</ele>
        <time>2018-04-07T13:11:27Z</time>
      </trkpt>
      <trkpt lat="43.34181" lon="2.06026">
        <ele>217.88</ele>
        <time>2018-04-07T13:11:44Z</time>
      </trkpt>
      <trkpt lat="43.34173" lon="2.06007">
        <ele>219.32</ele>
        <time>2018-04-07T13:12:00Z</time>
      </trkpt>
      <trkpt lat="43.34172" lon="2.06005">
        <ele>217.88</ele>
        <time>2018-04-07T13:12:02Z</time>
      </trkpt>
      <trkpt lat="43.34171" lon="2.06001">
        <ele>215.95</ele>
        <time>2018-04-07T13:12:06Z</time>
      </trkpt>
      <trkpt lat="43.34169" lon="2.05998">
        <ele>214.99</ele>
        <time>2018-04-07T13:12:09Z</time>
      </trkpt>
      <trkpt lat="43.34161" lon="2.05976">
        <ele>215.95</ele>
        <time>2018-04-07T13:12:27Z</time>
      </trkpt>
      <trkpt lat="43.34153" lon="2.05955">
        <ele>213.55</ele>
        <time>2018-04-07T13:12:44Z</time>
      </trkpt>
      <trkpt lat="43.34153" lon="2.05954">
        <ele>213.55</ele>
        <time>2018-04-07T13:12:45Z</time>
      </trkpt>
      <trkpt lat="43.34148" lon="2.05935">
        <ele>212.11</ele>
        <time>2018-04-07T13:13:00Z</time>
      </trkpt>
      <trkpt lat="43.34139" lon="2.05912">
        <ele>210.67</ele>
        <time>2018-04-07T13:13:50Z</time>
      </trkpt>
      <trkpt lat="43.3413" lon="2.05886">
        <ele>210.19</ele>
        <time>2018-04-07T13:14:10Z</time>
      </trkpt>
      <trkpt lat="43.34126" lon="2.0587">
        <ele>210.19</ele>
        <time>2018-04-07T13:14:24Z</time>
      </trkpt>
      <trkpt lat="43.34119" lon="2.05848">
        <ele>209.22</ele>
        <time>2018-04-07T13:14:41Z</time>
      </trkpt>
      <trkpt lat="43.34119" lon="2.05832">
        <ele>208.26</ele>
        <time>2018-04-07T13:14:53Z</time>
      </trkpt>
      <trkpt lat="43.34121" lon="2.05829">
        <ele>208.26</ele>
        <time>2018-04-07T13:14:56Z</time>
      </trkpt>
      <trkpt lat="43.34133" lon="2.05821">
        <ele>208.74</ele>
        <time>2018-04-07T13:15:10Z</time>
      </trkpt>
      <trkpt lat="43.34134" lon="2.05819">
        <ele>210.19</ele>
        <time>2018-04-07T13:15:28Z</time>
      </trkpt>
      <trkpt lat="43.34141" lon="2.05813">
        <ele>209.22</ele>
        <time>2018-04-07T13:15:51Z</time>
      </trkpt>
      <trkpt lat="43.34153" lon="2.0581">
        <ele>210.67</ele>
        <time>2018-04-07T13:16:04Z</time>
      </trkpt>
      <trkpt lat="43.34163" lon="2.05805">
        <ele>210.67</ele>
        <time>2018-04-07T13:16:17Z</time>
      </trkpt>
      <trkpt lat="43.34176" lon="2.05793">
        <ele>213.07</ele>
        <time>2018-04-07T13:16:32Z</time>
      </trkpt>
      <trkpt lat="43.34186" lon="2.05781">
        <ele>213.07</ele>
        <time>2018-04-07T13:16:47Z</time>
      </trkpt>
      <trkpt lat="43.34196" lon="2.05765">
        <ele>214.51</ele>
        <time>2018-04-07T13:17:00Z</time>
      </trkpt>
      <trkpt lat="43.34202" lon="2.05755">
        <ele>216.91</ele>
        <time>2018-04-07T13:17:10Z</time>
      </trkpt>
      <trkpt lat="43.34206" lon="2.0575">
        <ele>217.4</ele>
        <time>2018-04-07T13:17:16Z</time>
      </trkpt>
      <trkpt lat="43.34213" lon="2.05739">
        <ele>217.88</ele>
        <time>2018-04-07T13:17:26Z</time>
      </trkpt>
      <trkpt lat="43.34216" lon="2.05732">
        <ele>217.88</ele>
        <time>2018-04-07T13:17:32Z</time>
      </trkpt>
      <trkpt lat="43.34219" lon="2.05726">
        <ele>219.32</ele>
        <time>2018-04-07T13:17:38Z</time>
      </trkpt>
      <trkpt lat="43.34221" lon="2.05723">
        <ele>218.36</ele>
        <time>2018-04-07T13:17:41Z</time>
      </trkpt>
      <trkpt lat="43.34228" lon="2.05704">
        <ele>216.43</ele>
        <time>2018-04-07T13:17:56Z</time>
      </trkpt>
      <trkpt lat="43.3423" lon="2.057">
        <ele>218.36</ele>
        <time>2018-04-07T13:18:00Z</time>
      </trkpt>
      <trkpt lat="43.34233" lon="2.05694">
        <ele>215.95</ele>
        <time>2018-04-07T13:18:05Z</time>
      </trkpt>
      <trkpt lat="43.34242" lon="2.05677">
        <ele>214.99</ele>
        <time>2018-04-07T13:18:21Z</time>
      </trkpt>
      <trkpt lat="43.34249" lon="2.05666">
        <ele>214.03</ele>
        <time>2018-04-07T13:18:31Z</time>
      </trkpt>
      <trkpt lat="43.34251" lon="2.05657">
        <ele>214.51</ele>
        <time>2018-04-07T13:19:41Z</time>
      </trkpt>
      <trkpt lat="43.34252" lon="2.05656">
        <ele>215.95</ele>
        <time>2018-04-07T13:19:43Z</time>
      </trkpt>
      <trkpt lat="43.34262" lon="2.05642">
        <ele>214.03</ele>
        <time>2018-04-07T13:19:57Z</time>
      </trkpt>
      <trkpt lat="43.34264" lon="2.05639">
        <ele>213.07</ele>
        <time>2018-04-07T13:20:00Z</time>
      </trkpt>
      <trkpt lat="43.34275" lon="2.05628">
        <ele>212.59</ele>
        <time>2018-04-07T13:20:14Z</time>
      </trkpt>
      <trkpt lat="43.34286" lon="2.05615">
        <ele>211.63</ele>
        <time>2018-04-07T13:20:28Z</time>
      </trkpt>
      <trkpt lat="43.34289" lon="2.05608">
        <ele>211.63</ele>
        <time>2018-04-07T13:21:20Z</time>
      </trkpt>
      <trkpt lat="43.34291" lon="2.05607">
        <ele>211.63</ele>
        <time>2018-04-07T13:21:49Z</time>
      </trkpt>
      <trkpt lat="43.34305" lon="2.05599">
        <ele>209.22</ele>
        <time>2018-04-07T13:22:24Z</time>
      </trkpt>
      <trkpt lat="43.34308" lon="2.05594">
        <ele>211.63</ele>
        <time>2018-04-07T13:22:30Z</time>
      </trkpt>
      <trkpt lat="43.34312" lon="2.05593">
        <ele>212.11</ele>
        <time>2018-04-07T13:22:34Z</time>
      </trkpt>
      <trkpt lat="43.34314" lon="2.05592">
        <ele>210.19</ele>
        <time>2018-04-07T13:22:36Z</time>
      </trkpt>
      <trkpt lat="43.34317" lon="2.0559">
        <ele>211.63</ele>
        <time>2018-04-07T13:22:40Z</time>
      </trkpt>
      <trkpt lat="43.34322" lon="2.05585">
        <ele>210.19</ele>
        <time>2018-04-07T13:22:46Z</time>
      </trkpt>
      <trkpt lat="43.34323" lon="2.05584">
        <ele>211.15</ele>
        <time>2018-04-07T13:22:48Z</time>
      </trkpt>
      <trkpt lat="43.34331" lon="2.05578">
        <ele>213.55</ele>
        <time>2018-04-07T13:22:58Z</time>
      </trkpt>
      <trkpt lat="43.34342" lon="2.05572">
        <ele>213.07</ele>
        <time>2018-04-07T13:23:10Z</time>
      </trkpt>
      <trkpt lat="43.34348" lon="2.05568">
        <ele>213.55</ele>
        <time>2018-04-07T13:23:21Z</time>
      </trkpt>
      <trkpt lat="43.34349" lon="2.05568">
        <ele>213.07</ele>
        <time>2018-04-07T13:23:22Z</time>
      </trkpt>
      <trkpt lat="43.34358" lon="2.05561">
        <ele>214.51</ele>
        <time>2018-04-07T13:23:34Z</time>
      </trkpt>
      <trkpt lat="43.34369" lon="2.05552">
        <ele>215.95</ele>
        <time>2018-04-07T13:23:48Z</time>
      </trkpt>
      <trkpt lat="43.3438" lon="2.05541">
        <ele>216.91</ele>
        <time>2018-04-07T13:24:03Z</time>
      </trkpt>
      <trkpt lat="43.3439" lon="2.05531">
        <ele>217.88</ele>
        <time>2018-04-07T13:24:13Z</time>
      </trkpt>
      <trkpt lat="43.34393" lon="2.05529">
        <ele>218.36</ele>
        <time>2018-04-07T13:24:16Z</time>
      </trkpt>
      <trkpt lat="43.34404" lon="2.05518">
        <ele>218.84</ele>
        <time>2018-04-07T13:24:27Z</time>
      </trkpt>
      <trkpt lat="43.34414" lon="2.05508">
        <ele>218.84</ele>
        <time>2018-04-07T13:24:40Z</time>
      </trkpt>
      <trkpt lat="43.34424" lon="2.05496">
        <ele>218.36</ele>
        <time>2018-04-07T13:24:53Z</time>
      </trkpt>
      <trkpt lat="43.34435" lon="2.05486">
        <ele>219.8</ele>
        <time>2018-04-07T13:25:06Z</time>
      </trkpt>
      <trkpt lat="43.34444" lon="2.05476">
        <ele>217.4</ele>
        <time>2018-04-07T13:25:18Z</time>
      </trkpt>
      <trkpt lat="43.34448" lon="2.05471">
        <ele>218.84</ele>
        <time>2018-04-07T13:25:23Z</time>
      </trkpt>
      <trkpt lat="43.34451" lon="2.05468">
        <ele>217.4</ele>
        <time>2018-04-07T13:25:26Z</time>
      </trkpt>
      <trkpt lat="43.34463" lon="2.05455">
        <ele>218.84</ele>
        <time>2018-04-07T13:25:41Z</time>
      </trkpt>
      <trkpt lat="43.34475" lon="2.05443">
        <ele>220.28</ele>
        <time>2018-04-07T13:25:56Z</time>
      </trkpt>
      <trkpt lat="43.34489" lon="2.05433">
        <ele>217.88</ele>
        <time>2018-04-07T13:26:10Z</time>
      </trkpt>
      <trkpt lat="43.34501" lon="2.05413">
        <ele>218.84</ele>
        <time>2018-04-07T13:26:26Z</time>
      </trkpt>
      <trkpt lat="43.34508" lon="2.054">
        <ele>219.8</ele>
        <time>2018-04-07T13:26:37Z</time>
      </trkpt>
      <trkpt lat="43.34509" lon="2.05397">
        <ele>219.32</ele>
        <time>2018-04-07T13:26:40Z</time>
      </trkpt>
      <trkpt lat="43.34518" lon="2.05382">
        <ele>219.8</ele>
        <time>2018-04-07T13:26:52Z</time>
      </trkpt>
      <trkpt lat="43.3453" lon="2.05365">
        <ele>220.76</ele>
        <time>2018-04-07T13:27:08Z</time>
      </trkpt>
      <trkpt lat="43.34541" lon="2.05355">
        <ele>220.76</ele>
        <time>2018-04-07T13:27:22Z</time>
      </trkpt>
      <trkpt lat="43.34555" lon="2.05341">
        <ele>221.24</ele>
        <time>2018-04-07T13:27:38Z</time>
      </trkpt>
      <trkpt lat="43.34568" lon="2.05326">
        <ele>221.72</ele>
        <time>2018-04-07T13:27:52Z</time>
      </trkpt>
      <trkpt lat="43.34572" lon="2.05323">
        <ele>221.24</ele>
        <time>2018-04-07T13:27:56Z</time>
      </trkpt>
      <trkpt lat="43.34583" lon="2.05306">
        <ele>221.72</ele>
        <time>2018-04-07T13:28:10Z</time>
      </trkpt>
      <trkpt lat="43.34587" lon="2.05297">
        <ele>221.72</ele>
        <time>2018-04-07T13:28:17Z</time>
      </trkpt>
      <trkpt lat="43.34596" lon="2.05281">
        <ele>222.2</ele>
        <time>2018-04-07T13:28:32Z</time>
      </trkpt>
      <trkpt lat="43.34603" lon="2.05262">
        <ele>221.72</ele>
        <time>2018-04-07T13:28:47Z</time>
      </trkpt>
      <trkpt lat="43.34611" lon="2.05242">
        <ele>222.68</ele>
        <time>2018-04-07T13:34:24Z</time>
      </trkpt>
      <trkpt lat="43.34617" lon="2.05226">
        <ele>223.16</ele>
        <time>2018-04-07T13:34:39Z</time>
      </trkpt>
      <trkpt lat="43.34619" lon="2.05218">
        <ele>224.12</ele>
        <time>2018-04-07T13:34:44Z</time>
      </trkpt>
      <trkpt lat="43.34626" lon="2.05202">
        <ele>223.64</ele>
        <time>2018-04-07T13:34:57Z</time>
      </trkpt>
      <trkpt lat="43.34634" lon="2.05179">
        <ele>225.09</ele>
        <time>2018-04-07T13:35:15Z</time>
      </trkpt>
      <trkpt lat="43.34641" lon="2.05159">
        <ele>223.64</ele>
        <time>2018-04-07T13:35:31Z</time>
      </trkpt>
      <trkpt lat="43.34648" lon="2.0514">
        <ele>223.64</ele>
        <time>2018-04-07T13:35:46Z</time>
      </trkpt>
      <trkpt lat="43.34651" lon="2.05133">
        <ele>223.16</ele>
        <time>2018-04-07T13:35:51Z</time>
      </trkpt>
      <trkpt lat="43.34654" lon="2.05124">
        <ele>224.12</ele>
        <time>2018-04-07T13:35:58Z</time>
      </trkpt>
      <trkpt lat="43.34655" lon="2.05123">
        <ele>225.57</ele>
        <time>2018-04-07T13:35:59Z</time>
      </trkpt>
      <trkpt lat="43.34657" lon="2.05117">
        <ele>224.61</ele>
        <time>2018-04-07T13:36:03Z</time>
      </trkpt>
      <trkpt lat="43.34658" lon="2.05113">
        <ele>225.09</ele>
        <time>2018-04-07T13:36:06Z</time>
      </trkpt>
      <trkpt lat="43.34661" lon="2.05107">
        <ele>225.57</ele>
        <time>2018-04-07T13:36:11Z</time>
      </trkpt>
      <trkpt lat="43.34668" lon="2.05085">
        <ele>224.12</ele>
        <time>2018-04-07T13:36:27Z</time>
      </trkpt>
      <trkpt lat="43.34674" lon="2.05066">
        <ele>224.12</ele>
        <time>2018-04-07T13:36:42Z</time>
      </trkpt>
      <trkpt lat="43.3468" lon="2.05051">
        <ele>224.61</ele>
        <time>2018-04-07T13:36:54Z</time>
      </trkpt>
      <trkpt lat="43.34688" lon="2.05029">
        <ele>223.64</ele>
        <time>2018-04-07T13:37:11Z</time>
      </trkpt>
      <trkpt lat="43.34694" lon="2.0501">
        <ele>223.64</ele>
        <time>2018-04-07T13:37:25Z</time>
      </trkpt>
      <trkpt lat="43.34702" lon="2.04994">
        <ele>224.61</ele>
        <time>2018-04-07T13:37:39Z</time>
      </trkpt>
      <trkpt lat="43.34706" lon="2.04983">
        <ele>222.2</ele>
        <time>2018-04-07T13:37:48Z</time>
      </trkpt>
      <trkpt lat="43.34712" lon="2.04966">
        <ele>223.64</ele>
        <time>2018-04-07T13:38:01Z</time>
      </trkpt>
      <trkpt lat="43.34718" lon="2.04945">
        <ele>221.24</ele>
        <time>2018-04-07T13:38:16Z</time>
      </trkpt>
      <trkpt lat="43.34724" lon="2.04928">
        <ele>223.64</ele>
        <time>2018-04-07T13:38:28Z</time>
      </trkpt>
      <trkpt lat="43.34728" lon="2.04912">
        <ele>221.24</ele>
        <time>2018-04-07T13:38:40Z</time>
      </trkpt>
      <trkpt lat="43.34734" lon="2.04893">
        <ele>222.2</ele>
        <time>2018-04-07T13:38:54Z</time>
      </trkpt>
      <trkpt lat="43.34735" lon="2.0489">
        <ele>221.72</ele>
        <time>2018-04-07T13:38:56Z</time>
      </trkpt>
      <trkpt lat="43.34738" lon="2.04874">
        <ele>219.32</ele>
        <time>2018-04-07T13:39:08Z</time>
      </trkpt>
      <trkpt lat="43.34741" lon="2.04851">
        <ele>219.32</ele>
        <time>2018-04-07T13:39:24Z</time>
      </trkpt>
      <trkpt lat="43.34744" lon="2.04827">
        <ele>216.91</ele>
        <time>2018-04-07T13:39:40Z</time>
      </trkpt>
      <trkpt lat="43.34746" lon="2.04805">
        <ele>217.4</ele>
        <time>2018-04-07T13:39:55Z</time>
      </trkpt>
      <trkpt lat="43.34749" lon="2.04782">
        <ele>217.4</ele>
        <time>2018-04-07T13:40:11Z</time>
      </trkpt>
      <trkpt lat="43.34749" lon="2.04778">
        <ele>215.95</ele>
        <time>2018-04-07T13:40:14Z</time>
      </trkpt>
      <trkpt lat="43.34752" lon="2.04752">
        <ele>214.03</ele>
        <time>2018-04-07T13:40:32Z</time>
      </trkpt>
      <trkpt lat="43.34752" lon="2.04748">
        <ele>215.95</ele>
        <time>2018-04-07T13:40:35Z</time>
      </trkpt>
      <trkpt lat="43.34751" lon="2.04725">
        <ele>214.03</ele>
        <time>2018-04-07T13:40:51Z</time>
      </trkpt>
      <trkpt lat="43.34748" lon="2.04702">
        <ele>213.07</ele>
        <time>2018-04-07T13:41:07Z</time>
      </trkpt>
      <trkpt lat="43.34747" lon="2.04699">
        <ele>212.59</ele>
        <time>2018-04-07T13:41:10Z</time>
      </trkpt>
      <trkpt lat="43.34744" lon="2.04691">
        <ele>212.59</ele>
        <time>2018-04-07T13:41:16Z</time>
      </trkpt>
      <trkpt lat="43.34743" lon="2.04684">
        <ele>210.67</ele>
        <time>2018-04-07T13:41:21Z</time>
      </trkpt>
      <trkpt lat="43.34736" lon="2.04664">
        <ele>210.67</ele>
        <time>2018-04-07T13:41:36Z</time>
      </trkpt>
      <trkpt lat="43.34732" lon="2.04652">
        <ele>208.74</ele>
        <time>2018-04-07T13:41:48Z</time>
      </trkpt>
      <trkpt lat="43.34731" lon="2.04648">
        <ele>210.19</ele>
        <time>2018-04-07T13:41:51Z</time>
      </trkpt>
      <trkpt lat="43.34725" lon="2.04628">
        <ele>207.3</ele>
        <time>2018-04-07T13:42:05Z</time>
      </trkpt>
      <trkpt lat="43.34718" lon="2.04605">
        <ele>205.86</ele>
        <time>2018-04-07T13:42:22Z</time>
      </trkpt>
      <trkpt lat="43.34709" lon="2.04584">
        <ele>205.38</ele>
        <time>2018-04-07T13:42:38Z</time>
      </trkpt>
      <trkpt lat="43.34705" lon="2.04574">
        <ele>208.26</ele>
        <time>2018-04-07T13:42:46Z</time>
      </trkpt>
      <trkpt lat="43.34697" lon="2.04554">
        <ele>204.9</ele>
        <time>2018-04-07T13:43:01Z</time>
      </trkpt>
      <trkpt lat="43.34695" lon="2.04541">
        <ele>203.94</ele>
        <time>2018-04-07T13:43:10Z</time>
      </trkpt>
      <trkpt lat="43.34694" lon="2.04538">
        <ele>203.94</ele>
        <time>2018-04-07T13:43:12Z</time>
      </trkpt>
      <trkpt lat="43.34695" lon="2.04513">
        <ele>202.98</ele>
        <time>2018-04-07T13:43:28Z</time>
      </trkpt>
      <trkpt lat="43.347" lon="2.04496">
        <ele>202.49</ele>
        <time>2018-04-07T13:43:42Z</time>
      </trkpt>
      <trkpt lat="43.34702" lon="2.04488">
        <ele>203.94</ele>
        <time>2018-04-07T13:43:48Z</time>
      </trkpt>
      <trkpt lat="43.34706" lon="2.04475">
        <ele>204.42</ele>
        <time>2018-04-07T13:43:58Z</time>
      </trkpt>
      <trkpt lat="43.34706" lon="2.04474">
        <ele>204.42</ele>
        <time>2018-04-07T13:43:59Z</time>
      </trkpt>
      <trkpt lat="43.34716" lon="2.04455">
        <ele>203.46</ele>
        <time>2018-04-07T13:44:14Z</time>
      </trkpt>
      <trkpt lat="43.34723" lon="2.04441">
        <ele>202.98</ele>
        <time>2018-04-07T13:44:27Z</time>
      </trkpt>
      <trkpt lat="43.34728" lon="2.04424">
        <ele>202.01</ele>
        <time>2018-04-07T13:44:41Z</time>
      </trkpt>
      <trkpt lat="43.3473" lon="2.0441">
        <ele>200.57</ele>
        <time>2018-04-07T13:44:54Z</time>
      </trkpt>
      <trkpt lat="43.34731" lon="2.04407">
        <ele>199.61</ele>
        <time>2018-04-07T13:44:56Z</time>
      </trkpt>
      <trkpt lat="43.34732" lon="2.04399">
        <ele>200.57</ele>
        <time>2018-04-07T13:45:02Z</time>
      </trkpt>
      <trkpt lat="43.34732" lon="2.04374">
        <ele>200.57</ele>
        <time>2018-04-07T13:45:18Z</time>
      </trkpt>
      <trkpt lat="43.34731" lon="2.04356">
        <ele>199.61</ele>
        <time>2018-04-07T13:45:30Z</time>
      </trkpt>
      <trkpt lat="43.3473" lon="2.04335">
        <ele>199.13</ele>
        <time>2018-04-07T13:45:43Z</time>
      </trkpt>
      <trkpt lat="43.34729" lon="2.04313">
        <ele>198.65</ele>
        <time>2018-04-07T13:45:58Z</time>
      </trkpt>
      <trkpt lat="43.34728" lon="2.04294">
        <ele>197.21</ele>
        <time>2018-04-07T13:46:12Z</time>
      </trkpt>
      <trkpt lat="43.34727" lon="2.04273">
        <ele>196.25</ele>
        <time>2018-04-07T13:46:26Z</time>
      </trkpt>
      <trkpt lat="43.34724" lon="2.04254">
        <ele>194.32</ele>
        <time>2018-04-07T13:46:39Z</time>
      </trkpt>
      <trkpt lat="43.34725" lon="2.04245">
        <ele>195.28</ele>
        <time>2018-04-07T13:46:46Z</time>
      </trkpt>
      <trkpt lat="43.34723" lon="2.04222">
        <ele>193.36</ele>
        <time>2018-04-07T13:47:02Z</time>
      </trkpt>
      <trkpt lat="43.34724" lon="2.0422">
        <ele>194.32</ele>
        <time>2018-04-07T13:47:04Z</time>
      </trkpt>
      <trkpt lat="43.34724" lon="2.04198">
        <ele>193.84</ele>
        <time>2018-04-07T13:47:21Z</time>
      </trkpt>
      <trkpt lat="43.34725" lon="2.04192">
        <ele>194.32</ele>
        <time>2018-04-07T13:47:25Z</time>
      </trkpt>
      <trkpt lat="43.34725" lon="2.04183">
        <ele>194.32</ele>
        <time>2018-04-07T13:47:31Z</time>
      </trkpt>
      <trkpt lat="43.34726" lon="2.04171">
        <ele>194.8</ele>
        <time>2018-04-07T13:47:44Z</time>
      </trkpt>
      <trkpt lat="43.34704" lon="2.04127">
        <ele>191.92</ele>
        <time>2018-04-07T13:51:29Z</time>
      </trkpt>
      <trkpt lat="43.34702" lon="2.04127">
        <ele>192.88</ele>
        <time>2018-04-07T13:51:32Z</time>
      </trkpt>
      <trkpt lat="43.34695" lon="2.04114">
        <ele>193.36</ele>
        <time>2018-04-07T13:51:45Z</time>
      </trkpt>
      <trkpt lat="43.34693" lon="2.04111">
        <ele>190.96</ele>
        <time>2018-04-07T13:51:49Z</time>
      </trkpt>
      <trkpt lat="43.34689" lon="2.04104">
        <ele>189.04</ele>
        <time>2018-04-07T13:51:59Z</time>
      </trkpt>
      <trkpt lat="43.34685" lon="2.04091">
        <ele>187.59</ele>
        <time>2018-04-07T13:52:13Z</time>
      </trkpt>
      <trkpt lat="43.34683" lon="2.04086">
        <ele>185.67</ele>
        <time>2018-04-07T13:52:18Z</time>
      </trkpt>
      <trkpt lat="43.34678" lon="2.0408">
        <ele>187.11</ele>
        <time>2018-04-07T13:52:23Z</time>
      </trkpt>
      <trkpt lat="43.34673" lon="2.04062">
        <ele>187.59</ele>
        <time>2018-04-07T13:52:39Z</time>
      </trkpt>
      <trkpt lat="43.34666" lon="2.04054">
        <ele>185.19</ele>
        <time>2018-04-07T13:53:19Z</time>
      </trkpt>
      <trkpt lat="43.34663" lon="2.0405">
        <ele>187.11</ele>
        <time>2018-04-07T13:53:32Z</time>
      </trkpt>
      <trkpt lat="43.34649" lon="2.04053">
        <ele>186.15</ele>
        <time>2018-04-07T13:53:45Z</time>
      </trkpt>
      <trkpt lat="43.34636" lon="2.0405">
        <ele>186.63</ele>
        <time>2018-04-07T13:53:58Z</time>
      </trkpt>
      <trkpt lat="43.34619" lon="2.04047">
        <ele>184.23</ele>
        <time>2018-04-07T13:54:12Z</time>
      </trkpt>
      <trkpt lat="43.34605" lon="2.04048">
        <ele>184.23</ele>
        <time>2018-04-07T13:54:26Z</time>
      </trkpt>
      <trkpt lat="43.34589" lon="2.04046">
        <ele>184.23</ele>
        <time>2018-04-07T13:54:42Z</time>
      </trkpt>
      <trkpt lat="43.34577" lon="2.04047">
        <ele>183.75</ele>
        <time>2018-04-07T13:54:59Z</time>
      </trkpt>
      <trkpt lat="43.34569" lon="2.04047">
        <ele>183.75</ele>
        <time>2018-04-07T13:55:06Z</time>
      </trkpt>
      <trkpt lat="43.34554" lon="2.04046">
        <ele>184.23</ele>
        <time>2018-04-07T13:55:20Z</time>
      </trkpt>
      <trkpt lat="43.34538" lon="2.04043">
        <ele>183.27</ele>
        <time>2018-04-07T13:55:36Z</time>
      </trkpt>
      <trkpt lat="43.34532" lon="2.04027">
        <ele>182.31</ele>
        <time>2018-04-07T13:55:51Z</time>
      </trkpt>
      <trkpt lat="43.3453" lon="2.04022">
        <ele>183.75</ele>
        <time>2018-04-07T13:55:57Z</time>
      </trkpt>
      <trkpt lat="43.34515" lon="2.04017">
        <ele>182.79</ele>
        <time>2018-04-07T13:56:11Z</time>
      </trkpt>
      <trkpt lat="43.34508" lon="2.04014">
        <ele>183.27</ele>
        <time>2018-04-07T13:56:18Z</time>
      </trkpt>
      <trkpt lat="43.345" lon="2.0401">
        <ele>183.27</ele>
        <time>2018-04-07T13:56:27Z</time>
      </trkpt>
      <trkpt lat="43.34481" lon="2.04003">
        <ele>184.23</ele>
        <time>2018-04-07T13:56:48Z</time>
      </trkpt>
      <trkpt lat="43.34465" lon="2.03996">
        <ele>184.23</ele>
        <time>2018-04-07T13:57:05Z</time>
      </trkpt>
      <trkpt lat="43.34453" lon="2.03988">
        <ele>183.75</ele>
        <time>2018-04-07T13:57:18Z</time>
      </trkpt>
      <trkpt lat="43.34444" lon="2.03981">
        <ele>184.71</ele>
        <time>2018-04-07T13:57:28Z</time>
      </trkpt>
      <trkpt lat="43.34428" lon="2.03971">
        <ele>184.71</ele>
        <time>2018-04-07T13:57:45Z</time>
      </trkpt>
      <trkpt lat="43.34423" lon="2.03966">
        <ele>184.71</ele>
        <time>2018-04-07T13:57:51Z</time>
      </trkpt>
      <trkpt lat="43.34408" lon="2.03952">
        <ele>184.71</ele>
        <time>2018-04-07T13:58:07Z</time>
      </trkpt>
      <trkpt lat="43.344" lon="2.03943">
        <ele>182.31</ele>
        <time>2018-04-07T13:58:16Z</time>
      </trkpt>
      <trkpt lat="43.34386" lon="2.03932">
        <ele>183.75</ele>
        <time>2018-04-07T13:58:31Z</time>
      </trkpt>
      <trkpt lat="43.34374" lon="2.03923">
        <ele>184.23</ele>
        <time>2018-04-07T13:58:43Z</time>
      </trkpt>
      <trkpt lat="43.34359" lon="2.03911">
        <ele>183.27</ele>
        <time>2018-04-07T13:58:59Z</time>
      </trkpt>
      <trkpt lat="43.34343" lon="2.03898">
        <ele>184.23</ele>
        <time>2018-04-07T13:59:14Z</time>
      </trkpt>
      <trkpt lat="43.34337" lon="2.03892">
        <ele>182.79</ele>
        <time>2018-04-07T13:59:20Z</time>
      </trkpt>
      <trkpt lat="43.34323" lon="2.03883">
        <ele>182.31</ele>
        <time>2018-04-07T13:59:34Z</time>
      </trkpt>
      <trkpt lat="43.3431" lon="2.03871">
        <ele>181.35</ele>
        <time>2018-04-07T13:59:48Z</time>
      </trkpt>
      <trkpt lat="43.343" lon="2.03861">
        <ele>179.9</ele>
        <time>2018-04-07T14:00:01Z</time>
      </trkpt>
      <trkpt lat="43.34296" lon="2.03856">
        <ele>177.98</ele>
        <time>2018-04-07T14:00:06Z</time>
      </trkpt>
      <trkpt lat="43.34293" lon="2.03854">
        <ele>180.38</ele>
        <time>2018-04-07T14:00:09Z</time>
      </trkpt>
      <trkpt lat="43.34282" lon="2.03844">
        <ele>179.42</ele>
        <time>2018-04-07T14:00:21Z</time>
      </trkpt>
      <trkpt lat="43.34278" lon="2.03842">
        <ele>178.46</ele>
        <time>2018-04-07T14:00:25Z</time>
      </trkpt>
      <trkpt lat="43.34272" lon="2.03846">
        <ele>178.94</ele>
        <time>2018-04-07T14:00:34Z</time>
      </trkpt>
      <trkpt lat="43.34261" lon="2.03858">
        <ele>180.38</ele>
        <time>2018-04-07T14:00:49Z</time>
      </trkpt>
      <trkpt lat="43.34258" lon="2.0386">
        <ele>181.35</ele>
        <time>2018-04-07T14:00:53Z</time>
      </trkpt>
      <trkpt lat="43.34247" lon="2.03872">
        <ele>183.27</ele>
        <time>2018-04-07T14:01:07Z</time>
      </trkpt>
      <trkpt lat="43.34241" lon="2.03879">
        <ele>181.83</ele>
        <time>2018-04-07T14:01:15Z</time>
      </trkpt>
      <trkpt lat="43.34239" lon="2.03882">
        <ele>182.31</ele>
        <time>2018-04-07T14:01:18Z</time>
      </trkpt>
      <trkpt lat="43.34227" lon="2.03892">
        <ele>183.27</ele>
        <time>2018-04-07T14:01:32Z</time>
      </trkpt>
      <trkpt lat="43.34219" lon="2.03894">
        <ele>183.27</ele>
        <time>2018-04-07T14:01:38Z</time>
      </trkpt>
      <trkpt lat="43.34204" lon="2.03894">
        <ele>183.27</ele>
        <time>2018-04-07T14:01:53Z</time>
      </trkpt>
      <trkpt lat="43.34191" lon="2.03894">
        <ele>184.23</ele>
        <time>2018-04-07T14:02:06Z</time>
      </trkpt>
      <trkpt lat="43.34186" lon="2.03895">
        <ele>183.75</ele>
        <time>2018-04-07T14:02:12Z</time>
      </trkpt>
      <trkpt lat="43.34168" lon="2.03901">
        <ele>182.31</ele>
        <time>2018-04-07T14:02:27Z</time>
      </trkpt>
      <trkpt lat="43.34153" lon="2.03903">
        <ele>182.79</ele>
        <time>2018-04-07T14:02:41Z</time>
      </trkpt>
      <trkpt lat="43.34138" lon="2.03904">
        <ele>183.27</ele>
        <time>2018-04-07T14:02:55Z</time>
      </trkpt>
      <trkpt lat="43.34122" lon="2.03904">
        <ele>183.27</ele>
        <time>2018-04-07T14:03:09Z</time>
      </trkpt>
      <trkpt lat="43.34111" lon="2.03903">
        <ele>182.79</ele>
        <time>2018-04-07T14:03:20Z</time>
      </trkpt>
      <trkpt lat="43.34099" lon="2.03913">
        <ele>184.23</ele>
        <time>2018-04-07T14:03:33Z</time>
      </trkpt>
      <trkpt lat="43.34095" lon="2.03912">
        <ele>184.71</ele>
        <time>2018-04-07T14:03:37Z</time>
      </trkpt>
      <trkpt lat="43.34091" lon="2.03909">
        <ele>184.23</ele>
        <time>2018-04-07T14:03:41Z</time>
      </trkpt>
      <trkpt lat="43.34082" lon="2.03901">
        <ele>183.27</ele>
        <time>2018-04-07T14:03:51Z</time>
      </trkpt>
      <trkpt lat="43.34076" lon="2.03894">
        <ele>186.15</ele>
        <time>2018-04-07T14:03:58Z</time>
      </trkpt>
      <trkpt lat="43.34075" lon="2.03893">
        <ele>186.15</ele>
        <time>2018-04-07T14:03:59Z</time>
      </trkpt>
      <trkpt lat="43.34072" lon="2.03891">
        <ele>184.71</ele>
        <time>2018-04-07T14:04:02Z</time>
      </trkpt>
      <trkpt lat="43.34059" lon="2.03877">
        <ele>186.15</ele>
        <time>2018-04-07T14:04:17Z</time>
      </trkpt>
      <trkpt lat="43.3405" lon="2.03868">
        <ele>186.15</ele>
        <time>2018-04-07T14:04:27Z</time>
      </trkpt>
      <trkpt lat="43.34035" lon="2.03853">
        <ele>187.11</ele>
        <time>2018-04-07T14:04:45Z</time>
      </trkpt>
      <trkpt lat="43.34033" lon="2.03851">
        <ele>186.63</ele>
        <time>2018-04-07T14:04:47Z</time>
      </trkpt>
      <trkpt lat="43.34017" lon="2.03838">
        <ele>186.15</ele>
        <time>2018-04-07T14:05:03Z</time>
      </trkpt>
      <trkpt lat="43.34004" lon="2.03827">
        <ele>188.08</ele>
        <time>2018-04-07T14:05:17Z</time>
      </trkpt>
      <trkpt lat="43.33988" lon="2.03815">
        <ele>187.11</ele>
        <time>2018-04-07T14:05:32Z</time>
      </trkpt>
      <trkpt lat="43.3397" lon="2.03804">
        <ele>184.71</ele>
        <time>2018-04-07T14:05:49Z</time>
      </trkpt>
      <trkpt lat="43.33952" lon="2.03791">
        <ele>184.71</ele>
        <time>2018-04-07T14:06:06Z</time>
      </trkpt>
      <trkpt lat="43.33942" lon="2.03783">
        <ele>186.15</ele>
        <time>2018-04-07T14:06:16Z</time>
      </trkpt>
      <trkpt lat="43.33929" lon="2.0377">
        <ele>185.19</ele>
        <time>2018-04-07T14:06:31Z</time>
      </trkpt>
      <trkpt lat="43.33917" lon="2.03755">
        <ele>186.15</ele>
        <time>2018-04-07T14:06:46Z</time>
      </trkpt>
      <trkpt lat="43.33915" lon="2.03753">
        <ele>185.19</ele>
        <time>2018-04-07T14:06:48Z</time>
      </trkpt>
      <trkpt lat="43.33905" lon="2.03741">
        <ele>186.15</ele>
        <time>2018-04-07T14:06:59Z</time>
      </trkpt>
      <trkpt lat="43.33891" lon="2.03726">
        <ele>186.63</ele>
        <time>2018-04-07T14:07:14Z</time>
      </trkpt>
      <trkpt lat="43.33885" lon="2.03718">
        <ele>186.15</ele>
        <time>2018-04-07T14:07:20Z</time>
      </trkpt>
      <trkpt lat="43.3387" lon="2.037">
        <ele>185.19</ele>
        <time>2018-04-07T14:07:37Z</time>
      </trkpt>
      <trkpt lat="43.33859" lon="2.03683">
        <ele>183.75</ele>
        <time>2018-04-07T14:07:52Z</time>
      </trkpt>
      <trkpt lat="43.33846" lon="2.03668">
        <ele>181.35</ele>
        <time>2018-04-07T14:08:07Z</time>
      </trkpt>
      <trkpt lat="43.33834" lon="2.03657">
        <ele>181.35</ele>
        <time>2018-04-07T14:08:20Z</time>
      </trkpt>
      <trkpt lat="43.33817" lon="2.03641">
        <ele>179.9</ele>
        <time>2018-04-07T14:08:37Z</time>
      </trkpt>
      <trkpt lat="43.33802" lon="2.03628">
        <ele>179.9</ele>
        <time>2018-04-07T14:08:53Z</time>
      </trkpt>
      <trkpt lat="43.33784" lon="2.0361">
        <ele>177.02</ele>
        <time>2018-04-07T14:09:11Z</time>
      </trkpt>
      <trkpt lat="43.33769" lon="2.03598">
        <ele>173.66</ele>
        <time>2018-04-07T14:09:25Z</time>
      </trkpt>
      <trkpt lat="43.33752" lon="2.03585">
        <ele>172.69</ele>
        <time>2018-04-07T14:09:42Z</time>
      </trkpt>
      <trkpt lat="43.33733" lon="2.03578">
        <ele>173.17</ele>
        <time>2018-04-07T14:09:57Z</time>
      </trkpt>
      <trkpt lat="43.33722" lon="2.03575">
        <ele>173.17</ele>
        <time>2018-04-07T14:10:07Z</time>
      </trkpt>
      <trkpt lat="43.33707" lon="2.03575">
        <ele>169.81</ele>
        <time>2018-04-07T14:10:19Z</time>
      </trkpt>
      <trkpt lat="43.33685" lon="2.03574">
        <ele>169.33</ele>
        <time>2018-04-07T14:10:35Z</time>
      </trkpt>
      <trkpt lat="43.33673" lon="2.03577">
        <ele>167.89</ele>
        <time>2018-04-07T14:10:46Z</time>
      </trkpt>
      <trkpt lat="43.33653" lon="2.03582">
        <ele>168.85</ele>
        <time>2018-04-07T14:11:04Z</time>
      </trkpt>
      <trkpt lat="43.33635" lon="2.03584">
        <ele>169.81</ele>
        <time>2018-04-07T14:11:19Z</time>
      </trkpt>
      <trkpt lat="43.33623" lon="2.03586">
        <ele>167.89</ele>
        <time>2018-04-07T14:11:29Z</time>
      </trkpt>
      <trkpt lat="43.33615" lon="2.0359">
        <ele>167.89</ele>
        <time>2018-04-07T14:11:37Z</time>
      </trkpt>
      <trkpt lat="43.33608" lon="2.03595">
        <ele>169.33</ele>
        <time>2018-04-07T14:11:43Z</time>
      </trkpt>
      <trkpt lat="43.33589" lon="2.03603">
        <ele>168.37</ele>
        <time>2018-04-07T14:11:59Z</time>
      </trkpt>
      <trkpt lat="43.3357" lon="2.03606">
        <ele>169.33</ele>
        <time>2018-04-07T14:12:16Z</time>
      </trkpt>
      <trkpt lat="43.3356" lon="2.03606">
        <ele>169.33</ele>
        <time>2018-04-07T14:12:24Z</time>
      </trkpt>
      <trkpt lat="43.33545" lon="2.03607">
        <ele>169.81</ele>
        <time>2018-04-07T14:12:38Z</time>
      </trkpt>
      <trkpt lat="43.33526" lon="2.03608">
        <ele>168.37</ele>
        <time>2018-04-07T14:12:54Z</time>
      </trkpt>
      <trkpt lat="43.33518" lon="2.0361">
        <ele>168.85</ele>
        <time>2018-04-07T14:13:00Z</time>
      </trkpt>
      <trkpt lat="43.33516" lon="2.03611">
        <ele>169.81</ele>
        <time>2018-04-07T14:13:02Z</time>
      </trkpt>
      <trkpt lat="43.33499" lon="2.03618">
        <ele>169.81</ele>
        <time>2018-04-07T14:13:17Z</time>
      </trkpt>
      <trkpt lat="43.33488" lon="2.0362">
        <ele>170.29</ele>
        <time>2018-04-07T14:13:26Z</time>
      </trkpt>
      <trkpt lat="43.33481" lon="2.03619">
        <ele>170.29</ele>
        <time>2018-04-07T14:13:32Z</time>
      </trkpt>
      <trkpt lat="43.33465" lon="2.03614">
        <ele>169.33</ele>
        <time>2018-04-07T14:13:47Z</time>
      </trkpt>
      <trkpt lat="43.33459" lon="2.03609">
        <ele>169.33</ele>
        <time>2018-04-07T14:13:54Z</time>
      </trkpt>
      <trkpt lat="43.33459" lon="2.03607">
        <ele>169.33</ele>
        <time>2018-04-07T14:13:56Z</time>
      </trkpt>
      <trkpt lat="43.33455" lon="2.03602">
        <ele>169.33</ele>
        <time>2018-04-07T14:14:02Z</time>
      </trkpt>
      <trkpt lat="43.3345" lon="2.03596">
        <ele>169.81</ele>
        <time>2018-04-07T14:14:08Z</time>
      </trkpt>
      <trkpt lat="43.33438" lon="2.03576">
        <ele>169.33</ele>
        <time>2018-04-07T14:14:25Z</time>
      </trkpt>
      <trkpt lat="43.33435" lon="2.03573">
        <ele>169.33</ele>
        <time>2018-04-07T14:14:28Z</time>
      </trkpt>
      <trkpt lat="43.33425" lon="2.03557">
        <ele>168.37</ele>
        <time>2018-04-07T14:14:42Z</time>
      </trkpt>
      <trkpt lat="43.33412" lon="2.03545">
        <ele>171.25</ele>
        <time>2018-04-07T14:14:57Z</time>
      </trkpt>
      <trkpt lat="43.33403" lon="2.03539">
        <ele>168.37</ele>
        <time>2018-04-07T14:15:05Z</time>
      </trkpt>
      <trkpt lat="43.33387" lon="2.03527">
        <ele>168.37</ele>
        <time>2018-04-07T14:15:21Z</time>
      </trkpt>
      <trkpt lat="43.3337" lon="2.03514">
        <ele>168.37</ele>
        <time>2018-04-07T14:15:37Z</time>
      </trkpt>
      <trkpt lat="43.33359" lon="2.03504">
        <ele>167.41</ele>
        <time>2018-04-07T14:15:52Z</time>
      </trkpt>
      <trkpt lat="43.33356" lon="2.03503">
        <ele>168.85</ele>
        <time>2018-04-07T14:15:55Z</time>
      </trkpt>
      <trkpt lat="43.33336" lon="2.03494">
        <ele>167.89</ele>
        <time>2018-04-07T14:16:12Z</time>
      </trkpt>
      <trkpt lat="43.33322" lon="2.03491">
        <ele>167.89</ele>
        <time>2018-04-07T14:16:25Z</time>
      </trkpt>
      <trkpt lat="43.33303" lon="2.03495">
        <ele>167.89</ele>
        <time>2018-04-07T14:16:41Z</time>
      </trkpt>
      <trkpt lat="43.33286" lon="2.03507">
        <ele>167.41</ele>
        <time>2018-04-07T14:17:00Z</time>
      </trkpt>
      <trkpt lat="43.33285" lon="2.03507">
        <ele>167.41</ele>
        <time>2018-04-07T14:17:01Z</time>
      </trkpt>
      <trkpt lat="43.33268" lon="2.03521">
        <ele>166.93</ele>
        <time>2018-04-07T14:17:19Z</time>
      </trkpt>
      <trkpt lat="43.33254" lon="2.0353">
        <ele>166.45</ele>
        <time>2018-04-07T14:17:34Z</time>
      </trkpt>
      <trkpt lat="43.33245" lon="2.03541">
        <ele>165.48</ele>
        <time>2018-04-07T14:17:43Z</time>
      </trkpt>
      <trkpt lat="43.33226" lon="2.03551">
        <ele>166.45</ele>
        <time>2018-04-07T14:18:00Z</time>
      </trkpt>
      <trkpt lat="43.33218" lon="2.03555">
        <ele>165</ele>
        <time>2018-04-07T14:18:09Z</time>
      </trkpt>
      <trkpt lat="43.33209" lon="2.03563">
        <ele>164.52</ele>
        <time>2018-04-07T14:18:20Z</time>
      </trkpt>
      <trkpt lat="43.33201" lon="2.03569">
        <ele>165.48</ele>
        <time>2018-04-07T14:18:27Z</time>
      </trkpt>
      <trkpt lat="43.3319" lon="2.03578">
        <ele>166.45</ele>
        <time>2018-04-07T14:18:39Z</time>
      </trkpt>
      <trkpt lat="43.33186" lon="2.03581">
        <ele>166.45</ele>
        <time>2018-04-07T14:18:44Z</time>
      </trkpt>
      <trkpt lat="43.33176" lon="2.03586">
        <ele>166.45</ele>
        <time>2018-04-07T14:18:56Z</time>
      </trkpt>
      <trkpt lat="43.33168" lon="2.03581">
        <ele>165.96</ele>
        <time>2018-04-07T14:19:08Z</time>
      </trkpt>
      <trkpt lat="43.33165" lon="2.03576">
        <ele>164.04</ele>
        <time>2018-04-07T14:19:14Z</time>
      </trkpt>
      <trkpt lat="43.3316" lon="2.0357">
        <ele>166.93</ele>
        <time>2018-04-07T14:19:23Z</time>
      </trkpt>
      <trkpt lat="43.33152" lon="2.03551">
        <ele>165</ele>
        <time>2018-04-07T14:19:39Z</time>
      </trkpt>
      <trkpt lat="43.33147" lon="2.03546">
        <ele>166.93</ele>
        <time>2018-04-07T14:19:46Z</time>
      </trkpt>
      <trkpt lat="43.33147" lon="2.03542">
        <ele>165</ele>
        <time>2018-04-07T14:19:54Z</time>
      </trkpt>
      <trkpt lat="43.33146" lon="2.03539">
        <ele>165</ele>
        <time>2018-04-07T14:19:56Z</time>
      </trkpt>
      <trkpt lat="43.33145" lon="2.03535">
        <ele>166.45</ele>
        <time>2018-04-07T14:19:58Z</time>
      </trkpt>
      <trkpt lat="43.33139" lon="2.03522">
        <ele>165</ele>
        <time>2018-04-07T14:20:10Z</time>
      </trkpt>
      <trkpt lat="43.33134" lon="2.03519">
        <ele>165</ele>
        <time>2018-04-07T14:20:15Z</time>
      </trkpt>
      <trkpt lat="43.33129" lon="2.03512">
        <ele>164.52</ele>
        <time>2018-04-07T14:20:21Z</time>
      </trkpt>
      <trkpt lat="43.33122" lon="2.03502">
        <ele>165</ele>
        <time>2018-04-07T14:20:31Z</time>
      </trkpt>
      <trkpt lat="43.33119" lon="2.03496">
        <ele>165</ele>
        <time>2018-04-07T14:20:37Z</time>
      </trkpt>
      <trkpt lat="43.33113" lon="2.03491">
        <ele>164.52</ele>
        <time>2018-04-07T14:20:43Z</time>
      </trkpt>
      <trkpt lat="43.33109" lon="2.03491">
        <ele>165.48</ele>
        <time>2018-04-07T14:20:46Z</time>
      </trkpt>
      <trkpt lat="43.33096" lon="2.03488">
        <ele>165.48</ele>
        <time>2018-04-07T14:21:00Z</time>
      </trkpt>
    </trkseg>
  </trk>
</gpx>